[[{"header":{"parameterUnit":"m.s-1","parameterCategory":1,"la1":31.0,"la2":29.5877,"lo1":-88.7671,"lo2":-86.6584,"dx":0.0162,"dy":0.0185,"nx":115,"ny":88,"refTime":"2023-01-16T06:00:00:Z","depth":0,"parameterNumber":2,"parameterNumberName":"U-component_of_WINDS"},"data":[0.0,0.0,0.0,0.0,0.0,0.0,0.0,0.0,0.0,0.0,0.0,0.0,0.0,0.0,0.0,0.0,0.0,0.0,0.0,0.0,0.0,0.0,0.0,0.0,0.0,0.0,0.0,0.0,0.0,0.0,0.0,0.0,0.0,0.0,0.0,0.0,0.0,0.0,0.0,0.0,0.0,0.0,0.0,0.0,0.0,0.0,0.0,0.0,0.0,0.0,0.0,0.0,0.0,0.0,0.0,0.0,0.0,0.0,0.0,0.0,0.0,0.0,0.0,0.0,0.0,0.0,0.0,0.0,0.0,0.0,0.0,0.0,0.0,0.0,0.0,0.0,0.0,0.0,0.0,0.0,0.0,0.0,0.0,0.0,0.0,0.0,0.0,0.0,0.0,0.0,0.0,0.0,0.0,0.0,0.0,0.0,0.0,0.0,0.0,0.0,0.0,0.0,0.0,0.0,0.0,0.0,0.0,0.0,0.0,0.0,0.0,0.0,0.0,0.0,0.0,0.0,0.0,0.0,0.0,0.0,0.0,0.0,0.0,0.0,0.0,0.0,0.0,0.0,0.0,0.0,0.0,0.0,0.0,0.0,0.0,0.0,0.0,0.0,0.0,0.0,0.0,0.0,0.0,0.0,0.0,0.0,0.0,0.0,0.0,0.0,0.0,0.0,0.0,0.0,0.0,0.0,0.0,0.0,0.0,0.0,0.0,0.0,0.0,0.0,0.0,0.0,0.0,0.0,0.0,0.0,0.0,0.0,0.0,0.0,0.0,0.0,0.0,0.0,0.0,0.0,0.0,0.0,0.0,0.0,0.0,0.0,0.0,0.0,0.0,0.0,0.0,0.0,0.0,0.0,0.0,0.0,0.0,0.0,0.0,0.0,0.0,0.0,0.0,0.0,0.0,0.0,0.0,0.0,0.0,0.0,0.0,0.0,0.0,0.0,0.0,0.0,0.0,0.0,0.0,0.0,0.0,0.0,0.0,0.0,0.0,0.0,0.0,0.0,0.0,0.0,0.0,0.0,0.0,0.0,0.0,0.0,0.0,0.0,0.0,0.0,0.0,0.0,0.0,0.0,0.0,0.0,0.0,0.0,0.0,0.0,0.0,0.0,0.0,0.0,0.0,0.0,0.0,0.0,0.0,0.0,0.0,0.0,0.0,0.0,0.0,0.0,0.0,0.0,0.0,0.0,0.0,0.0,0.0,0.0,0.0,0.0,0.0,0.0,0.0,0.0,0.0,0.0,0.0,0.0,0.0,0.0,0.0,0.0,0.0,0.0,0.0,0.0,0.0,0.0,0.0,0.0,0.0,0.0,0.0,0.0,0.0,0.0,0.0,0.0,0.0,0.0,0.0,0.0,0.0,0.0,0.0,0.0,0.0,0.0,0.0,0.0,0.0,0.0,0.0,0.0,0.0,0.0,0.0,0.0,0.0,0.0,0.0,0.0,0.0,0.0,0.0,0.0,0.0,0.0,0.0,0.0,0.0,0.0,0.0,0.0,0.0,0.0,0.0,0.0,0.0,0.0,0.0,0.0,0.0,0.0,0.0,0.0,0.0,0.0,0.0,0.0,0.0,0.0,0.0,0.0,0.0,0.0,0.0,0.0,0.0,0.0,0.0,0.0,0.0,0.0,0.0,0.0,0.0,0.0,0.0,0.0,0.0,0.0,0.0,0.0,0.0,0.0,0.0,0.0,0.0,0.0,0.0,0.0,0.0,0.0,0.0,0.0,0.0,0.0,0.0,0.0,0.0,0.0,0.0,0.0,0.0,0.0,0.0,0.0,0.0,0.0,0.0,0.0,0.0,0.0,0.0,0.0,0.0,0.0,0.0,0.0,0.0,0.0,0.0,0.0,0.0,0.0,0.0,0.0,0.0,0.0,0.0,0.0,0.0,0.0,0.0,0.0,0.0,0.0,0.0,0.0,0.0,0.0,0.0,0.0,0.0,0.0,0.0,0.0,0.0,0.0,0.0,0.0,0.0,0.0,0.0,0.0,0.0,0.0,0.0,0.0,0.0,0.0,0.0,0.0,0.0,0.0,0.0,0.0,0.0,0.0,0.0,0.0,0.0,0.0,0.0,0.0,0.0,0.0,0.0,0.0,0.0,0.0,0.0,0.0,0.0,0.0,0.0,0.0,0.0,0.0,0.0,0.0,0.0,0.0,0.0,0.0,0.0,0.0,0.0,0.0,0.0,0.0,0.0,0.0,0.0,0.0,0.0,0.0,0.0,0.0,0.0,0.0,0.0,0.0,0.0,0.0,0.0,0.0,0.0,0.0,0.0,0.0,0.0,0.0,0.0,0.0,0.0,0.0,0.0,0.0,0.0,0.0,0.0,0.0,0.0,0.0,0.0,0.0,0.0,0.0,0.0,0.0,0.0,0.0,0.0,0.0,0.0,0.0,0.0,0.0,0.0,0.0,0.0,0.0,0.0,0.0,0.0,0.0,0.0,0.0,0.0,0.0,0.0,0.0,0.0,0.0,0.0,0.0,0.0,0.0,0.0,0.0,0.0,0.0,0.0,0.0,0.0,0.0,0.0,0.0,0.0,0.0,0.0,0.0,0.0,0.0,0.0,0.0,0.0,0.0,0.0,0.0,0.0,0.0,0.0,0.0,0.0,0.0,0.0,0.0,0.0,0.0,0.0,0.0,0.0,0.0,0.0,0.0,0.0,0.0,0.0,0.0,0.0,0.0,0.0,0.0,0.0,0.0,0.0,0.0,0.0,0.0,0.0,0.0,0.0,0.0,0.0,0.0,0.0,0.0,0.0,0.0,0.0,0.0,0.0,0.0,0.0,0.0,0.0,0.0,0.0,0.0,0.0,0.0,0.0,0.0,0.0,0.0,0.0,0.0,0.0,0.0,0.0,0.0,0.0,0.0,0.0,0.0,0.0,0.0,0.0,0.0,0.0,0.0,0.0,0.0,0.0,0.0,0.0,0.0,0.0,0.0,0.0,0.0,0.0,0.0,0.0,0.0,0.0,0.0,0.0,0.0,0.0,0.0,0.0,0.0,0.0,0.0,0.0,0.0,0.0,0.0,0.0,0.0,0.0,0.0,0.0,0.0,0.0,0.0,0.0,0.0,0.0,0.0,0.0,0.0,0.0,0.0,0.0,0.0,0.0,0.0,0.0,0.0,0.0,0.0,0.0,0.0,0.0,0.0,0.0,0.0,0.0,0.0,0.0,0.0,0.0,0.0,0.0,0.0,0.0,0.0,0.0,0.0,0.0,0.0,0.0,0.0,0.0,0.0,0.0,0.0,0.0,0.0,0.0,0.0,0.0,0.0,0.0,0.0,0.0,0.0,0.0,0.0,0.0,0.0,0.0,0.0,0.0,0.0,0.0,0.0,0.0,0.0,0.0,0.0,0.0,0.0,0.0,0.0,0.0,0.0,0.0,0.0,0.0,0.0,0.0,0.0,0.0,0.0,0.0,0.0,0.0,0.0,0.0,0.0,0.0,0.0,0.0,0.0,0.0,0.0,0.0,0.0,0.0,0.0,0.0,0.0,0.0,0.0,0.0,0.0,0.0,0.0,0.0,0.0,0.0,0.0,0.0,0.0,0.0,0.0,0.0,0.0,0.0,0.0,0.0,0.0,0.0,0.0,0.0,0.0,0.0,0.0,0.0,0.0,0.0,0.0,0.0,0.0,0.0,0.0,0.0,0.0,0.0,0.0,0.0,0.0,0.0,0.0,0.0,0.0,0.0,0.0,0.0,0.0,0.0,0.0,0.0,0.0,0.0,0.0,0.0,0.0,0.0,0.0,0.0,0.0,0.0,0.0,0.0,0.0,0.0,0.0,0.0,0.0,0.0,0.0,0.0,0.0,0.0,0.0,0.0,0.0,0.0,0.0,0.0,0.0,0.0,0.0,0.0,0.0,0.0,0.0,0.0,0.0,0.0,0.0,0.0,0.0,0.0,0.0,0.0,0.0,0.0,0.0,0.0,0.0,0.0,0.0,0.0,0.0,0.0,0.0,0.0,0.0,0.0,0.0,0.0,0.0,0.0,0.0,0.0,0.0,0.0,0.0,0.0,0.0,0.0,0.0,0.0,0.0,0.0,0.0,0.0,0.0,0.0,0.0,0.0,0.0,0.0,0.0,0.0,0.0,0.0,0.0,0.0,0.0,0.0,0.0,0.0,0.0,0.0,0.0,0.0,0.0,0.0,0.0,0.0,0.0,0.0,0.0,0.0,0.0,0.0,0.0,0.0,0.0,0.0,0.0,0.0,0.0,0.0,0.0,0.0,0.0,0.0,0.0,0.0,0.0,-5.1411,0.0,0.0,0.0,0.0,0.0,0.0,0.0,0.0,0.0,0.0,0.0,0.0,0.0,0.0,0.0,0.0,0.0,0.0,0.0,0.0,0.0,0.0,0.0,0.0,0.0,0.0,0.0,0.0,0.0,0.0,0.0,0.0,0.0,0.0,0.0,0.0,0.0,0.0,0.0,0.0,0.0,0.0,0.0,0.0,0.0,0.0,0.0,0.0,0.0,0.0,0.0,0.0,0.0,0.0,0.0,0.0,0.0,0.0,0.0,0.0,0.0,0.0,0.0,0.0,0.0,0.0,0.0,0.0,0.0,0.0,0.0,0.0,0.0,0.0,0.0,0.0,0.0,0.0,0.0,0.0,0.0,0.0,0.0,0.0,0.0,0.0,0.0,0.0,0.0,0.0,0.0,0.0,0.0,0.0,0.0,0.0,0.0,0.0,0.0,0.0,0.0,0.0,0.0,0.0,0.0,0.0,0.0,0.0,0.0,0.0,-5.394,-5.3979,-5.3175,-5.252,-5.2088,0.0,0.0,0.0,0.0,0.0,0.0,0.0,0.0,0.0,0.0,0.0,0.0,0.0,0.0,0.0,0.0,0.0,0.0,0.0,0.0,0.0,0.0,0.0,0.0,0.0,0.0,0.0,0.0,0.0,0.0,0.0,0.0,0.0,0.0,0.0,0.0,0.0,0.0,0.0,0.0,0.0,0.0,0.0,0.0,0.0,0.0,0.0,0.0,0.0,0.0,0.0,0.0,0.0,0.0,0.0,0.0,0.0,0.0,0.0,0.0,0.0,0.0,0.0,0.0,0.0,0.0,0.0,0.0,0.0,0.0,0.0,0.0,0.0,0.0,0.0,0.0,0.0,0.0,0.0,0.0,0.0,0.0,0.0,0.0,0.0,0.0,0.0,0.0,0.0,0.0,0.0,0.0,0.0,0.0,0.0,0.0,0.0,0.0,0.0,0.0,0.0,0.0,0.0,0.0,0.0,0.0,0.0,0.0,0.0,0.0,0.0,0.0,-5.3774,-5.2806,-5.2416,0.0,0.0,0.0,0.0,0.0,0.0,0.0,0.0,0.0,0.0,0.0,0.0,0.0,0.0,0.0,0.0,0.0,0.0,0.0,0.0,0.0,0.0,0.0,0.0,0.0,0.0,0.0,0.0,0.0,0.0,0.0,0.0,0.0,0.0,0.0,0.0,0.0,0.0,0.0,0.0,0.0,0.0,0.0,0.0,0.0,0.0,0.0,0.0,0.0,0.0,0.0,0.0,0.0,0.0,0.0,0.0,0.0,0.0,0.0,0.0,0.0,0.0,0.0,0.0,0.0,0.0,0.0,0.0,0.0,0.0,0.0,0.0,0.0,0.0,0.0,0.0,0.0,0.0,0.0,0.0,0.0,0.0,0.0,0.0,0.0,0.0,0.0,0.0,0.0,0.0,0.0,0.0,0.0,0.0,0.0,0.0,0.0,0.0,0.0,0.0,0.0,0.0,0.0,0.0,0.0,0.0,0.0,0.0,0.0,0.0,-5.592,-5.5221,-5.4333,0.0,-5.1646,0.0,0.0,0.0,0.0,0.0,0.0,0.0,0.0,0.0,0.0,0.0,0.0,0.0,0.0,0.0,0.0,0.0,0.0,0.0,0.0,0.0,0.0,0.0,0.0,0.0,0.0,0.0,0.0,0.0,0.0,0.0,0.0,0.0,0.0,0.0,0.0,0.0,0.0,0.0,0.0,0.0,0.0,0.0,0.0,0.0,0.0,0.0,0.0,0.0,0.0,0.0,0.0,0.0,0.0,0.0,0.0,0.0,0.0,0.0,0.0,0.0,0.0,0.0,0.0,0.0,0.0,0.0,0.0,0.0,0.0,0.0,0.0,0.0,0.0,0.0,0.0,0.0,0.0,0.0,0.0,0.0,0.0,0.0,0.0,0.0,0.0,0.0,0.0,0.0,0.0,0.0,0.0,0.0,0.0,0.0,0.0,0.0,0.0,0.0,0.0,0.0,0.0,0.0,0.0,0.0,0.0,0.0,0.0,0.0,0.0,-5.6402,-5.6053,-5.4728,-5.3171,0.0,0.0,0.0,0.0,0.0,0.0,0.0,0.0,0.0,0.0,0.0,0.0,0.0,0.0,0.0,0.0,0.0,0.0,0.0,0.0,0.0,0.0,0.0,0.0,0.0,0.0,0.0,0.0,0.0,0.0,0.0,0.0,0.0,0.0,0.0,0.0,0.0,0.0,0.0,0.0,0.0,0.0,0.0,0.0,0.0,0.0,0.0,0.0,0.0,0.0,0.0,0.0,0.0,0.0,0.0,0.0,0.0,0.0,0.0,0.0,0.0,0.0,0.0,0.0,0.0,0.0,0.0,0.0,0.0,0.0,0.0,0.0,0.0,0.0,0.0,0.0,0.0,0.0,0.0,0.0,0.0,0.0,0.0,0.0,0.0,0.0,0.0,0.0,0.0,0.0,0.0,0.0,0.0,0.0,0.0,0.0,0.0,0.0,0.0,0.0,0.0,0.0,0.0,0.0,0.0,0.0,0.0,0.0,0.0,0.0,-5.6294,-5.6489,-5.6216,-5.4771,-5.3288,-5.1804,0.0,0.0,0.0,0.0,0.0,0.0,0.0,0.0,0.0,0.0,0.0,0.0,0.0,0.0,0.0,0.0,0.0,0.0,0.0,0.0,0.0,0.0,0.0,0.0,0.0,0.0,0.0,0.0,0.0,0.0,0.0,0.0,0.0,0.0,0.0,0.0,0.0,0.0,0.0,0.0,0.0,0.0,0.0,0.0,0.0,0.0,0.0,0.0,0.0,0.0,0.0,0.0,0.0,0.0,0.0,0.0,0.0,0.0,0.0,0.0,0.0,0.0,0.0,0.0,0.0,0.0,0.0,0.0,0.0,0.0,0.0,0.0,0.0,0.0,0.0,0.0,0.0,0.0,0.0,0.0,0.0,0.0,0.0,0.0,0.0,0.0,0.0,0.0,0.0,0.0,0.0,0.0,0.0,0.0,0.0,0.0,0.0,0.0,0.0,0.0,0.0,0.0,0.0,0.0,0.0,0.0,0.0,0.0,0.0,-5.6567,-5.6177,-5.5396,-5.4498,-5.3561,0.0,0.0,0.0,0.0,0.0,0.0,0.0,0.0,0.0,0.0,0.0,0.0,0.0,0.0,0.0,0.0,0.0,0.0,0.0,0.0,0.0,0.0,0.0,0.0,0.0,0.0,0.0,0.0,0.0,0.0,0.0,0.0,0.0,0.0,0.0,0.0,0.0,0.0,0.0,0.0,0.0,0.0,0.0,0.0,0.0,0.0,0.0,0.0,0.0,0.0,0.0,0.0,0.0,0.0,0.0,0.0,0.0,0.0,0.0,0.0,0.0,0.0,0.0,0.0,0.0,0.0,0.0,0.0,0.0,0.0,0.0,0.0,0.0,0.0,0.0,0.0,0.0,0.0,0.0,0.0,0.0,0.0,0.0,0.0,0.0,0.0,0.0,0.0,0.0,0.0,0.0,0.0,0.0,0.0,0.0,0.0,0.0,0.0,0.0,0.0,0.0,0.0,0.0,0.0,0.0,0.0,0.0,0.0,0.0,-5.6475,-5.6545,-5.6116,-5.5267,-5.4955,-5.4099,0.0,0.0,0.0,0.0,0.0,0.0,0.0,0.0,0.0,0.0,0.0,0.0,0.0,0.0,0.0,0.0,0.0,0.0,0.0,0.0,0.0,0.0,0.0,0.0,0.0,0.0,0.0,0.0,0.0,0.0,0.0,0.0,0.0,0.0,0.0,0.0,0.0,0.0,0.0,0.0,0.0,0.0,0.0,0.0,0.0,0.0,0.0,0.0,0.0,0.0,0.0,0.0,0.0,0.0,0.0,0.0,0.0,0.0,0.0,0.0,0.0,0.0,0.0,0.0,0.0,0.0,0.0,0.0,0.0,0.0,0.0,0.0,0.0,0.0,0.0,0.0,0.0,0.0,0.0,0.0,0.0,0.0,0.0,0.0,0.0,0.0,0.0,0.0,0.0,0.0,0.0,0.0,0.0,0.0,0.0,0.0,0.0,0.0,0.0,0.0,0.0,0.0,0.0,0.0,0.0,0.0,0.0,0.0,0.0,-5.6461,0.0,-5.6215,-5.5642,-5.5335,-5.4679,0.0,0.0,0.0,0.0,0.0,0.0,0.0,0.0,0.0,0.0,0.0,0.0,0.0,0.0,0.0,0.0,0.0,0.0,0.0,0.0,0.0,0.0,0.0,0.0,0.0,0.0,0.0,0.0,0.0,0.0,0.0,0.0,0.0,0.0,0.0,0.0,0.0,0.0,0.0,0.0,0.0,0.0,0.0,0.0,0.0,0.0,0.0,0.0,0.0,0.0,0.0,0.0,0.0,0.0,0.0,0.0,0.0,0.0,0.0,0.0,0.0,0.0,0.0,0.0,0.0,0.0,0.0,0.0,0.0,0.0,0.0,0.0,0.0,0.0,0.0,0.0,0.0,0.0,0.0,0.0,0.0,0.0,0.0,0.0,0.0,0.0,0.0,0.0,0.0,0.0,0.0,0.0,0.0,0.0,0.0,0.0,0.0,0.0,0.0,0.0,0.0,0.0,0.0,0.0,0.0,0.0,0.0,0.0,-5.6497,-5.6482,-5.6482,-5.6482,-5.6482,-5.5681,-5.5221,0.0,0.0,0.0,0.0,0.0,0.0,0.0,0.0,0.0,0.0,0.0,0.0,0.0,0.0,0.0,0.0,0.0,0.0,0.0,0.0,0.0,0.0,0.0,0.0,0.0,0.0,0.0,0.0,0.0,0.0,0.0,0.0,0.0,0.0,0.0,0.0,0.0,0.0,0.0,0.0,0.0,0.0,0.0,0.0,0.0,0.0,0.0,0.0,0.0,0.0,0.0,0.0,0.0,0.0,0.0,0.0,0.0,0.0,0.0,0.0,0.0,0.0,0.0,0.0,0.0,0.0,0.0,0.0,0.0,0.0,0.0,0.0,0.0,0.0,0.0,0.0,0.0,0.0,0.0,0.0,0.0,0.0,0.0,0.0,0.0,0.0,0.0,0.0,0.0,0.0,0.0,0.0,0.0,0.0,0.0,0.0,0.0,0.0,0.0,0.0,0.0,0.0,0.0,0.0,0.0,0.0,0.0,0.0,0.0,-5.6523,-5.6484,-5.6492,-5.6503,-5.6248,-5.5834,0.0,0.0,0.0,0.0,0.0,0.0,0.0,0.0,0.0,0.0,0.0,0.0,0.0,0.0,0.0,0.0,0.0,0.0,0.0,0.0,0.0,0.0,0.0,0.0,0.0,0.0,0.0,0.0,0.0,0.0,0.0,0.0,0.0,0.0,0.0,0.0,0.0,0.0,0.0,0.0,0.0,0.0,0.0,0.0,0.0,0.0,0.0,0.0,0.0,0.0,0.0,0.0,0.0,0.0,0.0,0.0,0.0,0.0,0.0,0.0,0.0,0.0,0.0,0.0,0.0,0.0,0.0,0.0,0.0,0.0,0.0,0.0,0.0,0.0,0.0,0.0,0.0,0.0,0.0,0.0,0.0,0.0,0.0,0.0,0.0,0.0,0.0,0.0,0.0,0.0,0.0,0.0,0.0,0.0,0.0,0.0,0.0,0.0,0.0,0.0,0.0,0.0,0.0,0.0,0.0,0.0,0.0,0.0,0.0,-5.7442,-5.7442,-5.7446,-5.742,-5.7127,-5.6716,-5.6185,0.0,0.0,0.0,0.0,0.0,0.0,0.0,0.0,0.0,0.0,0.0,0.0,0.0,0.0,0.0,0.0,0.0,0.0,0.0,0.0,0.0,0.0,0.0,0.0,0.0,0.0,0.0,0.0,0.0,0.0,0.0,0.0,0.0,0.0,0.0,0.0,0.0,0.0,0.0,0.0,0.0,0.0,0.0,0.0,0.0,0.0,0.0,0.0,0.0,0.0,0.0,0.0,0.0,0.0,0.0,0.0,0.0,0.0,0.0,0.0,0.0,0.0,0.0,0.0,0.0,0.0,0.0,0.0,0.0,0.0,0.0,0.0,0.0,0.0,0.0,0.0,0.0,0.0,0.0,0.0,0.0,0.0,0.0,0.0,0.0,0.0,0.0,0.0,0.0,0.0,0.0,0.0,0.0,0.0,0.0,0.0,0.0,0.0,0.0,0.0,0.0,0.0,0.0,0.0,0.0,0.0,0.0,0.0,-5.904,-5.9152,-5.9152,-5.8962,-5.8242,-5.7868,0.0,0.0,0.0,0.0,0.0,0.0,0.0,0.0,0.0,0.0,0.0,0.0,0.0,0.0,0.0,0.0,0.0,0.0,0.0,0.0,0.0,0.0,0.0,0.0,0.0,0.0,0.0,0.0,0.0,0.0,0.0,0.0,0.0,0.0,0.0,0.0,0.0,0.0,0.0,0.0,0.0,0.0,0.0,0.0,0.0,0.0,0.0,0.0,0.0,0.0,0.0,0.0,0.0,0.0,0.0,0.0,0.0,0.0,0.0,0.0,0.0,0.0,0.0,0.0,0.0,0.0,0.0,0.0,0.0,0.0,0.0,0.0,0.0,0.0,0.0,0.0,0.0,0.0,0.0,0.0,0.0,0.0,0.0,0.0,0.0,0.0,0.0,0.0,0.0,0.0,0.0,0.0,0.0,0.0,0.0,0.0,0.0,0.0,0.0,0.0,0.0,0.0,0.0,0.0,0.0,0.0,0.0,0.0,0.0,-5.9971,-6.1218,-6.0945,-5.9079,-5.8784,-5.8414,0.0,0.0,0.0,0.0,0.0,0.0,0.0,0.0,0.0,0.0,0.0,0.0,0.0,0.0,0.0,0.0,0.0,0.0,0.0,0.0,0.0,0.0,0.0,0.0,0.0,0.0,0.0,0.0,0.0,0.0,0.0,0.0,0.0,0.0,0.0,0.0,0.0,0.0,0.0,0.0,0.0,0.0,0.0,0.0,0.0,0.0,0.0,0.0,0.0,0.0,0.0,0.0,0.0,0.0,0.0,0.0,0.0,0.0,0.0,0.0,0.0,0.0,0.0,0.0,0.0,0.0,0.0,0.0,0.0,0.0,0.0,0.0,0.0,0.0,0.0,0.0,0.0,0.0,0.0,0.0,0.0,0.0,0.0,0.0,0.0,0.0,0.0,0.0,0.0,0.0,0.0,0.0,0.0,0.0,0.0,0.0,0.0,0.0,0.0,0.0,0.0,0.0,0.0,0.0,0.0,0.0,0.0,0.0,-6.0165,-6.1373,-6.2387,-6.2348,-6.1179,-6.0452,-5.9732,0.0,0.0,0.0,0.0,0.0,0.0,0.0,0.0,0.0,0.0,0.0,0.0,0.0,0.0,0.0,0.0,0.0,0.0,0.0,0.0,0.0,0.0,0.0,0.0,0.0,0.0,0.0,0.0,0.0,0.0,0.0,0.0,0.0,0.0,0.0,0.0,0.0,0.0,0.0,0.0,0.0,0.0,0.0,0.0,0.0,0.0,0.0,0.0,0.0,0.0,0.0,0.0,0.0,0.0,0.0,0.0,0.0,0.0,0.0,0.0,0.0,0.0,0.0,0.0,0.0,0.0,0.0,0.0,0.0,0.0,0.0,0.0,0.0,0.0,0.0,0.0,0.0,0.0,0.0,0.0,0.0,0.0,0.0,0.0,0.0,0.0,0.0,0.0,0.0,0.0,0.0,0.0,0.0,0.0,0.0,0.0,0.0,0.0,0.0,0.0,0.0,0.0,0.0,0.0,0.0,0.0,0.0,0.0,-6.1257,-6.2854,-6.3088,-6.3478,-6.4023,-6.2542,-6.1357,0.0,0.0,0.0,0.0,0.0,0.0,0.0,0.0,0.0,0.0,0.0,0.0,0.0,0.0,0.0,0.0,0.0,0.0,0.0,0.0,0.0,0.0,0.0,0.0,0.0,0.0,0.0,0.0,0.0,0.0,0.0,0.0,0.0,0.0,0.0,0.0,0.0,0.0,0.0,0.0,0.0,0.0,0.0,0.0,0.0,0.0,0.0,0.0,0.0,0.0,0.0,0.0,0.0,0.0,0.0,0.0,0.0,0.0,0.0,0.0,0.0,0.0,0.0,0.0,0.0,0.0,0.0,0.0,0.0,0.0,0.0,0.0,0.0,0.0,0.0,0.0,0.0,0.0,0.0,0.0,0.0,0.0,0.0,0.0,0.0,0.0,0.0,0.0,0.0,0.0,0.0,0.0,0.0,0.0,0.0,0.0,0.0,0.0,0.0,0.0,0.0,0.0,0.0,0.0,0.0,0.0,0.0,0.0,-6.1841,-6.2893,-6.4179,-6.4608,-6.4101,-6.3127,-6.2215,0.0,0.0,0.0,0.0,0.0,0.0,0.0,0.0,0.0,0.0,0.0,0.0,0.0,0.0,0.0,0.0,0.0,0.0,0.0,0.0,0.0,0.0,0.0,0.0,0.0,0.0,0.0,0.0,0.0,0.0,0.0,0.0,0.0,0.0,0.0,0.0,0.0,0.0,0.0,0.0,0.0,0.0,0.0,0.0,0.0,0.0,0.0,0.0,-6.2149,0.0,0.0,0.0,0.0,0.0,0.0,0.0,0.0,0.0,0.0,0.0,0.0,0.0,0.0,0.0,0.0,0.0,0.0,0.0,0.0,0.0,0.0,0.0,0.0,0.0,0.0,0.0,0.0,0.0,0.0,0.0,0.0,0.0,0.0,0.0,0.0,0.0,0.0,0.0,0.0,0.0,0.0,0.0,0.0,0.0,0.0,0.0,0.0,0.0,0.0,0.0,0.0,0.0,0.0,0.0,0.0,0.0,0.0,0.0,-6.2815,-6.4023,-6.4958,-6.5382,-6.5309,-6.414,-6.3072,0.0,0.0,0.0,0.0,0.0,0.0,0.0,0.0,0.0,0.0,0.0,0.0,0.0,0.0,0.0,0.0,0.0,0.0,0.0,0.0,0.0,0.0,0.0,0.0,0.0,0.0,0.0,0.0,0.0,0.0,0.0,0.0,0.0,0.0,0.0,0.0,0.0,0.0,0.0,0.0,0.0,0.0,0.0,0.0,0.0,0.0,0.0,0.0,0.0,0.0,0.0,0.0,0.0,0.0,0.0,0.0,0.0,0.0,0.0,0.0,0.0,0.0,0.0,0.0,0.0,0.0,0.0,0.0,0.0,0.0,0.0,0.0,0.0,0.0,0.0,0.0,0.0,0.0,0.0,0.0,0.0,0.0,0.0,0.0,0.0,0.0,0.0,0.0,0.0,0.0,0.0,0.0,0.0,0.0,0.0,0.0,0.0,0.0,0.0,0.0,0.0,0.0,0.0,0.0,0.0,0.0,0.0,-6.2114,-6.3906,-6.5504,-6.5582,-6.6011,-6.6829,-6.5075,-6.3774,-6.3113,0.0,0.0,0.0,0.0,0.0,0.0,0.0,0.0,0.0,0.0,0.0,0.0,0.0,0.0,0.0,0.0,0.0,0.0,0.0,0.0,0.0,0.0,0.0,0.0,0.0,0.0,0.0,0.0,0.0,0.0,0.0,0.0,0.0,0.0,0.0,0.0,0.0,0.0,-6.1874,-6.2657,0.0,0.0,0.0,0.0,0.0,0.0,0.0,0.0,-6.4494,0.0,0.0,0.0,0.0,0.0,0.0,0.0,0.0,0.0,0.0,0.0,0.0,0.0,0.0,0.0,0.0,0.0,0.0,0.0,0.0,0.0,0.0,0.0,0.0,0.0,0.0,0.0,0.0,0.0,0.0,0.0,0.0,0.0,0.0,0.0,0.0,0.0,0.0,0.0,0.0,0.0,0.0,0.0,0.0,0.0,0.0,0.0,0.0,0.0,0.0,0.0,0.0,0.0,0.0,0.0,0.0,-6.0282,-6.2659,-6.4764,-6.6434,-6.6478,-6.6907,-6.7681,-6.5387,-6.4047,-6.3932,0.0,0.0,0.0,0.0,0.0,0.0,0.0,0.0,0.0,0.0,0.0,0.0,0.0,0.0,0.0,0.0,0.0,0.0,0.0,0.0,0.0,0.0,0.0,0.0,0.0,0.0,0.0,0.0,0.0,0.0,0.0,0.0,0.0,0.0,0.0,0.0,0.0,0.0,0.0,-6.3555,-6.4143,0.0,0.0,0.0,0.0,0.0,0.0,0.0,0.0,-6.5351,0.0,0.0,0.0,0.0,0.0,0.0,0.0,0.0,0.0,0.0,0.0,0.0,0.0,0.0,0.0,0.0,0.0,0.0,0.0,0.0,0.0,0.0,0.0,0.0,0.0,0.0,0.0,0.0,0.0,0.0,0.0,0.0,0.0,0.0,0.0,0.0,0.0,0.0,0.0,0.0,0.0,0.0,0.0,0.0,0.0,0.0,0.0,0.0,0.0,0.0,0.0,0.0,0.0,0.0,0.0,-6.1646,-6.3711,-6.5616,-6.7335,-6.7803,-6.8037,-6.7954,-6.5894,-6.4592,0.0,0.0,0.0,0.0,0.0,0.0,0.0,0.0,0.0,0.0,0.0,0.0,0.0,0.0,0.0,0.0,0.0,0.0,0.0,0.0,0.0,0.0,0.0,0.0,0.0,0.0,0.0,0.0,0.0,0.0,0.0,0.0,0.0,0.0,0.0,0.0,0.0,0.0,0.0,0.0,-6.4687,-6.5116,-6.5546,0.0,0.0,0.0,0.0,0.0,0.0,-6.6912,-6.6756,0.0,0.0,0.0,0.0,0.0,0.0,0.0,0.0,0.0,0.0,0.0,0.0,0.0,0.0,0.0,0.0,0.0,0.0,0.0,0.0,0.0,0.0,0.0,0.0,0.0,0.0,0.0,0.0,0.0,0.0,0.0,0.0,0.0,0.0,0.0,0.0,0.0,0.0,0.0,0.0,0.0,0.0,0.0,0.0,0.0,0.0,0.0,0.0,0.0,0.0,0.0,0.0,0.0,0.0,0.0,-6.2854,-6.4725,-6.6517,-6.8193,-6.8933,-6.8972,-6.8232,-6.6405,-6.5026,0.0,0.0,0.0,0.0,0.0,0.0,0.0,0.0,0.0,0.0,0.0,0.0,0.0,0.0,0.0,0.0,0.0,0.0,0.0,0.0,0.0,0.0,0.0,0.0,0.0,0.0,0.0,0.0,0.0,0.0,0.0,0.0,0.0,0.0,0.0,0.0,0.0,0.0,0.0,0.0,0.0,-6.6327,-6.6951,-6.7224,0.0,0.0,0.0,0.0,-6.8357,-6.8357,0.0,0.0,0.0,0.0,0.0,0.0,0.0,0.0,0.0,0.0,0.0,0.0,0.0,0.0,0.0,0.0,0.0,0.0,0.0,0.0,0.0,0.0,0.0,0.0,0.0,0.0,0.0,0.0,0.0,0.0,0.0,0.0,0.0,0.0,0.0,0.0,0.0,0.0,0.0,0.0,0.0,0.0,0.0,0.0,0.0,0.0,0.0,0.0,0.0,0.0,0.0,0.0,0.0,0.0,0.0,0.0,-6.2932,-6.5309,-6.7413,-6.905,-6.925,-6.925,-6.9133,-6.6775,-6.5082,0.0,0.0,0.0,0.0,0.0,0.0,0.0,0.0,0.0,0.0,0.0,0.0,0.0,0.0,0.0,0.0,0.0,0.0,0.0,0.0,0.0,0.0,0.0,0.0,0.0,0.0,0.0,0.0,0.0,0.0,0.0,0.0,0.0,0.0,0.0,0.0,0.0,0.0,0.0,0.0,0.0,-6.7849,-6.7927,-6.8591,-6.9137,0.0,0.0,-6.9255,-6.9255,-6.9255,0.0,0.0,0.0,0.0,0.0,0.0,0.0,0.0,0.0,0.0,0.0,0.0,0.0,0.0,0.0,0.0,0.0,0.0,0.0,0.0,0.0,0.0,0.0,0.0,0.0,0.0,0.0,0.0,0.0,0.0,0.0,0.0,0.0,0.0,0.0,0.0,0.0,0.0,0.0,0.0,0.0,0.0,0.0,0.0,0.0,0.0,0.0,0.0,0.0,0.0,0.0,0.0,0.0,0.0,0.0,-6.1607,-6.4296,-6.6395,-6.8037,-6.9289,-7.0219,-7.0024,-6.8582,-6.7477,-6.6057,0.0,0.0,0.0,0.0,0.0,0.0,0.0,0.0,0.0,0.0,0.0,0.0,0.0,0.0,0.0,0.0,0.0,0.0,0.0,0.0,0.0,0.0,0.0,0.0,0.0,0.0,0.0,0.0,0.0,0.0,0.0,0.0,0.0,0.0,0.0,0.0,0.0,0.0,0.0,0.0,0.0,0.0,-6.8083,-6.8864,0.0,0.0,0.0,-7.0113,-7.0152,0.0,0.0,0.0,0.0,0.0,0.0,0.0,0.0,0.0,0.0,0.0,0.0,0.0,0.0,0.0,0.0,0.0,0.0,0.0,0.0,0.0,0.0,0.0,0.0,0.0,0.0,0.0,0.0,0.0,0.0,0.0,0.0,0.0,0.0,0.0,0.0,0.0,0.0,0.0,0.0,0.0,0.0,0.0,0.0,0.0,0.0,0.0,0.0,0.0,0.0,0.0,0.0,0.0,0.0,0.0,0.0,0.0,-6.5348,-6.7135,-6.8427,-6.9289,-7.0531,-7.0263,-6.8398,-6.7915,0.0,0.0,0.0,0.0,0.0,0.0,0.0,0.0,0.0,0.0,0.0,0.0,0.0,0.0,0.0,0.0,0.0,0.0,0.0,0.0,0.0,0.0,0.0,0.0,0.0,0.0,0.0,-6.1056,0.0,0.0,0.0,0.0,0.0,0.0,0.0,0.0,0.0,0.0,0.0,0.0,0.0,0.0,-6.8591,-6.902,-6.9801,-7.0699,0.0,0.0,-7.1636,-7.1636,-7.148,-7.0816,0.0,0.0,0.0,0.0,0.0,0.0,0.0,0.0,0.0,0.0,0.0,0.0,0.0,0.0,0.0,0.0,0.0,0.0,0.0,0.0,0.0,0.0,0.0,0.0,0.0,0.0,0.0,0.0,0.0,0.0,0.0,0.0,0.0,0.0,0.0,0.0,0.0,0.0,0.0,0.0,0.0,0.0,0.0,0.0,0.0,0.0,0.0,0.0,0.0,0.0,0.0,0.0,0.0,0.0,0.0,-6.5387,-6.7096,-6.8427,-6.9289,-6.9406,-6.9377,-6.9206,-6.7707,-6.683,0.0,0.0,0.0,0.0,0.0,0.0,0.0,0.0,0.0,0.0,0.0,0.0,0.0,0.0,0.0,0.0,0.0,0.0,0.0,0.0,0.0,0.0,0.0,0.0,0.0,0.0,0.0,0.0,0.0,0.0,0.0,0.0,0.0,0.0,0.0,0.0,0.0,0.0,0.0,0.0,0.0,-6.9879,-7.1519,-7.2495,-7.3315,0.0,0.0,-7.4251,-7.4212,-7.3588,-7.2807,-7.187,0.0,0.0,0.0,0.0,0.0,0.0,0.0,0.0,0.0,0.0,0.0,0.0,0.0,0.0,0.0,0.0,0.0,0.0,0.0,0.0,0.0,0.0,0.0,0.0,0.0,0.0,0.0,0.0,0.0,0.0,0.0,0.0,0.0,0.0,0.0,0.0,0.0,0.0,0.0,0.0,0.0,0.0,0.0,0.0,0.0,0.0,0.0,0.0,0.0,0.0,0.0,0.0,0.0,-6.4257,-6.6985,-6.8193,-6.9479,-7.077,-7.0863,-7.0639,-7.0103,-6.9514,-6.8444,0.0,0.0,0.0,0.0,0.0,0.0,0.0,0.0,0.0,0.0,0.0,0.0,0.0,0.0,0.0,0.0,0.0,0.0,0.0,0.0,0.0,0.0,0.0,0.0,0.0,0.0,0.0,0.0,-6.457,-6.5077,-6.5116,0.0,0.0,0.0,0.0,0.0,0.0,0.0,0.0,0.0,0.0,-7.1245,-7.1909,-7.3158,0.0,0.0,-7.4486,-7.4486,-7.4486,-7.4251,-7.3744,-7.2924,-7.2534,0.0,0.0,0.0,0.0,0.0,0.0,0.0,0.0,0.0,0.0,0.0,0.0,0.0,0.0,0.0,0.0,0.0,0.0,0.0,0.0,0.0,0.0,0.0,0.0,0.0,0.0,0.0,0.0,0.0,0.0,0.0,0.0,0.0,0.0,0.0,0.0,0.0,0.0,0.0,0.0,0.0,0.0,0.0,0.0,0.0,0.0,0.0,0.0,0.0,0.0,0.0,0.0,-6.5075,-6.7959,-6.9089,-7.038,-7.1788,-7.1887,-7.175,-7.1417,-7.0934,-6.9937,0.0,0.0,0.0,0.0,0.0,0.0,0.0,0.0,0.0,0.0,0.0,0.0,0.0,0.0,0.0,0.0,0.0,0.0,0.0,0.0,0.0,0.0,0.0,0.0,0.0,0.0,0.0,0.0,-6.5429,-6.5975,-6.5936,0.0,0.0,0.0,0.0,0.0,0.0,0.0,0.0,0.0,0.0,-7.2573,-7.3041,-7.4369,-7.5345,-7.5618,-7.5891,-7.6047,-7.6047,-7.5852,-7.5384,-7.4564,0.0,0.0,0.0,0.0,0.0,0.0,0.0,0.0,0.0,0.0,0.0,0.0,0.0,0.0,0.0,0.0,0.0,0.0,0.0,0.0,0.0,0.0,0.0,0.0,0.0,0.0,0.0,0.0,0.0,0.0,-5.5152,0.0,0.0,0.0,0.0,0.0,0.0,0.0,0.0,0.0,0.0,0.0,0.0,0.0,0.0,0.0,0.0,0.0,0.0,0.0,0.0,0.0,0.0,-6.6244,-6.8037,-6.9751,-7.1014,-7.1936,-7.1936,-7.2349,-7.3094,-7.1611,-7.1072,-7.1792,0.0,0.0,0.0,0.0,0.0,0.0,0.0,0.0,0.0,0.0,0.0,0.0,0.0,0.0,0.0,0.0,0.0,0.0,0.0,0.0,0.0,0.0,0.0,0.0,0.0,0.0,-6.5585,-6.6288,-6.6756,0.0,0.0,0.0,0.0,0.0,0.0,0.0,0.0,0.0,0.0,-7.2729,-7.39,-7.5462,-7.6477,-7.7335,-7.8155,-7.8975,-7.9561,-7.9483,-7.8819,-7.8038,0.0,0.0,0.0,0.0,0.0,0.0,0.0,0.0,0.0,0.0,0.0,0.0,0.0,0.0,0.0,0.0,0.0,0.0,0.0,0.0,0.0,0.0,0.0,0.0,0.0,0.0,0.0,-5.9531,-5.9485,0.0,0.0,0.0,0.0,0.0,0.0,0.0,0.0,0.0,0.0,0.0,-6.3711,-6.4569,0.0,0.0,0.0,0.0,0.0,0.0,0.0,0.0,0.0,0.0,0.0,0.0,-6.7686,-7.0414,-7.1136,-7.2438,-7.4353,-7.3918,-7.4059,-7.4889,-7.3846,-7.284,-7.2026,0.0,0.0,0.0,0.0,0.0,0.0,0.0,0.0,0.0,0.0,0.0,0.0,0.0,0.0,0.0,0.0,0.0,0.0,0.0,0.0,0.0,0.0,0.0,0.0,0.0,-6.7264,0.0,0.0,0.0,0.0,0.0,0.0,0.0,0.0,0.0,0.0,0.0,-7.1558,-7.269,-7.4564,-7.6008,-7.6594,-7.7921,-7.8936,0.0,0.0,0.0,0.0,0.0,0.0,0.0,0.0,0.0,0.0,0.0,0.0,0.0,0.0,-7.3705,-7.1167,-7.0699,-7.0584,-7.0323,0.0,0.0,0.0,0.0,0.0,0.0,0.0,0.0,0.0,0.0,0.0,0.0,0.0,0.0,-6.1697,0.0,-6.1378,0.0,0.0,0.0,0.0,0.0,0.0,0.0,0.0,-6.566,-6.6478,-6.679,-6.7647,-6.8193,0.0,-6.8465,-6.6907,0.0,0.0,0.0,0.0,0.0,0.0,0.0,0.0,-6.9284,-7.1705,-7.274,-7.4046,-7.5615,-7.5538,-7.5673,-7.6227,-7.5417,-7.4173,-7.2495,-7.105,-6.9489,0.0,0.0,0.0,0.0,0.0,0.0,0.0,0.0,0.0,0.0,0.0,0.0,0.0,0.0,0.0,0.0,0.0,0.0,0.0,0.0,0.0,0.0,0.0,-6.8552,0.0,0.0,0.0,0.0,0.0,0.0,0.0,0.0,0.0,-7.1128,-7.2417,-7.3627,-7.4525,-7.6594,-7.7999,-7.7999,0.0,0.0,0.0,0.0,0.0,0.0,0.0,-8.0498,-8.0185,-8.0146,-7.9873,-7.9014,-7.8624,-7.8468,-7.8468,0.0,0.0,-7.4408,-7.3788,-7.3794,-7.3764,-7.4474,-7.5262,-7.5813,-7.687,-7.7809,0.0,0.0,0.0,0.0,0.0,0.0,0.0,0.0,-6.4294,-6.4281,0.0,-6.34,0.0,0.0,0.0,0.0,0.0,-6.5036,0.0,0.0,-6.7798,-6.8621,-6.9445,-7.0302,-7.1115,-7.1856,-7.1817,-7.1388,-7.0453,-6.8115,0.0,0.0,0.0,0.0,0.0,0.0,-7.1082,-7.2017,-7.4382,-7.5732,-7.5916,-7.6755,-7.7163,-7.7176,-7.636,-7.511,-7.351,-7.2612,-7.1285,-6.9567,-6.7888,0.0,0.0,0.0,0.0,0.0,0.0,0.0,0.0,0.0,0.0,0.0,0.0,0.0,0.0,0.0,0.0,0.0,0.0,0.0,0.0,-6.9528,0.0,0.0,0.0,0.0,0.0,0.0,0.0,0.0,0.0,0.0,-7.2339,-7.433,-7.6164,-7.7062,0.0,0.0,0.0,0.0,-8.1083,-8.1122,-8.1864,-8.2371,-8.2371,-8.2371,-8.2098,-8.1278,0.0,0.0,-8.0029,-8.0537,-8.1122,-8.1125,-8.175,-8.1317,-7.8002,-7.7349,-7.7278,-7.728,-7.7959,-7.8513,-7.867,-7.9921,-8.1054,-6.6478,0.0,0.0,0.0,0.0,-6.4852,-6.5459,-6.602,-6.6644,-6.6912,-6.6829,-6.5972,0.0,0.0,0.0,0.0,0.0,0.0,-6.8076,-6.9557,-7.0959,-7.1778,-7.205,-7.2908,-7.3453,-7.3648,-7.3648,-7.3219,-7.2362,-7.1622,-7.0648,-6.9518,0.0,0.0,0.0,0.0,-7.249,-7.4499,-7.5386,-7.6384,-7.7614,-7.8491,-7.8969,-7.8936,-7.8116,-7.714,-7.6047,-7.5188,-7.3666,-7.1363,-7.0777,0.0,0.0,0.0,0.0,0.0,0.0,0.0,0.0,0.0,0.0,0.0,0.0,0.0,0.0,0.0,0.0,0.0,0.0,0.0,-7.2065,-7.269,-7.2807,0.0,0.0,0.0,0.0,0.0,0.0,0.0,0.0,0.0,-7.6477,-7.6633,-7.7296,0.0,0.0,-8.0849,-8.1474,-8.2254,-8.2996,-8.3621,-8.3933,0.0,-8.4089,-8.4089,-8.4011,-8.3738,-8.3699,-8.3621,-8.3386,-8.3543,-8.3702,-8.3713,-8.3911,-8.3719,-8.2908,-8.1617,-8.0877,-8.0889,-8.1518,-8.2068,-8.2187,-8.3047,-8.3789,-6.815,-6.6216,-6.6216,-6.6237,-6.6282,-6.678,-6.7273,-6.7764,-6.8271,-6.8504,-6.8465,-6.7959,-6.7452,-6.6907,-6.64,0.0,0.0,0.0,-6.9751,-7.1115,-7.2128,-7.2752,-7.3142,-7.3999,-7.4583,-7.4934,-7.5285,-7.5363,-7.5168,-7.5179,-7.4839,-7.4099,0.0,0.0,-7.3592,-7.3436,-7.446,-7.6634,-7.7164,-7.7844,-7.8909,-7.9434,-7.9717,-7.9678,-7.917,-7.8663,-7.8155,-7.6984,-7.5618,-7.4095,-7.3041,-7.1402,0.0,0.0,0.0,0.0,0.0,0.0,0.0,0.0,0.0,0.0,0.0,-6.7224,0.0,0.0,0.0,0.0,-7.1714,-7.2612,-7.3666,-7.4212,0.0,0.0,0.0,0.0,0.0,0.0,0.0,-7.5891,-7.7257,-7.8585,-7.9756,-7.9756,-7.9912,-8.0654,-8.1474,-8.2293,-8.3191,0.0,-8.4206,-8.4714,-8.4831,-8.4831,-8.4831,-8.4831,-8.4909,-8.527,-8.5309,-8.5468,-8.5786,-8.6101,-8.6337,-8.6383,-8.662,-8.6856,-8.6905,-8.6043,-8.4832,-8.3629,-8.3748,-8.4101,-8.4101,-8.4804,-8.5508,-6.9588,-6.9518,-6.9475,-6.9424,-6.9314,-6.9372,-6.9401,-6.9406,-6.9484,-6.9523,-6.9479,-6.944,-6.9367,-6.9289,-6.9328,0.0,-7.0609,-7.0726,-7.1238,-7.2011,-7.2128,-7.2635,-7.3453,-7.4311,-7.5129,-7.5947,-7.6765,-7.759,-7.8252,-7.828,-7.8647,-7.9232,-7.4605,-7.3124,-7.4865,-7.5567,-7.6712,-7.8378,-7.9252,-7.9768,-7.9888,-7.9902,-7.9912,-7.9912,-7.9834,-7.9795,-7.9756,-7.8194,-7.7257,-7.7023,-7.4876,-7.3158,-7.2143,0.0,0.0,0.0,0.0,0.0,0.0,0.0,0.0,0.0,0.0,0.0,0.0,0.0,0.0,0.0,-7.429,0.0,-7.4915,-7.4915,0.0,0.0,0.0,-7.5227,-7.6008,-7.6164,-7.6867,-7.851,0.0,0.0,-8.2293,-8.3152,-8.3386,-8.2762,-8.323,-8.3933,-8.4792,-8.4945,-8.5026,-8.526,-8.5221,-8.526,-8.5576,-8.5501,-8.578,-8.6455,-8.6418,-8.6774,-8.7485,-8.8189,-8.8736,-8.8699,-8.9441,-8.9913,-8.9957,-8.9684,-8.9021,-8.5896,-8.539,-8.539,-8.5508,-8.6094,-8.6875,-7.1345,-7.1269,-7.1269,-7.0507,-6.9372,-7.0029,-7.0297,-7.0336,-7.0926,-7.1193,-7.1154,-7.057,-6.9907,-6.9328,-6.9328,-6.9796,-7.0648,-7.1934,-7.2947,-7.3843,-7.5168,-7.5869,-7.6103,-7.696,-7.7467,-7.7701,-7.8587,-7.8748,-7.8319,-7.8311,-7.8091,-7.7623,-7.6448,-7.6682,-7.8286,-7.7935,-7.8261,-7.937,-7.9572,-8.036,-8.1623,-8.1666,-8.1669,-8.1669,-8.1044,-8.0693,-8.0693,-7.9639,-7.8468,-7.7179,-7.6555,-7.5227,-7.3119,-7.2143,0.0,0.0,0.0,0.0,0.0,0.0,0.0,0.0,0.0,-7.105,-7.1636,0.0,-7.4759,0.0,-7.6594,-7.7765,-7.839,-7.8468,0.0,0.0,-7.8468,-7.8546,-7.878,-7.9366,-8.0185,-8.1239,-8.2098,-8.2996,-8.4089,-8.4362,-8.4909,-8.6002,-8.5221,-8.4831,-8.5651,-8.6392,-8.7017,-8.7642,-8.8227,-8.8741,-8.8636,-8.8763,-8.877,-8.9047,-8.9047,-8.9164,-8.9363,-8.9519,-8.9716,-8.9681,-8.9838,-8.9996,-9.0038,-9.0,-8.9804,-8.8945,-8.8789,-8.8789,-8.8789,-8.8945,-8.914,-7.1972,-7.1905,-7.1897,-7.1326,-7.0513,-7.097,-7.1115,-7.1154,-7.1622,-7.1817,-7.1778,-7.131,-7.1076,-7.0998,-7.0998,-7.1466,-7.2323,-7.3258,-7.4155,-7.5012,-7.5986,-7.661,-7.7038,-7.7907,-7.8303,-7.8347,-7.9198,-7.9559,-7.9481,-7.947,-7.9444,-7.9361,-7.9413,-7.9885,-8.0704,-7.9565,-7.9569,-8.0832,-8.0836,-8.1308,-8.2254,-8.2293,-8.2293,-8.2293,-8.1825,-8.1591,-8.1552,-8.0732,-7.9834,-7.8897,-7.8468,-7.7257,-7.511,-7.4525,-7.3549,0.0,0.0,0.0,0.0,0.0,0.0,0.0,0.0,0.0,0.0,0.0,-7.7299,-7.8038,-7.9326,-8.0341,-8.081,-8.0849,-8.0849,-8.0849,-8.0849,-8.1005,-8.1356,-8.1825,-8.245,-8.3308,-8.4128,-8.4987,-8.5846,-8.6314,-8.7017,-8.8383,-8.772,-8.729,-8.7759,-8.8266,-8.8738,-8.9213,-8.9685,-9.0003,-9.0015,-8.9984,-9.0144,-9.0499,-9.0578,-9.0696,-9.1089,-9.1168,-9.1169,-9.117,-9.117,-9.1132,-9.1172,-9.1172,-9.1172,-9.1172,-9.1172,-9.0898,-9.0156,-9.0,-9.0078,-7.1979,-7.1884,-7.1905,-7.1885,-7.1901,-7.1838,-7.1827,-7.1817,-7.1817,-7.1856,-7.1973,-7.1973,-7.244,-7.3258,-7.3258,-7.3726,-7.4544,-7.4661,-7.5207,-7.6025,-7.6148,-7.6615,-7.7356,-7.8208,-7.8647,-7.8647,-7.9535,-8.0328,-8.107,-8.1169,-8.1645,-8.2347,-8.2557,-8.2606,-8.2563,-8.1109,-8.0992,-8.2293,-8.2293,-8.2293,-8.2293,-8.2293,-8.2293,-8.2293,-8.2293,-8.2293,-8.2293,-8.1591,-8.1122,-8.0966,-8.0263,-7.9131,-7.7531,-7.7335,-7.6281,0.0,-7.3861,0.0,0.0,0.0,0.0,0.0,0.0,0.0,0.0,-7.8429,-7.9717,-8.1356,-8.2176,-8.2606,-8.2606,-8.2606,-8.2606,-8.2606,-8.2606,-8.2918,-8.3582,-8.3777,-8.4167,-8.5026,-8.5924,-8.6783,-8.7603,-8.8422,-8.9164,-8.9945,-9.0026,-9.003,-9.0264,-9.0186,-9.0114,-9.0167,-9.0247,-9.0527,-9.0495,-9.0419,-9.0657,-9.1324,-9.1481,-9.1717,-9.2383,-9.25,-9.2539,-9.2539,-9.2461,-9.25,-9.2578,-9.2539,-9.2539,-9.2461,-9.2461,-9.2031,-9.0859,-9.0469,-9.0586,-7.1979,-7.1884,-7.192,-7.1905,-7.1885,-7.1881,-7.1858,-7.1817,-7.1817,-7.2206,-7.283,-7.2869,-7.3336,-7.4155,-7.4155,-7.4622,-7.548,-7.6181,-7.6999,-7.7857,-7.8548,-7.8949,-7.9143,-7.9988,-8.0393,-8.0471,-8.1312,-8.1793,-8.1988,-8.267,-8.311,-8.3266,-8.3969,-8.4323,-8.4323,0.0,0.0,0.0,-8.2293,-8.2293,-8.2293,-8.2293,-8.2293,-8.2293,-8.2293,0.0,-8.2293,-8.2137,-8.1747,-8.1044,-8.0849,0.0,0.0,0.0,0.0,0.0,0.0,0.0,0.0,0.0,0.0,0.0,-8.0615,-8.1044,-7.9444,-8.1239,-8.2957,-8.3972,-8.4245,-8.4323,-8.432,-8.4323,-8.4323,-8.4323,-8.4323,-8.4401,-8.4558,-8.5182,-8.5963,-8.6822,-8.7681,-8.854,-8.932,-8.9672,-9.0062,-9.0885,-9.1051,-9.133,-9.1997,-9.145,-9.1065,-9.1076,-9.1552,-9.2063,-9.2105,-9.2029,-9.1992,-9.2343,-9.2343,-9.2422,-9.2539,-9.2578,-9.2578,-9.2578,-9.2578,-9.2578,-9.2578,-9.2578,-9.2578,-9.2578,-9.2578,-9.25,-9.2148,-9.2109,-9.2148,-7.1984,0.0,-7.1891,-7.2151,0.0,-7.2522,-7.2778,-7.3105,-7.2662,-7.2963,-7.3726,-7.3726,-7.4466,-7.5674,-7.5674,-7.6376,-7.7584,-7.8069,-7.8737,-7.96,-8.0056,-8.0461,-8.0885,-8.1343,-8.1781,-8.2175,-8.2624,-8.3061,-8.349,-8.393,-8.4128,-8.4128,-8.4597,-8.4831,-8.4831,-8.4831,-8.4401,-8.3543,-8.3543,-8.3543,-8.3543,-8.3543,-8.3543,-8.3543,-8.3543,0.0,0.0,0.0,0.0,0.0,0.0,0.0,0.0,0.0,0.0,-8.0302,-7.9912,-7.9678,-7.9717,-8.0849,-8.1591,-8.163,-8.3582,-8.405,-8.2332,-8.3816,-8.4948,-8.5416,-8.5807,-8.608,-8.608,-8.6077,-8.6275,-8.6666,-8.6705,-8.69,-8.7329,-8.7759,-8.8188,-8.8579,-8.9086,-8.9672,-9.0531,-9.0658,-9.1012,-9.1793,-9.1924,-9.2089,-9.2445,-9.2209,-9.1974,-9.1944,-9.2263,-9.2577,-9.2577,-9.2578,-9.2578,-9.2578,-9.2578,-9.2578,-9.2578,-9.2578,-9.2578,-9.2578,-9.2578,-9.2578,-9.2578,-9.2578,-9.2578,-9.2578,-9.2578,-9.2578,-9.2578,-9.2578,-9.2578,-7.1987,-7.1987,-7.2132,-7.2555,-7.3215,-7.3396,-7.393,-7.4667,0.0,0.0,0.0,-7.4795,-7.573,-7.7211,-7.7367,-7.8303,-7.9706,-7.9812,-8.029,-8.1148,-8.1134,-8.1577,-8.2396,-8.2417,-8.2893,-8.3717,-8.3731,-8.4089,-8.4792,-8.4948,-8.5026,-8.5065,-8.5182,-8.526,-8.526,-8.526,-8.526,-8.526,-8.4945,-8.4831,-8.4831,-8.4831,-8.4831,-8.4831,-8.4831,-8.4441,-8.3777,-8.3738,-8.3426,-8.2801,-8.2723,-8.2759,-8.2755,-8.2755,-8.2755,-8.2755,-8.2755,-8.272,-8.2762,-8.366,-8.4323,-8.4597,-8.5963,-8.6275,-8.5143,-8.5963,-8.6549,-8.6549,-8.7329,-8.7876,-8.7876,-8.7837,-8.8149,-8.8852,-8.893,-8.9203,-8.9867,-8.9984,-8.9945,-9.0179,-9.0222,-9.0576,-9.1396,-9.1525,-9.1768,-9.2395,-9.2521,-9.2608,-9.2574,-9.2533,-9.2532,-9.2536,-9.2578,-9.2578,-9.2578,-9.2578,-9.2578,-9.2578,-9.2578,-9.2578,-9.2617,-9.2734,-9.2812,-9.289,-9.2929,-9.3125,-9.3086,-9.3164,-9.3047,-9.3086,-9.3047,-9.3047,-9.3047,-9.3047,-9.3008,-7.1987,-7.2065,-7.2804,-7.3192,-7.3348,-7.4011,-7.4822,-7.551,-7.4667,-7.4815,-7.5629,-7.6409,-7.7268,-7.8165,-7.8906,-7.9764,-8.07,-8.0705,-8.1173,-8.1992,-8.2015,-8.2495,-8.328,-8.3337,-8.3774,-8.4554,-8.4632,-8.4675,-8.487,-8.5573,-8.5924,-8.6002,-8.6666,-8.7014,-8.7014,-8.7017,-8.7017,-8.7017,-8.5573,-8.4831,-8.4831,-8.4831,-8.4831,-8.4831,-8.4831,-8.4753,-8.4636,-8.4636,-8.4558,-8.448,-8.4441,-8.4434,-8.4455,-8.4416,-8.4455,-8.4455,-8.4455,-8.4462,-8.4476,-8.596,-8.7486,-8.893,-8.932,-8.8461,-8.6197,-8.7407,-8.8344,-8.8344,-8.9047,-8.9633,-8.9633,-8.9555,-8.9594,-8.9789,-8.9789,-8.9867,-9.0062,-9.0104,-9.0378,-9.1041,-9.1129,-9.145,-9.2153,-9.2361,-9.2367,-9.2564,-9.2609,-9.2575,-9.2577,-9.2578,-9.2578,-9.2578,-9.2578,-9.2578,-9.2617,-9.2617,-9.2656,-9.2578,-9.2695,-9.2812,-9.2812,-9.332,-9.3711,-9.3711,-9.4219,-9.4648,-9.4726,-9.4844,-9.4687,-9.4609,-9.4609,-9.4648,-9.4648,-9.4648,-9.4297,-7.23,-7.2729,-7.3116,-7.3822,-7.472,-7.5579,-7.6122,-7.6464,-7.6067,-7.6131,-7.6462,-7.6886,-7.7511,-7.8369,-7.9188,-8.0085,-8.0904,-8.1386,-8.2097,-8.2877,-8.2897,-8.3373,-8.4157,-8.4203,-8.4675,-8.5456,-8.5495,-8.5768,-8.6197,-8.6627,-8.6783,-8.6861,-8.7212,-8.7404,-8.7404,-8.7404,-8.7404,-8.7365,-8.6627,-8.6197,-8.6197,-8.6197,-8.6197,-8.6197,-8.6197,-8.5963,-8.5495,-8.5495,-8.5293,-8.4817,-8.4817,-8.5001,-8.5448,-8.5877,-8.6341,-8.6848,-8.7291,-8.7577,-8.7585,-8.8337,-8.9164,-8.9945,-8.9984,-8.9516,-8.8305,-8.893,-8.9398,-8.9398,-8.9789,-8.9984,-8.9984,-8.9984,-9.0179,-9.0648,-9.0726,-9.0882,-9.1276,-9.1399,-9.1562,-9.1913,-9.2002,-9.2165,-9.2558,-9.2605,-9.2609,-9.261,-9.2575,-9.2578,-9.2617,-9.2617,-9.2617,-9.2578,-9.2578,-9.2578,-9.2656,-9.3047,-9.3281,-9.332,-9.3711,-9.3984,-9.4023,-9.4414,-9.4531,-9.4609,-9.5,-9.5156,-9.5234,-9.5195,-9.5195,-9.5195,-9.5195,-9.5195,-9.5195,-9.5195,-9.4883,-7.269,-7.3315,-7.3705,-7.472,-7.6125,-7.6828,-7.7218,-7.7375,-7.7414,-7.7476,-7.761,-7.7606,-7.7996,-7.8698,-7.9708,-8.0684,-8.1507,-8.2187,-8.2975,-8.3756,-8.377,-8.4245,-8.5026,-8.5104,-8.5534,-8.6314,-8.6392,-8.6744,-8.7329,-8.7404,-8.7404,-8.7404,-8.7404,-8.7404,-8.7404,-8.7404,-8.7404,-8.7404,-8.7404,-8.7404,-8.7404,-8.7404,-8.7404,-8.7404,-8.7404,-8.7095,-8.6431,-8.6392,-8.607,-8.543,-8.5387,-8.5765,-8.6556,-8.7214,-8.7994,-8.8813,-8.9496,-8.9983,-9.0187,-9.0246,-9.0374,-9.057,-9.057,-9.0573,-9.057,-9.057,-9.0492,-9.0335,-9.0492,-9.0609,-9.0648,-9.0609,-9.0843,-9.1507,-9.1585,-9.1783,-9.2411,-9.258,-9.2588,-9.259,-9.2601,-9.2567,-9.2608,-9.2613,-9.2576,-9.2576,-9.2578,-9.2656,-9.2812,-9.289,-9.2929,-9.3125,-9.3047,-9.3086,-9.3125,-9.3711,-9.414,-9.4219,-9.4687,-9.4961,-9.5078,-9.5273,-9.5469,-9.5508,-9.5703,-9.5898,-9.582,-9.582,-9.5859,-9.5937,-9.5976,-9.5898,-9.5898,-9.5898,-9.5586,-7.3236,-7.3549,-7.4915,-7.6086,-7.6945,-7.7101,-7.757,-7.8233,-7.8275,-7.8741,-7.932,-7.9437,-7.9476,-7.9789,-8.1272,-8.2404,-8.3146,-8.3344,-8.3852,-8.4593,-8.4671,-8.5143,-8.5963,-8.5963,-8.6431,-8.7173,-8.7251,-8.7248,-8.7404,-8.7404,-8.7404,-8.7404,-8.7404,-8.7404,-8.7404,-8.7404,-8.7404,-8.7404,-8.7404,-8.7404,-8.7404,-8.7404,-8.7404,-8.7404,-8.7404,-8.7365,-8.7212,-8.729,-8.7241,-8.7186,-8.7143,-8.7511,-8.8245,-8.8434,-8.8863,-8.9598,-8.9799,-9.0178,-9.0963,-9.1144,-9.1467,-9.217,-9.217,-9.217,-9.217,-9.2209,-9.1936,-9.1428,-9.1819,-9.2131,-9.2287,-9.217,-9.2131,-9.2248,-9.233,-9.245,-9.2541,-9.2585,-9.259,-9.2601,-9.2609,-9.2573,-9.2574,-9.2577,-9.2617,-9.2734,-9.2773,-9.3008,-9.3633,-9.3789,-9.4101,-9.4531,-9.4336,-9.4179,-9.4648,-9.4961,-9.5078,-9.5078,-9.5156,-9.539,-9.5586,-9.5976,-9.6367,-9.6406,-9.6836,-9.7187,-9.7265,-9.7461,-9.7344,-9.7109,-9.7148,-9.7344,-9.7422,-9.7304,-9.6836,-7.429,-7.4837,-7.5504,-7.6594,-7.7804,-7.7882,-7.835,-7.9131,-7.917,-7.9366,-7.9834,-8.0771,-8.0693,-7.9834,-8.1513,-8.2489,-8.2879,-8.3816,-8.4753,-8.5534,-8.5573,-8.6041,-8.6783,-8.6861,-8.7095,-8.7368,-8.7404,-8.7404,-8.7404,-8.7404,-8.7404,-8.7404,-8.7404,-8.7404,-8.7404,-8.7404,-8.7404,-8.7404,-8.7404,-8.7404,-8.7404,-8.7404,-8.7404,-8.7404,-8.7404,-8.7404,-8.7404,-8.7397,-8.7616,-8.8058,-8.8121,-8.844,-8.9228,-8.9748,-9.0223,-9.0514,-9.108,-9.1554,-9.1943,-9.2003,-9.2131,-9.2482,-9.2482,-9.2482,-9.2482,-9.2482,-9.2326,-9.2131,-9.2326,-9.2482,-9.2482,-9.2482,-9.2482,-9.2525,-9.2532,-9.258,-9.2585,-9.2599,-9.2608,-9.261,-9.2576,-9.2578,-9.2577,-9.2578,-9.2812,-9.3203,-9.3359,-9.3711,-9.4492,-9.4687,-9.5039,-9.5703,-9.5625,-9.5351,-9.5351,-9.5664,-9.5898,-9.6054,-9.6406,-9.664,-9.6679,-9.6875,-9.7226,-9.7187,-9.7539,-9.7734,-9.7617,-9.7695,-9.7695,-9.7773,-9.7695,-9.7695,-9.7695,-9.7695,-9.7304,-7.5227,-7.5816,-7.6281,-7.7375,-7.8741,-7.8741,-7.9248,-7.999,-8.0068,-8.0302,-8.0849,-8.2098,-8.2098,-8.1356,-8.245,-8.3113,-8.3504,-8.4597,-8.5612,-8.6392,-8.6471,-8.6783,-8.7365,-8.7404,-8.7404,-8.7404,-8.7404,-8.7404,-8.7404,-8.7404,-8.7404,-8.7404,-8.7404,-8.7404,-8.7404,-8.7404,-8.7404,-8.7404,-8.7404,-8.7404,-8.7404,-8.7404,-8.7404,-8.7404,-8.7404,-8.7404,-8.7404,-8.7624,-8.7989,-8.855,-8.8796,-8.93,-9.0057,-9.0741,-9.1169,-9.1427,-9.2054,-9.25,-9.252,-9.2507,-9.2482,-9.2482,-9.2482,-9.2482,-9.2482,-9.2482,-9.2482,-9.2482,-9.2482,-9.2482,-9.2482,-9.2482,-9.2486,-9.2528,-9.258,-9.2588,-9.2597,-9.2609,-9.2574,-9.2576,-9.2577,-9.2734,-9.2929,-9.3203,-9.3672,-9.414,-9.4258,-9.457,-9.5312,-9.5586,-9.5859,-9.6679,-9.6797,-9.6601,-9.6054,-9.6406,-9.6797,-9.6914,-9.7304,-9.7539,-9.7695,-9.7695,-9.7969,-9.789,-9.8008,-9.8281,-9.8711,-9.8594,-9.8398,-9.8398,-9.8398,-9.8398,-9.8633,-9.8476,-9.832,-7.5777,-7.6086,-7.7609,-7.878,-7.9639,-7.9639,-8.0146,-8.0966,-8.0966,-8.1825,-8.3035,-8.3426,-8.3855,-8.4441,-8.4597,-8.5143,-8.5768,-8.5963,-8.6471,-8.7212,-8.7287,-8.7326,-8.7404,-8.7404,-8.7404,-8.7404,-8.7404,-8.7404,-8.7404,-8.7404,-8.7404,-8.7404,-8.7404,-8.7404,-8.7404,-8.7404,-8.7404,-8.7404,-8.7404,-8.7404,-8.7404,-8.7404,-8.7404,-8.7443,-8.7404,-8.7404,-8.7521,-8.8127,-8.8574,-8.8628,-8.9376,-9.0125,-9.095,-9.1098,-9.1488,-9.2197,-9.2417,-9.2495,-9.25,-9.2503,-9.2482,-9.2482,-9.2482,-9.2482,-9.2482,-9.2482,-9.2482,-9.2482,-9.2482,-9.2482,-9.2482,-9.2525,-9.2532,-9.2583,-9.2585,-9.2597,-9.2611,-9.2573,-9.2576,-9.2656,-9.2812,-9.3164,-9.3789,-9.457,-9.4883,-9.5078,-9.5156,-9.5469,-9.6211,-9.6445,-9.6797,-9.7304,-9.7578,-9.7617,-9.7578,-9.7383,-9.7461,-9.7734,-9.7812,-9.7851,-9.7734,-9.7773,-9.8281,-9.8672,-9.8867,-9.9258,-9.9883,-10.0078,-9.9922,-9.9883,-9.9804,-9.9804,-9.9531,-10.0,-9.9765,-7.7804,-7.835,-7.8975,-7.9756,-8.0498,-8.0537,-8.1044,-8.1864,-8.2411,-8.2918,-8.3621,-8.4675,-8.5338,-8.5651,-8.6236,-8.6314,-8.6158,-8.6666,-8.7095,-8.7404,-8.7404,-8.7404,-8.7404,-8.7404,-8.7404,-8.7404,-8.7404,-8.7404,-8.7404,-8.7404,-8.7404,-8.7404,-8.7404,-8.7404,-8.7404,-8.7404,-8.7404,-8.7404,-8.7404,-8.7404,-8.7443,-8.7404,-8.7638,-8.8149,-8.7677,-8.7677,-8.8227,-8.8466,-8.9101,-9.0189,-9.0528,-9.0989,-9.1732,-9.1841,-9.2026,-9.2341,-9.2468,-9.25,-9.252,-9.2507,-9.2482,-9.2482,-9.2482,-9.2482,-9.2482,-9.2482,-9.2482,-9.2522,-9.2522,-9.2482,-9.2486,-9.2532,-9.258,-9.2588,-9.2599,-9.2647,-9.2574,-9.2616,-9.2812,-9.3359,-9.3867,-9.4414,-9.4648,-9.5039,-9.5429,-9.5937,-9.6015,-9.6406,-9.7031,-9.7265,-9.7422,-9.7695,-9.8164,-9.8554,-9.8554,-9.7969,-9.7812,-9.832,-9.8594,-9.8945,-9.9023,-9.9101,-9.957,-9.9648,-9.9804,-10.0,-10.0547,-10.0625,-10.0625,-10.0586,-10.0547,-10.0703,-10.0312,-10.0664,-10.0429,-7.9326,-8.0029,-8.0107,-8.0615,-8.1396,-8.1396,-8.1903,-8.2723,-8.3269,-8.3816,-8.4441,-8.5338,-8.5963,-8.6471,-8.6861,-8.6861,-8.6588,-8.7134,-8.7404,-8.7404,-8.7404,-8.7404,-8.7404,-8.7404,-8.7404,-8.7482,-8.7716,-8.7798,-8.7876,-8.811,-8.8227,-8.8266,-8.8227,-8.8227,-8.8227,-8.8227,-8.8266,-8.8266,-8.8266,-8.8266,-8.8266,-8.8227,-8.8501,-8.893,-8.854,-8.8501,-8.9086,-8.9324,-8.9921,-9.1041,-9.1385,-9.1768,-9.2277,-9.2323,-9.2352,-9.2399,-9.2485,-9.251,-9.249,-9.251,-9.2482,-9.2482,-9.2482,-9.2482,-9.2482,-9.2482,-9.2482,-9.2522,-9.2834,-9.2915,-9.3003,-9.3249,-9.3178,-9.2829,-9.2842,-9.3005,-9.3045,-9.3281,-9.3711,-9.4297,-9.5039,-9.5508,-9.5664,-9.5898,-9.6289,-9.6836,-9.6914,-9.7148,-9.7578,-9.7969,-9.8125,-9.8203,-9.8906,-9.9336,-9.9414,-9.9101,-9.8906,-9.9297,-9.9414,-9.9844,-10.0195,-10.0351,-10.0547,-10.0664,-10.0781,-10.0898,-10.0976,-10.1094,-10.1094,-10.1054,-10.1367,-10.164,-10.1406,-10.1289,-10.1094,-8.0185,-8.0966,-8.1005,-8.1474,-8.2137,-8.2176,-8.2723,-8.3269,-8.3465,-8.4284,-8.5299,-8.5182,-8.5846,-8.6861,-8.6627,-8.6627,-8.7212,-8.7368,-8.7404,-8.7404,-8.7404,-8.7404,-8.7404,-8.7404,-8.7482,-8.7599,-8.8344,-8.8696,-8.8735,-8.9398,-8.975,-8.9867,-8.975,-8.9672,-8.9906,-8.975,-8.9828,-8.9789,-8.975,-8.9828,-8.9984,-8.9789,-8.9828,-8.9984,-8.9906,-8.9945,-9.0062,-9.0707,-9.1071,-9.132,-9.1955,-9.2386,-9.2405,-9.238,-9.2405,-9.2417,-9.2461,-9.249,-9.2494,-9.2514,-9.2482,-9.2522,-9.2522,-9.2639,-9.2678,-9.2717,-9.2795,-9.2912,-9.338,-9.3817,-9.391,-9.443,-9.4319,-9.3073,-9.3471,-9.3905,-9.4062,-9.4648,-9.5195,-9.5351,-9.5976,-9.6445,-9.664,-9.6992,-9.7383,-9.7461,-9.7656,-9.7773,-9.7969,-9.8515,-9.8945,-9.9179,-9.9726,-10.0273,-10.0312,-10.0312,-10.0351,-10.039,-10.0351,-10.0508,-10.082,-10.1054,-10.1328,-10.1445,-10.1601,-10.1719,-10.1992,-10.2109,-10.2226,-10.2265,-10.2539,-10.2461,-10.2304,-10.2109,-10.2031,-8.1083,-8.1864,-8.1864,-8.202,-8.2293,-8.2293,-8.245,-8.2762,-8.323,-8.3816,-8.4401,-8.5299,-8.6002,-8.651,-8.6822,-8.7134,-8.7404,-8.7404,-8.7404,-8.7443,-8.7404,-8.7404,-8.7443,-8.7443,-8.7716,-8.8344,-8.9203,-8.9594,-8.9672,-8.9906,-8.9984,-8.9984,-9.0023,-8.9984,-9.0062,-8.9984,-8.9984,-8.9984,-8.9984,-8.9984,-8.9984,-9.0023,-9.0296,-9.0843,-9.0882,-9.1116,-9.1663,-9.141,-9.151,-9.2052,-9.2339,-9.2474,-9.2468,-9.2474,-9.2485,-9.2466,-9.2481,-9.2498,-9.2514,-9.2518,-9.2561,-9.2639,-9.3068,-9.338,-9.3497,-9.3927,-9.42,-9.4239,-9.4552,-9.4676,-9.4733,-9.4901,-9.4909,-9.4446,-9.4646,-9.4804,-9.4961,-9.5586,-9.6015,-9.6172,-9.6836,-9.7265,-9.7344,-9.7695,-9.7773,-9.789,-9.8242,-9.8594,-9.8711,-9.9336,-9.9883,-9.9961,-10.0625,-10.1172,-10.1211,-10.1367,-10.1562,-10.1445,-10.1328,-10.1289,-10.1562,-10.1719,-10.1992,-10.2148,-10.2304,-10.25,-10.2773,-10.289,-10.289,-10.289,-10.2773,-10.2773,-10.289,-10.2773,-10.2578,-8.1786,-8.2293,-8.2293,-8.2293,-8.2293,-8.2293,-8.2489,-8.2801,-8.3269,-8.3855,-8.4597,-8.5221,-8.6002,-8.651,-8.6861,-8.7095,-8.7365,-8.7404,-8.756,-8.7759,-8.7482,-8.756,-8.7876,-8.8266,-8.8618,-8.9242,-9.0062,-9.0492,-9.0492,-9.0804,-9.0921,-9.0921,-9.0921,-9.096,-9.0921,-9.0921,-9.0921,-9.0921,-9.096,-9.0921,-9.0921,-9.0921,-9.1194,-9.1702,-9.2053,-9.2482,-9.2912,-9.2706,-9.2576,-9.2529,-9.2505,-9.2495,-9.2534,-9.2773,-9.2983,-9.3036,-9.3318,-9.3486,-9.3458,-9.3576,-9.3458,-9.3576,-9.3966,-9.4278,-9.4356,-9.4864,-9.5059,-9.5098,-9.5417,-9.5583,-9.56,-9.5923,-9.6087,-9.6131,-9.582,-9.5859,-9.6094,-9.6601,-9.6914,-9.707,-9.7383,-9.7773,-9.8086,-9.8203,-9.8359,-9.8633,-9.914,-9.9492,-9.9648,-10.0234,-10.0586,-10.0976,-10.1562,-10.1914,-10.2109,-10.2383,-10.2773,-10.2578,-10.2304,-10.2304,-10.2422,-10.2461,-10.2617,-10.2617,-10.2695,-10.2656,-10.289,-10.289,-10.289,-10.289,-10.289,-10.289,-10.289,-10.289,-10.2773,-8.2293,-8.2293,-8.2293,-8.2293,-8.2293,-8.2293,-8.2645,-8.3269,-8.3465,-8.4284,-8.5338,-8.526,-8.5846,-8.6861,-8.6627,-8.6822,-8.7329,-8.7599,-8.7954,-8.8305,-8.811,-8.8149,-8.8774,-8.9555,-8.9945,-9.0179,-9.096,-9.135,-9.1389,-9.1936,-9.2482,-9.2287,-9.2248,-9.2443,-9.2248,-9.2443,-9.2287,-9.2248,-9.2326,-9.2326,-9.2443,-9.2482,-9.26,-9.2756,-9.3419,-9.381,-9.3927,-9.4356,-9.4115,-9.2923,-9.2866,-9.2935,-9.2857,-9.3456,-9.386,-9.3899,-9.4661,-9.486,-9.502,-9.4786,-9.4825,-9.4825,-9.502,-9.5176,-9.5215,-9.541,-9.5606,-9.557,-9.6091,-9.6495,-9.6624,-9.7023,-9.7497,-9.7617,-9.6992,-9.6914,-9.75,-9.7617,-9.7617,-9.7734,-9.7812,-9.8086,-9.8906,-9.9062,-9.9414,-9.9883,-10.0195,-10.0351,-10.0547,-10.1015,-10.1523,-10.1953,-10.2344,-10.2422,-10.2539,-10.2578,-10.289,-10.2773,-10.2539,-10.2461,-10.2695,-10.2812,-10.289,-10.289,-10.2851,-10.2851,-10.289,-10.289,-10.289,-10.289,-10.289,-10.289,-10.289,-10.289,-10.289,-8.2293,-8.2293,-8.2293,-8.2293,-8.2293,-8.2293,-8.2411,-8.2684,-8.3269,-8.3816,-8.4362,-8.5338,-8.6002,-8.6471,-8.6939,-8.7212,-8.7525,-8.8071,-8.8422,-8.8735,-8.9203,-8.9359,-8.9789,-9.0531,-9.096,-9.1077,-9.1702,-9.217,-9.2209,-9.2365,-9.2482,-9.2482,-9.2561,-9.2522,-9.2482,-9.2561,-9.2482,-9.2482,-9.2522,-9.2873,-9.338,-9.3458,-9.381,-9.4434,-9.463,-9.4747,-9.4786,-9.4981,-9.4981,-9.4505,-9.4423,-9.4419,-9.4341,-9.4579,-9.4739,-9.4817,-9.4977,-9.5137,-9.5176,-9.5176,-9.5137,-9.5176,-9.5762,-9.6074,-9.6113,-9.666,-9.6933,-9.7054,-9.7301,-9.7315,-9.7368,-9.7571,-9.7966,-9.8437,-9.7969,-9.7578,-9.7734,-9.7695,-9.7929,-9.8515,-9.8633,-9.9101,-9.9687,-9.9961,-10.0078,-10.0429,-10.0898,-10.1289,-10.1406,-10.1797,-10.2344,-10.25,-10.2773,-10.2812,-10.2851,-10.2851,-10.2851,-10.2734,-10.2461,-10.2109,-10.2383,-10.2695,-10.2812,-10.289,-10.2656,-10.2617,-10.2773,-10.289,-10.289,-10.289,-10.289,-10.289,-10.289,-10.289,-10.289,-8.2293,-8.2293,-8.2293,-8.2293,-8.2293,-8.2293,-8.2489,-8.284,-8.3269,-8.3972,-8.4675,-8.5612,-8.6314,-8.6744,-8.7564,-8.7954,-8.8071,-8.8852,-8.9437,-8.9945,-9.0648,-9.0843,-9.0843,-9.1389,-9.1819,-9.1858,-9.2287,-9.2443,-9.2482,-9.2482,-9.2482,-9.26,-9.2873,-9.3068,-9.3146,-9.3458,-9.3576,-9.3615,-9.3615,-9.3888,-9.4317,-9.4317,-9.4552,-9.5137,-9.541,-9.5762,-9.6113,-9.6191,-9.5918,-9.5293,-9.5098,-9.5098,-9.5137,-9.5488,-9.5645,-9.5645,-9.5957,-9.623,-9.6191,-9.6191,-9.6191,-9.6269,-9.6738,-9.6894,-9.7011,-9.744,-9.7675,-9.7639,-9.7698,-9.7672,-9.7758,-9.8003,-9.8632,-9.9297,-9.9101,-9.8789,-9.8789,-9.8867,-9.9023,-9.9414,-9.9609,-9.9883,-10.0742,-10.0859,-10.1054,-10.1367,-10.1875,-10.207,-10.2226,-10.2695,-10.289,-10.289,-10.2851,-10.2812,-10.2578,-10.2461,-10.2109,-10.207,-10.1679,-10.1406,-10.1484,-10.1875,-10.1914,-10.1953,-10.2187,-10.2344,-10.2344,-10.2539,-10.289,-10.289,-10.289,-10.2851,-10.2851,-10.289,-10.289,-8.2293,-8.2293,-8.2293,-8.2293,-8.2332,-8.2411,-8.284,-8.3426,-8.3816,-8.4675,-8.5846,-8.6236,-8.6978,-8.7599,-8.8422,-8.8813,-8.8891,-8.975,-9.0609,-9.1272,-9.1897,-9.2014,-9.178,-9.2092,-9.2365,-9.2443,-9.2522,-9.2717,-9.2834,-9.2834,-9.2873,-9.3146,-9.3693,-9.3888,-9.4044,-9.463,-9.502,-9.4903,-9.4786,-9.4942,-9.5176,-9.5254,-9.541,-9.5762,-9.623,-9.6816,-9.7284,-9.7479,-9.6933,-9.5449,-9.5371,-9.5527,-9.5567,-9.623,-9.6503,-9.6621,-9.7089,-9.7479,-9.7597,-9.744,-9.7558,-9.7518,-9.7518,-9.7675,-9.7636,-9.7792,-9.7991,-9.7994,-9.7901,-9.8188,-9.8312,-9.8748,-9.9492,-10.0195,-10.039,-10.0429,-10.0508,-10.0429,-10.0312,-10.0429,-10.0469,-10.0859,-10.1406,-10.1797,-10.1953,-10.2109,-10.2539,-10.2539,-10.2578,-10.2773,-10.289,-10.289,-10.2812,-10.2656,-10.2304,-10.1953,-10.1484,-10.1094,-10.0586,-10.0234,-10.0078,-10.0273,-10.0429,-10.0664,-10.1211,-10.1445,-10.1484,-10.1836,-10.2344,-10.2461,-10.2148,-10.2422,-10.2695,-10.2851,-10.289,-8.2293,-8.2293,-8.2293,-8.2293,-8.2411,-8.2957,-8.3347,-8.3621,-8.4987,-8.5768,-8.6392,-8.7525,-8.8188,-8.8461,-8.9281,-8.9711,-8.9828,-9.0609,-9.1467,-9.2209,-9.2365,-9.2873,-9.2951,-9.2912,-9.2561,-9.2756,-9.3263,-9.3497,-9.3615,-9.4083,-9.4512,-9.4512,-9.4591,-9.4825,-9.4903,-9.5137,-9.5098,-9.5098,-9.5137,-9.5567,-9.6074,-9.6152,-9.6425,-9.6933,-9.7245,-9.744,-9.7597,-9.7675,-9.7518,-9.7245,-9.705,-9.6933,-9.6972,-9.7206,-9.7323,-9.7362,-9.7518,-9.7675,-9.7714,-9.7714,-9.7714,-9.7792,-9.787,-9.7675,-9.7753,-9.8416,-9.8658,-9.8827,-9.9312,-9.9521,-9.9687,-9.9883,-10.0469,-10.1054,-10.1328,-10.1562,-10.1914,-10.1133,-10.0781,-10.1133,-10.1367,-10.164,-10.2461,-10.2539,-10.2695,-10.289,-10.289,-10.289,-10.2851,-10.2773,-10.2617,-10.2422,-10.2148,-10.1875,-10.164,-10.1133,-10.0469,-10.0039,-9.957,-9.9258,-9.9062,-9.9219,-9.957,-9.9961,-10.0429,-10.0547,-10.0586,-10.0781,-10.1211,-10.1289,-10.1445,-10.1679,-10.1992,-10.2383,-10.2734,-8.2293,-8.2293,-8.2293,-8.2293,-8.245,-8.3152,-8.3738,-8.4401,-8.5963,-8.6939,-8.7525,-8.8774,-8.9281,-8.9398,-9.0179,-9.0609,-9.0804,-9.1467,-9.2326,-9.2951,-9.3146,-9.3615,-9.42,-9.4005,-9.3732,-9.381,-9.4161,-9.4395,-9.4552,-9.4864,-9.502,-9.5176,-9.5488,-9.5684,-9.584,-9.6074,-9.6347,-9.6386,-9.6308,-9.6582,-9.6933,-9.7011,-9.7128,-9.7597,-9.7675,-9.7675,-9.7675,-9.7675,-9.7675,-9.7675,-9.7675,-9.7675,-9.7675,-9.7675,-9.7675,-9.7675,-9.7675,-9.7675,-9.7714,-9.8065,-9.8338,-9.8299,-9.8651,-9.8885,-9.8967,-9.94,-9.9566,-9.9695,-10.0022,-10.039,-10.0859,-10.0898,-10.1328,-10.1953,-10.2226,-10.2422,-10.2617,-10.2031,-10.164,-10.2109,-10.2187,-10.2383,-10.2734,-10.2812,-10.2851,-10.2812,-10.2773,-10.2734,-10.2187,-10.207,-10.1758,-10.1523,-10.1211,-10.0937,-10.0781,-10.0273,-9.9375,-9.8945,-9.8515,-9.832,-9.8203,-9.8515,-9.8945,-9.9219,-9.9453,-9.9648,-9.9726,-9.9922,-10.0156,-10.0547,-10.082,-10.0937,-10.1172,-10.164,-10.1953,-8.2293,-8.2293,-8.2293,-8.2371,-8.2645,-8.3543,-8.448,-8.5413,-8.7056,-8.8227,-8.893,-8.9828,-9.0179,-9.0413,-9.1077,-9.1507,-9.1897,-9.2326,-9.3185,-9.3927,-9.4005,-9.4512,-9.5098,-9.5215,-9.5332,-9.5449,-9.5371,-9.5293,-9.5332,-9.5449,-9.584,-9.5723,-9.623,-9.6582,-9.6777,-9.7245,-9.7479,-9.7401,-9.7401,-9.744,-9.7675,-9.7753,-9.7987,-9.8299,-9.8338,-9.8182,-9.8104,-9.7987,-9.787,-9.7714,-9.7675,-9.7675,-9.7675,-9.7675,-9.7675,-9.7714,-9.787,-9.8026,-9.8221,-9.869,-9.9197,-9.9236,-9.9783,-10.0177,-10.022,-10.0347,-10.0476,-10.0605,-10.0811,-10.1172,-10.1719,-10.1797,-10.2148,-10.2656,-10.289,-10.289,-10.289,-10.289,-10.2773,-10.2773,-10.2695,-10.2773,-10.2695,-10.2695,-10.2695,-10.2656,-10.2578,-10.2344,-10.1758,-10.1328,-10.1054,-10.0742,-10.0429,-9.9765,-9.9531,-9.9531,-9.8633,-9.8476,-9.7969,-9.7851,-9.7773,-9.8008,-9.832,-9.8203,-9.8398,-9.8672,-9.8906,-9.9062,-9.9414,-9.9883,-10.0078,-10.0078,-10.0429,-10.0859,-10.1211,-8.2293,-8.2293,-8.2293,-8.2684,-8.3504,-8.4987,-8.608,-8.7173,-8.8735,-8.9594,-8.9867,-9.0687,-9.1077,-9.1272,-9.1936,-9.2639,-9.3068,-9.3497,-9.4044,-9.4786,-9.4903,-9.5371,-9.6035,-9.6191,-9.6542,-9.6894,-9.666,-9.6308,-9.6386,-9.6855,-9.6933,-9.7206,-9.7401,-9.7479,-9.7518,-9.7675,-9.7948,-9.8026,-9.7987,-9.7987,-9.8104,-9.8494,-9.9041,-9.9509,-9.9548,-9.9314,-9.8885,-9.8768,-9.8455,-9.7792,-9.7714,-9.7753,-9.787,-9.787,-9.787,-9.7948,-9.8455,-9.8807,-9.8924,-9.9588,-10.0017,-10.0134,-10.0368,-10.0418,-10.0584,-10.0984,-10.1345,-10.1554,-10.1953,-10.2461,-10.2656,-10.2539,-10.2656,-10.289,-10.289,-10.289,-10.289,-10.2812,-10.2773,-10.2695,-10.2773,-10.2773,-10.2539,-10.2187,-10.1875,-10.1719,-10.1523,-10.1211,-10.0703,-10.0508,-10.039,-10.0039,-9.9687,-9.8906,-9.8203,-9.8281,-9.8086,-9.8359,-9.8125,-9.8008,-9.789,-9.7734,-9.7734,-9.7812,-9.7812,-9.8008,-9.8203,-9.8359,-9.8594,-9.9062,-9.914,-9.9297,-9.9922,-10.0586,-10.0625,-8.2293,-8.2293,-8.2293,-8.3035,-8.4284,-8.5534,-8.6861,-8.8227,-8.9867,-9.0687,-9.0921,-9.1507,-9.1936,-9.2014,-9.2287,-9.299,-9.3732,-9.4317,-9.4942,-9.5606,-9.584,-9.623,-9.6972,-9.7089,-9.7284,-9.7636,-9.7636,-9.744,-9.7167,-9.744,-9.7792,-9.7792,-9.8104,-9.8377,-9.8494,-9.8885,-9.8963,-9.9002,-9.9002,-9.9002,-9.9002,-9.9509,-9.9939,-10.0173,-10.0368,-10.0056,-9.9822,-9.9666,-9.9509,-9.9158,-9.9041,-9.9041,-9.9041,-9.8963,-9.8807,-9.8651,-9.9197,-9.9666,-9.9822,-10.0446,-10.0915,-10.0993,-10.1266,-10.159,-10.1681,-10.2004,-10.2213,-10.2344,-10.25,-10.289,-10.2851,-10.289,-10.289,-10.289,-10.289,-10.289,-10.2773,-10.2461,-10.2344,-10.2265,-10.2109,-10.1992,-10.1992,-10.1601,-10.1094,-10.0742,-10.0508,-10.0117,-9.9648,-9.9609,-9.957,-9.9336,-9.9023,-9.8828,-9.8164,-9.8086,-9.8008,-9.8203,-9.8242,-9.8125,-9.8047,-9.789,-9.7773,-9.7734,-9.7695,-9.7695,-9.7969,-9.8281,-9.8281,-9.8359,-9.9023,-9.957,-9.9883,-10.0195,-10.0273,-8.2411,-8.2567,-8.2528,-8.3504,-8.5065,-8.6002,-8.7368,-8.9047,-9.0609,-9.1389,-9.1624,-9.217,-9.2561,-9.2795,-9.3068,-9.3576,-9.4356,-9.5137,-9.584,-9.6503,-9.6699,-9.7128,-9.7753,-9.7987,-9.8143,-9.8572,-9.8846,-9.8807,-9.8143,-9.8299,-9.8299,-9.8572,-9.9041,-9.9275,-9.9392,-9.9744,-10.0251,-10.0329,-10.0329,-10.0329,-10.0485,-10.0524,-10.0642,-10.0798,-10.0798,-10.0798,-10.0563,-10.0524,-10.0368,-10.0212,-10.0173,-10.0212,-10.0329,-10.0446,-10.0212,-9.9744,-10.0173,-10.0446,-10.0759,-10.1305,-10.1774,-10.1774,-10.2402,-10.269,-10.2744,-10.264,-10.2812,-10.289,-10.289,-10.289,-10.289,-10.289,-10.289,-10.289,-10.289,-10.2773,-10.2461,-10.207,-10.164,-10.1484,-10.1289,-10.1133,-10.1094,-10.0664,-10.0117,-9.9804,-9.9531,-9.9179,-9.8789,-9.875,-9.8672,-9.8515,-9.8437,-9.8672,-9.8476,-9.8359,-9.832,-9.8398,-9.8281,-9.8125,-9.8086,-9.8047,-9.7929,-9.7773,-9.7695,-9.7734,-9.8008,-9.8164,-9.8086,-9.8398,-9.9258,-9.9531,-9.9219,-9.957,-9.9922,-8.2723,-8.3347,-8.3347,-8.4362,-8.5963,-8.69,-8.8227,-8.9867,-9.0921,-9.1702,-9.2248,-9.2522,-9.299,-9.3654,-9.4473,-9.5254,-9.584,-9.6308,-9.6816,-9.7479,-9.7675,-9.8104,-9.8729,-9.8846,-9.9197,-9.9588,-9.9978,-9.9627,-9.9236,-9.9588,-9.9861,-9.9861,-9.99,-10.0134,-10.0173,-10.0524,-10.029,-10.0368,-10.0407,-10.072,-10.1227,-10.1383,-10.1774,-10.2164,-10.2281,-10.2008,-10.1461,-10.1344,-10.1149,-10.0563,-10.0407,-10.0368,-10.0407,-10.0993,-10.1266,-10.1227,-10.1305,-10.1344,-10.15,-10.2047,-10.2476,-10.2441,-10.2725,-10.2819,-10.2873,-10.289,-10.289,-10.289,-10.289,-10.289,-10.289,-10.289,-10.289,-10.2812,-10.2695,-10.2304,-10.1914,-10.1211,-10.082,-10.0351,-10.0078,-10.0117,-10.0117,-9.9609,-9.914,-9.8867,-9.8594,-9.8281,-9.8203,-9.8359,-9.8476,-9.8476,-9.8633,-9.8867,-9.9492,-9.9258,-9.9297,-9.9101,-9.8711,-9.8437,-9.8476,-9.8515,-9.8008,-9.789,-9.789,-9.8047,-9.8359,-9.8398,-9.8047,-9.8359,-9.9101,-9.8711,-9.7969,-9.8633,-9.9765,-8.3933,-8.4206,-8.4206,-8.5221,-8.6861,-8.7759,-8.9125,-9.0687,-9.1624,-9.217,-9.2561,-9.3029,-9.3732,-9.4591,-9.5449,-9.5996,-9.6542,-9.7401,-9.8026,-9.8494,-9.8885,-9.9314,-9.9627,-9.9744,-10.0056,-10.0368,-10.072,-10.0876,-10.0524,-10.029,-10.0329,-10.0446,-10.0759,-10.0993,-10.1032,-10.1461,-10.1696,-10.1774,-10.1774,-10.1891,-10.2164,-10.2242,-10.2398,-10.2789,-10.2789,-10.2554,-10.232,-10.2242,-10.2086,-10.1735,-10.1735,-10.1735,-10.1774,-10.2047,-10.2203,-10.2242,-10.2242,-10.2242,-10.2281,-10.2633,-10.275,-10.2793,-10.2807,-10.2824,-10.2882,-10.289,-10.289,-10.289,-10.289,-10.289,-10.289,-10.289,-10.2578,-10.2383,-10.2304,-10.164,-10.1015,-10.0351,-9.9765,-9.9297,-9.8945,-9.9023,-9.9101,-9.875,-9.8437,-9.832,-9.8281,-9.8281,-9.8398,-9.8711,-9.8828,-9.8867,-9.9101,-9.9336,-10.0195,-10.0625,-10.0937,-10.0703,-9.9804,-9.957,-9.9297,-9.9062,-9.8633,-9.8672,-9.9023,-9.9101,-9.9023,-9.8828,-9.8672,-9.875,-9.8867,-9.8789,-9.8789,-9.9258,-10.0117,-8.5221,-8.5416,-8.5221,-8.6119,-8.7755,-8.8422,-8.9672,-9.1272,-9.1858,-9.2404,-9.3068,-9.3927,-9.4864,-9.5567,-9.6503,-9.7206,-9.7245,-9.8651,-9.9197,-9.9588,-9.9939,-10.0329,-10.0524,-10.0603,-10.0759,-10.0876,-10.1578,-10.1774,-10.1618,-10.1344,-10.111,-10.0954,-10.1578,-10.1813,-10.2008,-10.2281,-10.2554,-10.2554,-10.2593,-10.2633,-10.2711,-10.275,-10.275,-10.2789,-10.2789,-10.2789,-10.2789,-10.275,-10.275,-10.2672,-10.2633,-10.2554,-10.2593,-10.2593,-10.2672,-10.2672,-10.2633,-10.2672,-10.2672,-10.275,-10.2789,-10.2796,-10.2813,-10.2834,-10.2886,-10.289,-10.289,-10.289,-10.289,-10.289,-10.289,-10.289,-10.25,-10.2031,-10.1679,-10.0937,-10.0195,-9.9648,-9.9101,-9.8594,-9.8281,-9.8047,-9.8047,-9.789,-9.7773,-9.7734,-9.789,-9.8203,-9.8633,-9.9101,-9.957,-9.9765,-10.0039,-10.0234,-10.0703,-10.1484,-10.1992,-10.1914,-10.1054,-10.0429,-10.0,-9.9726,-9.9414,-9.9648,-10.0039,-9.9883,-9.9687,-9.9492,-9.9336,-9.9453,-9.9609,-9.9922,-10.0117,-10.039,-10.0703,-8.6471,-8.7173,-8.6353,-8.7017,-8.8579,-8.8657,-8.9711,-9.1311,-9.1428,-9.2482,-9.3966,-9.5293,-9.6074,-9.6699,-9.7792,-9.8572,-9.8846,-9.9783,-10.0134,-10.0212,-10.0368,-10.0915,-10.1227,-10.1539,-10.1774,-10.2281,-10.2476,-10.2515,-10.2633,-10.2359,-10.2398,-10.2672,-10.2398,-10.2593,-10.2633,-10.2672,-10.2789,-10.2789,-10.2789,-10.2789,-10.2789,-10.2789,-10.2789,-10.2789,-10.2789,-10.2789,-10.2789,-10.2789,-10.2789,-10.2789,-10.2789,-10.2789,-10.2789,-10.2789,-10.2789,-10.2789,-10.2789,-10.2789,-10.2789,-10.2789,-10.2828,-10.2839,-10.2858,-10.288,-10.2929,-10.289,-10.289,-10.289,-10.289,-10.289,-10.289,-10.2812,-10.2265,-10.1601,-10.1015,-10.039,-9.9726,-9.9179,-9.8594,-9.8008,-9.7851,-9.7969,-9.8203,-9.832,-9.789,-9.7812,-9.8437,-9.8789,-9.9258,-9.9765,-10.0508,-10.0937,-10.1172,-10.1328,-10.1367,-10.1758,-10.1914,-10.1758,-10.1172,-10.0742,-10.039,-10.0195,-10.0234,-10.039,-10.0625,-10.0508,-10.0469,-10.0547,-10.0547,-10.0312,-10.0273,-10.0312,-10.0429,-10.0547,-10.1289,-8.7095,-8.7404,-8.7603,-8.8071,-8.8735,-8.9281,-9.0179,-9.1389,-9.2404,-9.381,-9.541,-9.6152,-9.7011,-9.7948,-9.8533,-9.9314,-9.9861,-10.0642,-10.0954,-10.1266,-10.1578,-10.1969,-10.2281,-10.2281,-10.2515,-10.275,-10.2789,-10.2789,-10.275,-10.2789,-10.2789,-10.2789,-10.2789,-10.2789,-10.2789,-10.2789,-10.2789,-10.2789,-10.2789,-10.2789,-10.2789,-10.2789,-10.2789,-10.2789,-10.2789,-10.2789,-10.2789,-10.2789,-10.2789,-10.2789,-10.2789,-10.2789,-10.2789,-10.2789,-10.2789,-10.2789,-10.2789,-10.2789,-10.2789,-10.2789,-10.2839,-10.2861,-10.2871,-10.2921,-10.289,-10.289,-10.289,-10.289,-10.289,-10.289,-10.289,-10.2422,-10.1719,-10.0976,-10.0351,-9.9844,-9.9336,-9.8828,-9.8828,-9.8554,-9.8515,-9.8594,-9.8828,-9.9062,-9.8476,-9.8047,-9.875,-9.9414,-9.9922,-10.0351,-10.1094,-10.1562,-10.1758,-10.2031,-10.2109,-10.1953,-10.1836,-10.1601,-10.1367,-10.1211,-10.1094,-10.1094,-10.1133,-10.125,-10.1445,-10.1601,-10.1758,-10.1875,-10.1601,-10.1015,-10.0586,-10.0312,-10.0469,-10.082,-10.1523,-8.756,-8.7837,-8.8461,-8.8852,-8.9203,-9.0257,-9.1233,-9.2209,-9.3537,-9.4981,-9.6425,-9.6894,-9.7792,-9.8846,-9.9666,-10.0056,-10.0798,-10.1461,-10.1774,-10.2086,-10.2398,-10.275,-10.2789,-10.275,-10.2711,-10.2789,-10.2789,-10.2789,-10.2789,-10.2789,-10.2789,-10.2789,-10.2789,-10.2789,-10.2789,-10.2789,-10.2789,-10.2789,-10.2789,-10.2789,-10.2789,-10.2789,-10.2789,-10.2789,-10.2789,-10.2789,-10.2789,-10.2789,-10.2789,-10.2789,-10.2789,-10.2789,-10.2789,-10.2789,-10.2789,-10.2789,-10.2789,-10.2789,-10.2789,-10.2793,-10.2807,-10.2868,-10.2912,-10.2923,-10.289,-10.289,-10.289,-10.289,-10.289,-10.289,-10.289,-10.2461,-10.1562,-10.0898,-10.0312,-9.9765,-9.9258,-9.8789,-9.9101,-9.9258,-9.9297,-9.9375,-9.9492,-9.9726,-9.957,-9.9101,-9.9375,-10.0078,-10.0664,-10.1094,-10.1523,-10.1914,-10.2148,-10.2461,-10.2734,-10.25,-10.2304,-10.2344,-10.2148,-10.207,-10.1992,-10.1953,-10.1953,-10.2031,-10.2304,-10.2773,-10.2734,-10.2461,-10.1992,-10.1445,-10.1211,-10.1211,-10.1445,-10.1836,-10.1797,-8.7915,-8.8657,-8.8774,-8.932,-9.0257,-9.1741,-9.2834,-9.3693,-9.463,-9.5684,-9.6816,-9.8065,-9.8885,-9.947,-10.0563,-10.1188,-10.1578,-10.2281,-10.2593,-10.2633,-10.2672,-10.2789,-10.2789,-10.2789,-10.2789,-10.2789,-10.2789,-10.2789,-10.2789,-10.2789,-10.2789,-10.2789,-10.2789,-10.2789,-10.2789,-10.2789,-10.2789,-10.2789,-10.2789,-10.2789,-10.2789,-10.2789,-10.2789,-10.2789,-10.2789,-10.2789,-10.2789,-10.2789,-10.2789,-10.2789,-10.2789,-10.2789,-10.2789,-10.2789,-10.2789,-10.2789,-10.2789,-10.2789,-10.2789,-10.2789,-10.2849,-10.2871,-10.2914,-10.2922,-10.289,-10.289,-10.289,-10.289,-10.289,-10.289,-10.289,-10.2656,-10.164,-10.0976,-10.0429,-10.0078,-9.957,-9.9179,-9.9531,-10.0039,-10.0195,-10.0273,-10.0312,-10.039,-10.0469,-10.0351,-10.0273,-10.0703,-10.1367,-10.1758,-10.2109,-10.2265,-10.25,-10.2617,-10.2851,-10.289,-10.2812,-10.289,-10.2812,-10.2617,-10.2578,-10.2539,-10.2617,-10.2734,-10.2812,-10.289,-10.289,-10.2851,-10.2422,-10.2109,-10.2422,-10.25,-10.2695,-10.2656,-10.2461,-8.8774,-8.9672,-9.0765,-9.1702,-9.2443,-9.2482,-9.3302,-9.4669,-9.5645,-9.6777,-9.7987,-9.8846,-9.9744,-10.0563,-10.1149,-10.1817,-10.2359,-10.2476,-10.2789,-10.2789,-10.2789,-10.2789,-10.2789,-10.2789,-10.2789,-10.2789,-10.2789,-10.2789,-10.2789,-10.2789,-10.2789,-10.2789,-10.2789,-10.2789,-10.2789,-10.2789,-10.2789,-10.2789,-10.2789,-10.2789,-10.2789,-10.2789,-10.2789,-10.2789,-10.2789,-10.2789,-10.2789,-10.2789,-10.2789,-10.2789,-10.2789,-10.2789,-10.2789,-10.2789,-10.2789,-10.2789,-10.2789,-10.2789,-10.2789,-10.2793,-10.2846,-10.2866,-10.2916,-10.2922,-10.289,-10.289,-10.289,-10.289,-10.289,-10.289,-10.289,-10.2265,-10.1484,-10.1289,-10.0937,-10.082,-10.0469,-10.0117,-10.0156,-10.082,-10.1172,-10.1523,-10.164,-10.1484,-10.1445,-10.1406,-10.1328,-10.1601,-10.2187,-10.2383,-10.2656,-10.2695,-10.2773,-10.2851,-10.289,-10.289,-10.289,-10.289,-10.289,-10.2812,-10.2851,-10.289,-10.289,-10.2812,-10.2851,-10.289,-10.289,-10.289,-10.289,-10.2851,-10.289,-10.289,-10.2851,-10.2812,-10.2773,-9.0296,-9.1428,-9.2482,-9.3458,-9.4122,-9.3966,-9.4711,-9.6003,-9.6943,-9.7962,-9.8941,-9.9569,-10.0425,-10.1359,-10.1863,-10.2168,-10.2789,-10.2789,-10.2789,-10.2789,-10.2789,-10.2789,-10.2789,-10.2789,-10.2789,-10.2789,-10.2789,-10.2789,-10.2789,-10.2789,-10.2789,-10.2789,-10.2789,-10.2789,-10.2789,-10.2789,-10.2789,-10.2789,-10.2789,-10.2789,-10.2789,-10.2789,-10.2789,-10.2789,-10.2789,-10.2789,-10.2789,-10.2789,-10.2789,-10.2789,-10.2789,-10.2789,-10.2789,-10.2789,-10.2789,-10.2789,-10.2789,-10.2789,-10.2789,-10.2789,-10.2846,-10.2912,-10.2914,-10.2922,-10.289,-10.289,-10.289,-10.289,-10.289,-10.289,-10.2773,-10.207,-10.1875,-10.1679,-10.1406,-10.1289,-10.1211,-10.0859,-10.1015,-10.164,-10.1992,-10.2461,-10.2695,-10.2695,-10.2539,-10.2461,-10.2383,-10.2617,-10.2773,-10.2851,-10.289,-10.289,-10.289,-10.289,-10.289,-10.289,-10.289,-10.289,-10.289,-10.289,-10.289,-10.289,-10.289,-10.289,-10.289,-10.289,-10.289,-10.289,-10.289,-10.289,-10.289,-10.289,-10.289,-10.289,-10.289,-9.2287,-9.3693,-9.381,-9.4278,-9.5102,-9.5843,-9.6791,-9.7701,-9.856,-9.8997,-9.9242,-10.0879,-10.1538,-10.1765,-10.2426,-10.2729,-10.2793,-10.2789,-10.2789,-10.2789,-10.2789,-10.2789,-10.2789,-10.2789,-10.2789,-10.2789,-10.2789,-10.2789,-10.2789,-10.2789,-10.2789,-10.2789,-10.2789,-10.2789,-10.2789,-10.2789,-10.2789,-10.2789,-10.2789,-10.2789,-10.2789,-10.2789,-10.2789,-10.2789,-10.2789,-10.2789,-10.2789,-10.2789,-10.2789,-10.2789,-10.2789,-10.2789,-10.2789,-10.2789,-10.2789,-10.2789,-10.2789,-10.2789,-10.2789,-10.2789,-10.2849,-10.2871,-10.2914,-10.2923,-10.289,-10.289,-10.289,-10.289,-10.289,-10.289,-10.2812,-10.2617,-10.2422,-10.2148,-10.1797,-10.1719,-10.1758,-10.1797,-10.2031,-10.2383,-10.2617,-10.2851,-10.2851,-10.289,-10.289,-10.2812,-10.2695,-10.2734,-10.2851,-10.2851,-10.289,-10.289,-10.289,-10.289,-10.289,-10.2851,-10.289,-10.289,-10.289,-10.289,-10.289,-10.2851,-10.289,-10.289,-10.289,-10.289,-10.289,-10.289,-10.289,-10.289,-10.2851,-10.289,-10.289,-10.289,-10.289,-9.2795,-9.3771,-9.381,-9.4324,-9.5274,-9.6691,-9.7477,-9.7832,-9.8653,-9.9592,-10.0883,-10.1352,-10.1937,-10.2519,-10.2705,-10.2774,-10.2807,-10.2796,-10.2789,-10.2789,-10.2789,-10.2789,-10.2789,-10.2789,-10.2789,-10.2789,-10.2789,-10.2789,-10.2789,-10.2789,-10.2789,-10.2789,-10.2789,-10.2789,-10.2789,-10.2789,-10.2789,-10.2789,-10.2789,-10.2789,-10.2789,-10.2789,-10.2789,-10.2789,-10.2789,-10.2789,-10.2789,-10.2711,-10.2711,-10.275,-10.275,-10.2789,-10.2789,-10.2789,-10.2789,-10.2789,-10.2789,-10.2789,-10.2789,-10.2789,-10.2807,-10.2868,-10.2914,-10.2923,-10.289,-10.289,-10.289,-10.289,-10.289,-10.289,-10.289,-10.2812,-10.2695,-10.2539,-10.2304,-10.2304,-10.2304,-10.2383,-10.2617,-10.2656,-10.289,-10.289,-10.289,-10.289,-10.289,-10.289,-10.289,-10.289,-10.289,-10.289,-10.2695,-10.2695,-10.2656,-10.2578,-10.2695,-10.2695,-10.2812,-10.289,-10.2695,-10.2539,-10.2578,-10.2578,-10.2812,-10.2734,-10.2422,-10.2617,-10.289,-10.2773,-10.2344,-10.2734,-10.2812,-10.2851,-10.289,-10.2851,-10.289,-9.3556,-9.4259,-9.4298,-9.4814,-9.5763,-9.7098,-9.8038,-9.8783,-9.964,-10.0694,-10.1595,-10.1987,-10.2414,-10.28,-10.2831,-10.2822,-10.2774,-10.2796,-10.2789,-10.2789,-10.2789,-10.2789,-10.2789,-10.2789,-10.2789,-10.2789,-10.2789,-10.2789,-10.2789,-10.2789,-10.2789,-10.2789,-10.2789,-10.2789,-10.2789,-10.2789,-10.2789,-10.2789,-10.2789,-10.2789,-10.2789,-10.2789,-10.2789,-10.2789,-10.2789,-10.2789,-10.2672,-10.2593,-10.232,-10.2203,-10.2125,-10.1813,-10.1891,-10.2008,-10.2242,-10.2281,-10.2633,-10.2711,-10.2789,-10.2789,-10.2849,-10.2907,-10.2914,-10.2923,-10.289,-10.289,-10.289,-10.289,-10.289,-10.289,-10.289,-10.289,-10.289,-10.289,-10.2851,-10.2851,-10.2851,-10.2851,-10.289,-10.289,-10.289,-10.289,-10.289,-10.289,-10.289,-10.289,-10.289,-10.289,-10.289,-10.289,-10.2539,-10.2226,-10.2187,-10.2109,-10.2226,-10.2109,-10.1953,-10.1797,-10.1562,-10.1562,-10.1914,-10.1875,-10.1679,-10.1679,-10.1719,-10.1875,-10.1953,-10.1836,-10.1601,-10.1953,-10.2148,-10.2031,-10.2226,-10.2734,-10.2773,-9.4359,-9.5062,-9.5181,-9.5692,-9.6597,-9.7613,-9.8905,-10.039,-10.1248,-10.1717,-10.1914,-10.2539,-10.285,-10.2926,-10.288,-10.2831,-10.2822,-10.2803,-10.2793,-10.2789,-10.2789,-10.2789,-10.2789,-10.2789,-10.2789,-10.2789,-10.2789,-10.2789,-10.2789,-10.2789,-10.2789,-10.2789,-10.2789,-10.2789,-10.2789,-10.2789,-10.2789,-10.2789,-10.2789,-10.2789,-10.2789,-10.2789,-10.2789,-10.2789,-10.2789,-10.275,-10.2476,-10.2047,-10.1461,-10.1188,-10.0915,-10.0524,-10.0915,-10.1266,-10.15,-10.193,-10.2515,-10.2672,-10.2789,-10.2789,-10.2849,-10.2866,-10.2914,-10.2923,-10.289,-10.289,-10.289,-10.289,-10.289,-10.289,-10.289,-10.289,-10.289,-10.289,-10.289,-10.289,-10.289,-10.289,-10.289,-10.289,-10.289,-10.289,-10.289,-10.289,-10.289,-10.289,-10.289,-10.289,-10.2812,-10.2812,-10.2383,-10.1836,-10.1523,-10.1367,-10.1133,-10.0976,-10.0742,-10.0547,-10.0508,-10.0625,-10.1054,-10.082,-10.039,-10.0703,-10.1054,-10.0742,-10.0703,-10.0742,-10.0859,-10.0859,-10.0976,-10.0937,-10.1328,-10.1992,-10.2617,-9.4359,-9.5181,-9.5813,-9.6597,-9.7575,-9.9023,-10.0273,-10.1367,-10.2187,-10.2578,-10.2617,-10.2773,-10.289,-10.289,-10.289,-10.2878,-10.2868,-10.2813,-10.2803,-10.2793,-10.2789,-10.2789,-10.2789,-10.2789,-10.2789,-10.2789,-10.2789,-10.2789,-10.2789,-10.2789,-10.2789,-10.2789,-10.2789,-10.2789,-10.2789,-10.2789,-10.2789,-10.2789,-10.2789,-10.2789,-10.2789,-10.2789,-10.2789,-10.2789,-10.275,-10.2359,-10.2047,-10.1618,-10.1071,-10.0681,-10.0485,-10.0642,-10.1188,-10.1383,-10.1852,-10.2398,-10.2593,-10.275,-10.2789,-10.2793,-10.281,-10.2866,-10.2916,-10.2924,-10.289,-10.289,-10.289,-10.289,-10.289,-10.289,-10.289,-10.289,-10.289,-10.289,-10.289,-10.289,-10.289,-10.289,-10.289,-10.289,-10.289,-10.289,-10.289,-10.289,-10.289,-10.289,-10.289,-10.2851,-10.2617,-10.2461,-10.2109,-10.1562,-10.082,-10.0547,-10.0156,-9.9922,-9.9726,-9.9883,-9.9961,-10.0078,-10.0195,-9.9961,-9.9726,-10.0156,-10.039,-10.0,-9.9883,-10.0273,-10.0312,-10.0,-9.9961,-10.0,-10.0273,-10.0859,-10.1758,-9.4409,-9.5308,-9.6873,-9.8046,-9.9022,-10.0312,-10.1367,-10.2187,-10.2695,-10.289,-10.289,-10.289,-10.289,-10.289,-10.289,-10.2922,-10.2875,-10.2822,-10.2807,-10.2793,-10.2789,-10.2789,-10.2789,-10.2789,-10.2789,-10.2789,-10.2789,-10.2789,-10.2789,-10.2789,-10.2789,-10.2789,-10.2789,-10.2789,-10.2789,-10.2789,-10.2789,-10.2789,-10.2789,-10.2789,-10.2789,-10.2789,-10.2789,-10.2789,-10.2398,-10.2008,-10.1422,-10.0954,-10.0173,-9.9861,-9.9705,-10.0134,-10.072,-10.1266,-10.1657,-10.2125,-10.2476,-10.2789,-10.2789,-10.28,-10.2813,-10.2868,-10.2919,-10.2926,-10.289,-10.289,-10.289,-10.289,-10.289,-10.289,-10.289,-10.289,-10.289,-10.289,-10.289,-10.289,-10.289,-10.289,-10.289,-10.289,-10.289,-10.289,-10.289,-10.289,-10.289,-10.289,-10.289,-10.289,-10.2656,-10.2226,-10.1836,-10.1328,-10.0664,-9.9609,-9.8906,-9.8789,-9.8828,-9.9023,-9.9531,-9.9179,-9.9101,-9.9062,-9.9101,-9.9492,-9.9492,-9.8984,-9.9023,-9.957,-9.9258,-9.8789,-9.8906,-9.914,-9.9453,-9.9804,-10.0742,-9.4765,-9.5976,-9.832,-9.9765,-10.0547,-10.1406,-10.2148,-10.2812,-10.289,-10.289,-10.289,-10.289,-10.289,-10.289,-10.2928,-10.2923,-10.2877,-10.2866,-10.2813,-10.2793,-10.2789,-10.2789,-10.2789,-10.2789,-10.2789,-10.2789,-10.2789,-10.2789,-10.2789,-10.2789,-10.2789,-10.2789,-10.2789,-10.2789,-10.2789,-10.2789,-10.2789,-10.2789,-10.2789,-10.2789,-10.2789,-10.2789,-10.2789,-10.2515,-10.2125,-10.1657,-10.1071,-10.0407,-9.947,-9.9275,-9.9509,-10.0017,-10.0563,-10.1266,-10.1618,-10.2047,-10.2515,-10.275,-10.2793,-10.2803,-10.2822,-10.2873,-10.2883,-10.289,-10.289,-10.289,-10.289,-10.289,-10.289,-10.289,-10.289,-10.289,-10.289,-10.289,-10.289,-10.289,-10.289,-10.289,-10.2851,-10.2851,-10.2851,-10.2851,-10.2851,-10.289,-10.289,-10.289,-10.289,-10.289,-10.2734,-10.2187,-10.1719,-10.1211,-10.0586,-9.9453,-9.8476,-9.8515,-9.8945,-9.9062,-9.9453,-9.8594,-9.8203,-9.8984,-9.9219,-9.875,-9.8633,-9.8867,-9.8633,-9.8867,-9.8398,-9.8242,-9.8164,-9.8515,-9.8594,-9.9062,-9.9804,-9.625,-9.8437,-10.0312,-10.1211,-10.1484,-10.2265,-10.2773,-10.289,-10.289,-10.289,-10.289,-10.289,-10.289,-10.289,-10.289,-10.2927,-10.2914,-10.2871,-10.2816,-10.2793,-10.2789,-10.2789,-10.2789,-10.2789,-10.2789,-10.2789,-10.2789,-10.2789,-10.2789,-10.2789,-10.2789,-10.2789,-10.2789,-10.2789,-10.2789,-10.2789,-10.2789,-10.2789,-10.2789,-10.2789,-10.2789,-10.2789,-10.2789,-10.2672,-10.2633,-10.2086,-10.1578,-10.1227,-10.0681,-10.0251,-10.0095,-10.0524,-10.1032,-10.1539,-10.1891,-10.2242,-10.2711,-10.275,-10.2796,-10.281,-10.2863,-10.2914,-10.2922,-10.289,-10.289,-10.289,-10.289,-10.289,-10.289,-10.289,-10.289,-10.289,-10.289,-10.289,-10.289,-10.289,-10.289,-10.2812,-10.2734,-10.2734,-10.2734,-10.2734,-10.2734,-10.2812,-10.289,-10.289,-10.289,-10.289,-10.2851,-10.2265,-10.1679,-10.125,-10.0742,-10.0351,-9.9883,-9.9609,-9.9765,-9.9726,-9.9648,-9.9297,-9.9297,-9.9765,-9.9765,-9.9297,-9.9453,-9.9804,-9.9492,-9.8984,-9.8906,-9.8789,-9.8086,-9.7929,-9.8086,-9.8594,-9.9648]},{"header":{"parameterUnit":"m.s-1","parameterCategory":1,"la1":31.0,"la2":29.5877,"lo1":-88.7671,"lo2":-86.6584,"dx":0.0162,"dy":0.0185,"nx":115,"ny":88,"refTime":"2023-01-16T06:00:00:Z","depth":0,"parameterNumber":3,"parameterNumberName":"V-component_of_WINDS"},"data":[0.0,0.0,0.0,0.0,0.0,0.0,0.0,0.0,0.0,0.0,0.0,0.0,0.0,0.0,0.0,0.0,0.0,0.0,0.0,0.0,0.0,0.0,0.0,0.0,0.0,0.0,0.0,0.0,0.0,0.0,0.0,0.0,0.0,0.0,0.0,0.0,0.0,0.0,0.0,0.0,0.0,0.0,0.0,0.0,0.0,0.0,0.0,0.0,0.0,0.0,0.0,0.0,0.0,0.0,0.0,0.0,0.0,0.0,0.0,0.0,0.0,0.0,0.0,0.0,0.0,0.0,0.0,0.0,0.0,0.0,0.0,0.0,0.0,0.0,0.0,0.0,0.0,0.0,0.0,0.0,0.0,0.0,0.0,0.0,0.0,0.0,0.0,0.0,0.0,0.0,0.0,0.0,0.0,0.0,0.0,0.0,0.0,0.0,0.0,0.0,0.0,0.0,0.0,0.0,0.0,0.0,0.0,0.0,0.0,0.0,0.0,0.0,0.0,0.0,0.0,0.0,0.0,0.0,0.0,0.0,0.0,0.0,0.0,0.0,0.0,0.0,0.0,0.0,0.0,0.0,0.0,0.0,0.0,0.0,0.0,0.0,0.0,0.0,0.0,0.0,0.0,0.0,0.0,0.0,0.0,0.0,0.0,0.0,0.0,0.0,0.0,0.0,0.0,0.0,0.0,0.0,0.0,0.0,0.0,0.0,0.0,0.0,0.0,0.0,0.0,0.0,0.0,0.0,0.0,0.0,0.0,0.0,0.0,0.0,0.0,0.0,0.0,0.0,0.0,0.0,0.0,0.0,0.0,0.0,0.0,0.0,0.0,0.0,0.0,0.0,0.0,0.0,0.0,0.0,0.0,0.0,0.0,0.0,0.0,0.0,0.0,0.0,0.0,0.0,0.0,0.0,0.0,0.0,0.0,0.0,0.0,0.0,0.0,0.0,0.0,0.0,0.0,0.0,0.0,0.0,0.0,0.0,0.0,0.0,0.0,0.0,0.0,0.0,0.0,0.0,0.0,0.0,0.0,0.0,0.0,0.0,0.0,0.0,0.0,0.0,0.0,0.0,0.0,0.0,0.0,0.0,0.0,0.0,0.0,0.0,0.0,0.0,0.0,0.0,0.0,0.0,0.0,0.0,0.0,0.0,0.0,0.0,0.0,0.0,0.0,0.0,0.0,0.0,0.0,0.0,0.0,0.0,0.0,0.0,0.0,0.0,0.0,0.0,0.0,0.0,0.0,0.0,0.0,0.0,0.0,0.0,0.0,0.0,0.0,0.0,0.0,0.0,0.0,0.0,0.0,0.0,0.0,0.0,0.0,0.0,0.0,0.0,0.0,0.0,0.0,0.0,0.0,0.0,0.0,0.0,0.0,0.0,0.0,0.0,0.0,0.0,0.0,0.0,0.0,0.0,0.0,0.0,0.0,0.0,0.0,0.0,0.0,0.0,0.0,0.0,0.0,0.0,0.0,0.0,0.0,0.0,0.0,0.0,0.0,0.0,0.0,0.0,0.0,0.0,0.0,0.0,0.0,0.0,0.0,0.0,0.0,0.0,0.0,0.0,0.0,0.0,0.0,0.0,0.0,0.0,0.0,0.0,0.0,0.0,0.0,0.0,0.0,0.0,0.0,0.0,0.0,0.0,0.0,0.0,0.0,0.0,0.0,0.0,0.0,0.0,0.0,0.0,0.0,0.0,0.0,0.0,0.0,0.0,0.0,0.0,0.0,0.0,0.0,0.0,0.0,0.0,0.0,0.0,0.0,0.0,0.0,0.0,0.0,0.0,0.0,0.0,0.0,0.0,0.0,0.0,0.0,0.0,0.0,0.0,0.0,0.0,0.0,0.0,0.0,0.0,0.0,0.0,0.0,0.0,0.0,0.0,0.0,0.0,0.0,0.0,0.0,0.0,0.0,0.0,0.0,0.0,0.0,0.0,0.0,0.0,0.0,0.0,0.0,0.0,0.0,0.0,0.0,0.0,0.0,0.0,0.0,0.0,0.0,0.0,0.0,0.0,0.0,0.0,0.0,0.0,0.0,0.0,0.0,0.0,0.0,0.0,0.0,0.0,0.0,0.0,0.0,0.0,0.0,0.0,0.0,0.0,0.0,0.0,0.0,0.0,0.0,0.0,0.0,0.0,0.0,0.0,0.0,0.0,0.0,0.0,0.0,0.0,0.0,0.0,0.0,0.0,0.0,0.0,0.0,0.0,0.0,0.0,0.0,0.0,0.0,0.0,0.0,0.0,0.0,0.0,0.0,0.0,0.0,0.0,0.0,0.0,0.0,0.0,0.0,0.0,0.0,0.0,0.0,0.0,0.0,0.0,0.0,0.0,0.0,0.0,0.0,0.0,0.0,0.0,0.0,0.0,0.0,0.0,0.0,0.0,0.0,0.0,0.0,0.0,0.0,0.0,0.0,0.0,0.0,0.0,0.0,0.0,0.0,0.0,0.0,0.0,0.0,0.0,0.0,0.0,0.0,0.0,0.0,0.0,0.0,0.0,0.0,0.0,0.0,0.0,0.0,0.0,0.0,0.0,0.0,0.0,0.0,0.0,0.0,0.0,0.0,0.0,0.0,0.0,0.0,0.0,0.0,0.0,0.0,0.0,0.0,0.0,0.0,0.0,0.0,0.0,0.0,0.0,0.0,0.0,0.0,0.0,0.0,0.0,0.0,0.0,0.0,0.0,0.0,0.0,0.0,0.0,0.0,0.0,0.0,0.0,0.0,0.0,0.0,0.0,0.0,0.0,0.0,0.0,0.0,0.0,0.0,0.0,0.0,0.0,0.0,0.0,0.0,0.0,0.0,0.0,0.0,0.0,0.0,0.0,0.0,0.0,0.0,0.0,0.0,0.0,0.0,0.0,0.0,0.0,0.0,0.0,0.0,0.0,0.0,0.0,0.0,0.0,0.0,0.0,0.0,0.0,0.0,0.0,0.0,0.0,0.0,0.0,0.0,0.0,0.0,0.0,0.0,0.0,0.0,0.0,0.0,0.0,0.0,0.0,0.0,0.0,0.0,0.0,0.0,0.0,0.0,0.0,0.0,0.0,0.0,0.0,0.0,0.0,0.0,0.0,0.0,0.0,0.0,0.0,0.0,0.0,0.0,0.0,0.0,0.0,0.0,0.0,0.0,0.0,0.0,0.0,0.0,0.0,0.0,0.0,0.0,0.0,0.0,0.0,0.0,0.0,0.0,0.0,0.0,0.0,0.0,0.0,0.0,0.0,0.0,0.0,0.0,0.0,0.0,0.0,0.0,0.0,0.0,0.0,0.0,0.0,0.0,0.0,0.0,0.0,0.0,0.0,0.0,0.0,0.0,0.0,0.0,0.0,0.0,0.0,0.0,0.0,0.0,0.0,0.0,0.0,0.0,0.0,0.0,0.0,0.0,0.0,0.0,0.0,0.0,0.0,0.0,0.0,0.0,0.0,0.0,0.0,0.0,0.0,0.0,0.0,0.0,0.0,0.0,0.0,0.0,0.0,0.0,0.0,0.0,0.0,0.0,0.0,0.0,0.0,0.0,0.0,0.0,0.0,0.0,0.0,0.0,0.0,0.0,0.0,0.0,0.0,0.0,0.0,0.0,0.0,0.0,0.0,0.0,0.0,0.0,0.0,0.0,0.0,0.0,0.0,0.0,0.0,0.0,0.0,0.0,0.0,0.0,0.0,0.0,0.0,0.0,0.0,0.0,0.0,0.0,0.0,0.0,0.0,0.0,0.0,0.0,0.0,0.0,0.0,0.0,0.0,0.0,0.0,0.0,0.0,0.0,0.0,0.0,0.0,0.0,0.0,0.0,0.0,0.0,0.0,0.0,0.0,0.0,0.0,0.0,0.0,0.0,0.0,0.0,0.0,0.0,0.0,0.0,0.0,0.0,0.0,0.0,0.0,0.0,0.0,0.0,0.0,0.0,0.0,0.0,0.0,0.0,0.0,0.0,0.0,0.0,0.0,0.0,0.0,0.0,0.0,0.0,0.0,0.0,0.0,0.0,0.0,0.0,0.0,0.0,0.0,0.0,0.0,0.0,0.0,0.0,0.0,0.0,0.0,0.0,0.0,0.0,0.0,0.0,0.0,0.0,0.0,0.0,0.0,0.0,0.0,0.0,0.0,0.0,0.0,0.0,0.0,0.0,0.0,0.0,0.0,0.0,0.0,0.0,0.0,0.0,0.0,0.0,0.0,0.0,0.0,0.0,0.0,0.0,0.0,0.0,0.0,0.0,0.0,0.0,0.0,0.0,0.0,0.0,0.0,0.0,0.0,0.0,0.0,0.2751,0.0,0.0,0.0,0.0,0.0,0.0,0.0,0.0,0.0,0.0,0.0,0.0,0.0,0.0,0.0,0.0,0.0,0.0,0.0,0.0,0.0,0.0,0.0,0.0,0.0,0.0,0.0,0.0,0.0,0.0,0.0,0.0,0.0,0.0,0.0,0.0,0.0,0.0,0.0,0.0,0.0,0.0,0.0,0.0,0.0,0.0,0.0,0.0,0.0,0.0,0.0,0.0,0.0,0.0,0.0,0.0,0.0,0.0,0.0,0.0,0.0,0.0,0.0,0.0,0.0,0.0,0.0,0.0,0.0,0.0,0.0,0.0,0.0,0.0,0.0,0.0,0.0,0.0,0.0,0.0,0.0,0.0,0.0,0.0,0.0,0.0,0.0,0.0,0.0,0.0,0.0,0.0,0.0,0.0,0.0,0.0,0.0,0.0,0.0,0.0,0.0,0.0,0.0,0.0,0.0,0.0,0.0,0.0,0.0,0.0,0.3004,0.3006,0.267,0.2465,0.2502,0.0,0.0,0.0,0.0,0.0,0.0,0.0,0.0,0.0,0.0,0.0,0.0,0.0,0.0,0.0,0.0,0.0,0.0,0.0,0.0,0.0,0.0,0.0,0.0,0.0,0.0,0.0,0.0,0.0,0.0,0.0,0.0,0.0,0.0,0.0,0.0,0.0,0.0,0.0,0.0,0.0,0.0,0.0,0.0,0.0,0.0,0.0,0.0,0.0,0.0,0.0,0.0,0.0,0.0,0.0,0.0,0.0,0.0,0.0,0.0,0.0,0.0,0.0,0.0,0.0,0.0,0.0,0.0,0.0,0.0,0.0,0.0,0.0,0.0,0.0,0.0,0.0,0.0,0.0,0.0,0.0,0.0,0.0,0.0,0.0,0.0,0.0,0.0,0.0,0.0,0.0,0.0,0.0,0.0,0.0,0.0,0.0,0.0,0.0,0.0,0.0,0.0,0.0,0.0,0.0,0.0,0.0,0.0,0.0,0.0,0.0,0.0,0.2407,0.219,0.2174,0.0,0.0,0.0,0.0,0.0,0.0,0.0,0.0,0.0,0.0,0.0,0.0,0.0,0.0,0.0,0.0,0.0,0.0,0.0,0.0,0.0,0.0,0.0,0.0,0.0,0.0,0.0,0.0,0.0,0.0,0.0,0.0,0.0,0.0,0.0,0.0,0.0,0.0,0.0,0.0,0.0,0.0,0.0,0.0,0.0,0.0,0.0,0.0,0.0,0.0,0.0,0.0,0.0,0.0,0.0,0.0,0.0,0.0,0.0,0.0,0.0,0.0,0.0,0.0,0.0,0.0,0.0,0.0,0.0,0.0,0.0,0.0,0.0,0.0,0.0,0.0,0.0,0.0,0.0,0.0,0.0,0.0,0.0,0.0,0.0,0.0,0.0,0.0,0.0,0.0,0.0,0.0,0.0,0.0,0.0,0.0,0.0,0.0,0.0,0.0,0.0,0.0,0.0,0.0,0.0,0.0,0.0,0.0,0.0,0.0,0.2503,0.2411,0.2135,0.0,0.186,0.0,0.0,0.0,0.0,0.0,0.0,0.0,0.0,0.0,0.0,0.0,0.0,0.0,0.0,0.0,0.0,0.0,0.0,0.0,0.0,0.0,0.0,0.0,0.0,0.0,0.0,0.0,0.0,0.0,0.0,0.0,0.0,0.0,0.0,0.0,0.0,0.0,0.0,0.0,0.0,0.0,0.0,0.0,0.0,0.0,0.0,0.0,0.0,0.0,0.0,0.0,0.0,0.0,0.0,0.0,0.0,0.0,0.0,0.0,0.0,0.0,0.0,0.0,0.0,0.0,0.0,0.0,0.0,0.0,0.0,0.0,0.0,0.0,0.0,0.0,0.0,0.0,0.0,0.0,0.0,0.0,0.0,0.0,0.0,0.0,0.0,0.0,0.0,0.0,0.0,0.0,0.0,0.0,0.0,0.0,0.0,0.0,0.0,0.0,0.0,0.0,0.0,0.0,0.0,0.0,0.0,0.0,0.0,0.0,0.0,0.2216,0.2141,0.2031,0.1857,0.0,0.0,0.0,0.0,0.0,0.0,0.0,0.0,0.0,0.0,0.0,0.0,0.0,0.0,0.0,0.0,0.0,0.0,0.0,0.0,0.0,0.0,0.0,0.0,0.0,0.0,0.0,0.0,0.0,0.0,0.0,0.0,0.0,0.0,0.0,0.0,0.0,0.0,0.0,0.0,0.0,0.0,0.0,0.0,0.0,0.0,0.0,0.0,0.0,0.0,0.0,0.0,0.0,0.0,0.0,0.0,0.0,0.0,0.0,0.0,0.0,0.0,0.0,0.0,0.0,0.0,0.0,0.0,0.0,0.0,0.0,0.0,0.0,0.0,0.0,0.0,0.0,0.0,0.0,0.0,0.0,0.0,0.0,0.0,0.0,0.0,0.0,0.0,0.0,0.0,0.0,0.0,0.0,0.0,0.0,0.0,0.0,0.0,0.0,0.0,0.0,0.0,0.0,0.0,0.0,0.0,0.0,0.0,0.0,0.0,0.1966,0.1973,0.1963,0.1913,0.1861,0.1809,0.0,0.0,0.0,0.0,0.0,0.0,0.0,0.0,0.0,0.0,0.0,0.0,0.0,0.0,0.0,0.0,0.0,0.0,0.0,0.0,0.0,0.0,0.0,0.0,0.0,0.0,0.0,0.0,0.0,0.0,0.0,0.0,0.0,0.0,0.0,0.0,0.0,0.0,0.0,0.0,0.0,0.0,0.0,0.0,0.0,0.0,0.0,0.0,0.0,0.0,0.0,0.0,0.0,0.0,0.0,0.0,0.0,0.0,0.0,0.0,0.0,0.0,0.0,0.0,0.0,0.0,0.0,0.0,0.0,0.0,0.0,0.0,0.0,0.0,0.0,0.0,0.0,0.0,0.0,0.0,0.0,0.0,0.0,0.0,0.0,0.0,0.0,0.0,0.0,0.0,0.0,0.0,0.0,0.0,0.0,0.0,0.0,0.0,0.0,0.0,0.0,0.0,0.0,0.0,0.0,0.0,0.0,0.0,0.0,0.1975,0.1962,0.1934,0.1903,0.187,0.0,0.0,0.0,0.0,0.0,0.0,0.0,0.0,0.0,0.0,0.0,0.0,0.0,0.0,0.0,0.0,0.0,0.0,0.0,0.0,0.0,0.0,0.0,0.0,0.0,0.0,0.0,0.0,0.0,0.0,0.0,0.0,0.0,0.0,0.0,0.0,0.0,0.0,0.0,0.0,0.0,0.0,0.0,0.0,0.0,0.0,0.0,0.0,0.0,0.0,0.0,0.0,0.0,0.0,0.0,0.0,0.0,0.0,0.0,0.0,0.0,0.0,0.0,0.0,0.0,0.0,0.0,0.0,0.0,0.0,0.0,0.0,0.0,0.0,0.0,0.0,0.0,0.0,0.0,0.0,0.0,0.0,0.0,0.0,0.0,0.0,0.0,0.0,0.0,0.0,0.0,0.0,0.0,0.0,0.0,0.0,0.0,0.0,0.0,0.0,0.0,0.0,0.0,0.0,0.0,0.0,0.0,0.0,0.0,0.2342,0.2531,0.2511,0.2232,0.2219,0.2126,0.0,0.0,0.0,0.0,0.0,0.0,0.0,0.0,0.0,0.0,0.0,0.0,0.0,0.0,0.0,0.0,0.0,0.0,0.0,0.0,0.0,0.0,0.0,0.0,0.0,0.0,0.0,0.0,0.0,0.0,0.0,0.0,0.0,0.0,0.0,0.0,0.0,0.0,0.0,0.0,0.0,0.0,0.0,0.0,0.0,0.0,0.0,0.0,0.0,0.0,0.0,0.0,0.0,0.0,0.0,0.0,0.0,0.0,0.0,0.0,0.0,0.0,0.0,0.0,0.0,0.0,0.0,0.0,0.0,0.0,0.0,0.0,0.0,0.0,0.0,0.0,0.0,0.0,0.0,0.0,0.0,0.0,0.0,0.0,0.0,0.0,0.0,0.0,0.0,0.0,0.0,0.0,0.0,0.0,0.0,0.0,0.0,0.0,0.0,0.0,0.0,0.0,0.0,0.0,0.0,0.0,0.0,0.0,0.0,0.265,0.0,0.2885,0.2612,0.2476,0.2268,0.0,0.0,0.0,0.0,0.0,0.0,0.0,0.0,0.0,0.0,0.0,0.0,0.0,0.0,0.0,0.0,0.0,0.0,0.0,0.0,0.0,0.0,0.0,0.0,0.0,0.0,0.0,0.0,0.0,0.0,0.0,0.0,0.0,0.0,0.0,0.0,0.0,0.0,0.0,0.0,0.0,0.0,0.0,0.0,0.0,0.0,0.0,0.0,0.0,0.0,0.0,0.0,0.0,0.0,0.0,0.0,0.0,0.0,0.0,0.0,0.0,0.0,0.0,0.0,0.0,0.0,0.0,0.0,0.0,0.0,0.0,0.0,0.0,0.0,0.0,0.0,0.0,0.0,0.0,0.0,0.0,0.0,0.0,0.0,0.0,0.0,0.0,0.0,0.0,0.0,0.0,0.0,0.0,0.0,0.0,0.0,0.0,0.0,0.0,0.0,0.0,0.0,0.0,0.0,0.0,0.0,0.0,0.0,0.2714,0.3022,0.3022,0.3022,0.3022,0.2614,0.2411,0.0,0.0,0.0,0.0,0.0,0.0,0.0,0.0,0.0,0.0,0.0,0.0,0.0,0.0,0.0,0.0,0.0,0.0,0.0,0.0,0.0,0.0,0.0,0.0,0.0,0.0,0.0,0.0,0.0,0.0,0.0,0.0,0.0,0.0,0.0,0.0,0.0,0.0,0.0,0.0,0.0,0.0,0.0,0.0,0.0,0.0,0.0,0.0,0.0,0.0,0.0,0.0,0.0,0.0,0.0,0.0,0.0,0.0,0.0,0.0,0.0,0.0,0.0,0.0,0.0,0.0,0.0,0.0,0.0,0.0,0.0,0.0,0.0,0.0,0.0,0.0,0.0,0.0,0.0,0.0,0.0,0.0,0.0,0.0,0.0,0.0,0.0,0.0,0.0,0.0,0.0,0.0,0.0,0.0,0.0,0.0,0.0,0.0,0.0,0.0,0.0,0.0,0.0,0.0,0.0,0.0,0.0,0.0,0.0,0.3643,0.364,0.3517,0.3332,0.3009,0.2682,0.0,0.0,0.0,0.0,0.0,0.0,0.0,0.0,0.0,0.0,0.0,0.0,0.0,0.0,0.0,0.0,0.0,0.0,0.0,0.0,0.0,0.0,0.0,0.0,0.0,0.0,0.0,0.0,0.0,0.0,0.0,0.0,0.0,0.0,0.0,0.0,0.0,0.0,0.0,0.0,0.0,0.0,0.0,0.0,0.0,0.0,0.0,0.0,0.0,0.0,0.0,0.0,0.0,0.0,0.0,0.0,0.0,0.0,0.0,0.0,0.0,0.0,0.0,0.0,0.0,0.0,0.0,0.0,0.0,0.0,0.0,0.0,0.0,0.0,0.0,0.0,0.0,0.0,0.0,0.0,0.0,0.0,0.0,0.0,0.0,0.0,0.0,0.0,0.0,0.0,0.0,0.0,0.0,0.0,0.0,0.0,0.0,0.0,0.0,0.0,0.0,0.0,0.0,0.0,0.0,0.0,0.0,0.0,0.0,0.3954,0.3954,0.3891,0.3701,0.3369,0.3034,0.2699,0.0,0.0,0.0,0.0,0.0,0.0,0.0,0.0,0.0,0.0,0.0,0.0,0.0,0.0,0.0,0.0,0.0,0.0,0.0,0.0,0.0,0.0,0.0,0.0,0.0,0.0,0.0,0.0,0.0,0.0,0.0,0.0,0.0,0.0,0.0,0.0,0.0,0.0,0.0,0.0,0.0,0.0,0.0,0.0,0.0,0.0,0.0,0.0,0.0,0.0,0.0,0.0,0.0,0.0,0.0,0.0,0.0,0.0,0.0,0.0,0.0,0.0,0.0,0.0,0.0,0.0,0.0,0.0,0.0,0.0,0.0,0.0,0.0,0.0,0.0,0.0,0.0,0.0,0.0,0.0,0.0,0.0,0.0,0.0,0.0,0.0,0.0,0.0,0.0,0.0,0.0,0.0,0.0,0.0,0.0,0.0,0.0,0.0,0.0,0.0,0.0,0.0,0.0,0.0,0.0,0.0,0.0,0.0,0.4064,0.4136,0.4136,0.4058,0.369,0.3413,0.0,0.0,0.0,0.0,0.0,0.0,0.0,0.0,0.0,0.0,0.0,0.0,0.0,0.0,0.0,0.0,0.0,0.0,0.0,0.0,0.0,0.0,0.0,0.0,0.0,0.0,0.0,0.0,0.0,0.0,0.0,0.0,0.0,0.0,0.0,0.0,0.0,0.0,0.0,0.0,0.0,0.0,0.0,0.0,0.0,0.0,0.0,0.0,0.0,0.0,0.0,0.0,0.0,0.0,0.0,0.0,0.0,0.0,0.0,0.0,0.0,0.0,0.0,0.0,0.0,0.0,0.0,0.0,0.0,0.0,0.0,0.0,0.0,0.0,0.0,0.0,0.0,0.0,0.0,0.0,0.0,0.0,0.0,0.0,0.0,0.0,0.0,0.0,0.0,0.0,0.0,0.0,0.0,0.0,0.0,0.0,0.0,0.0,0.0,0.0,0.0,0.0,0.0,0.0,0.0,0.0,0.0,0.0,0.0,0.4194,0.4281,0.4262,0.4066,0.3789,0.3445,0.0,0.0,0.0,0.0,0.0,0.0,0.0,0.0,0.0,0.0,0.0,0.0,0.0,0.0,0.0,0.0,0.0,0.0,0.0,0.0,0.0,0.0,0.0,0.0,0.0,0.0,0.0,0.0,0.0,0.0,0.0,0.0,0.0,0.0,0.0,0.0,0.0,0.0,0.0,0.0,0.0,0.0,0.0,0.0,0.0,0.0,0.0,0.0,0.0,0.0,0.0,0.0,0.0,0.0,0.0,0.0,0.0,0.0,0.0,0.0,0.0,0.0,0.0,0.0,0.0,0.0,0.0,0.0,0.0,0.0,0.0,0.0,0.0,0.0,0.0,0.0,0.0,0.0,0.0,0.0,0.0,0.0,0.0,0.0,0.0,0.0,0.0,0.0,0.0,0.0,0.0,0.0,0.0,0.0,0.0,0.0,0.0,0.0,0.0,0.0,0.0,0.0,0.0,0.0,0.0,0.0,0.0,0.0,0.4207,0.4292,0.4362,0.436,0.4278,0.4028,0.3653,0.0,0.0,0.0,0.0,0.0,0.0,0.0,0.0,0.0,0.0,0.0,0.0,0.0,0.0,0.0,0.0,0.0,0.0,0.0,0.0,0.0,0.0,0.0,0.0,0.0,0.0,0.0,0.0,0.0,0.0,0.0,0.0,0.0,0.0,0.0,0.0,0.0,0.0,0.0,0.0,0.0,0.0,0.0,0.0,0.0,0.0,0.0,0.0,0.0,0.0,0.0,0.0,0.0,0.0,0.0,0.0,0.0,0.0,0.0,0.0,0.0,0.0,0.0,0.0,0.0,0.0,0.0,0.0,0.0,0.0,0.0,0.0,0.0,0.0,0.0,0.0,0.0,0.0,0.0,0.0,0.0,0.0,0.0,0.0,0.0,0.0,0.0,0.0,0.0,0.0,0.0,0.0,0.0,0.0,0.0,0.0,0.0,0.0,0.0,0.0,0.0,0.0,0.0,0.0,0.0,0.0,0.0,0.0,0.4283,0.4395,0.4412,0.4439,0.4477,0.4373,0.3954,0.0,0.0,0.0,0.0,0.0,0.0,0.0,0.0,0.0,0.0,0.0,0.0,0.0,0.0,0.0,0.0,0.0,0.0,0.0,0.0,0.0,0.0,0.0,0.0,0.0,0.0,0.0,0.0,0.0,0.0,0.0,0.0,0.0,0.0,0.0,0.0,0.0,0.0,0.0,0.0,0.0,0.0,0.0,0.0,0.0,0.0,0.0,0.0,0.0,0.0,0.0,0.0,0.0,0.0,0.0,0.0,0.0,0.0,0.0,0.0,0.0,0.0,0.0,0.0,0.0,0.0,0.0,0.0,0.0,0.0,0.0,0.0,0.0,0.0,0.0,0.0,0.0,0.0,0.0,0.0,0.0,0.0,0.0,0.0,0.0,0.0,0.0,0.0,0.0,0.0,0.0,0.0,0.0,0.0,0.0,0.0,0.0,0.0,0.0,0.0,0.0,0.0,0.0,0.0,0.0,0.0,0.0,0.0,0.4324,0.4398,0.4488,0.4518,0.4482,0.4414,0.401,0.0,0.0,0.0,0.0,0.0,0.0,0.0,0.0,0.0,0.0,0.0,0.0,0.0,0.0,0.0,0.0,0.0,0.0,0.0,0.0,0.0,0.0,0.0,0.0,0.0,0.0,0.0,0.0,0.0,0.0,0.0,0.0,0.0,0.0,0.0,0.0,0.0,0.0,0.0,0.0,0.0,0.0,0.0,0.0,0.0,0.0,0.0,0.0,0.217,0.0,0.0,0.0,0.0,0.0,0.0,0.0,0.0,0.0,0.0,0.0,0.0,0.0,0.0,0.0,0.0,0.0,0.0,0.0,0.0,0.0,0.0,0.0,0.0,0.0,0.0,0.0,0.0,0.0,0.0,0.0,0.0,0.0,0.0,0.0,0.0,0.0,0.0,0.0,0.0,0.0,0.0,0.0,0.0,0.0,0.0,0.0,0.0,0.0,0.0,0.0,0.0,0.0,0.0,0.0,0.0,0.0,0.0,0.0,0.4392,0.4477,0.4542,0.4644,0.4567,0.4485,0.4065,0.0,0.0,0.0,0.0,0.0,0.0,0.0,0.0,0.0,0.0,0.0,0.0,0.0,0.0,0.0,0.0,0.0,0.0,0.0,0.0,0.0,0.0,0.0,0.0,0.0,0.0,0.0,0.0,0.0,0.0,0.0,0.0,0.0,0.0,0.0,0.0,0.0,0.0,0.0,0.0,0.0,0.0,0.0,0.0,0.0,0.0,0.0,0.0,0.0,0.0,0.0,0.0,0.0,0.0,0.0,0.0,0.0,0.0,0.0,0.0,0.0,0.0,0.0,0.0,0.0,0.0,0.0,0.0,0.0,0.0,0.0,0.0,0.0,0.0,0.0,0.0,0.0,0.0,0.0,0.0,0.0,0.0,0.0,0.0,0.0,0.0,0.0,0.0,0.0,0.0,0.0,0.0,0.0,0.0,0.0,0.0,0.0,0.0,0.0,0.0,0.0,0.0,0.0,0.0,0.0,0.0,0.0,0.4343,0.4469,0.458,0.4586,0.4616,0.4673,0.4551,0.411,0.3377,0.0,0.0,0.0,0.0,0.0,0.0,0.0,0.0,0.0,0.0,0.0,0.0,0.0,0.0,0.0,0.0,0.0,0.0,0.0,0.0,0.0,0.0,0.0,0.0,0.0,0.0,0.0,0.0,0.0,0.0,0.0,0.0,0.0,0.0,0.0,0.0,0.0,0.0,0.2228,0.2188,0.0,0.0,0.0,0.0,0.0,0.0,0.0,0.0,0.2182,0.0,0.0,0.0,0.0,0.0,0.0,0.0,0.0,0.0,0.0,0.0,0.0,0.0,0.0,0.0,0.0,0.0,0.0,0.0,0.0,0.0,0.0,0.0,0.0,0.0,0.0,0.0,0.0,0.0,0.0,0.0,0.0,0.0,0.0,0.0,0.0,0.0,0.0,0.0,0.0,0.0,0.0,0.0,0.0,0.0,0.0,0.0,0.0,0.0,0.0,0.0,0.0,0.0,0.0,0.0,0.0,0.4215,0.4382,0.4529,0.4718,0.4649,0.4679,0.4807,0.4572,0.4128,0.342,0.0,0.0,0.0,0.0,0.0,0.0,0.0,0.0,0.0,0.0,0.0,0.0,0.0,0.0,0.0,0.0,0.0,0.0,0.0,0.0,0.0,0.0,0.0,0.0,0.0,0.0,0.0,0.0,0.0,0.0,0.0,0.0,0.0,0.0,0.0,0.0,0.0,0.0,0.0,0.2219,0.217,0.0,0.0,0.0,0.0,0.0,0.0,0.0,0.0,0.2282,0.0,0.0,0.0,0.0,0.0,0.0,0.0,0.0,0.0,0.0,0.0,0.0,0.0,0.0,0.0,0.0,0.0,0.0,0.0,0.0,0.0,0.0,0.0,0.0,0.0,0.0,0.0,0.0,0.0,0.0,0.0,0.0,0.0,0.0,0.0,0.0,0.0,0.0,0.0,0.0,0.0,0.0,0.0,0.0,0.0,0.0,0.0,0.0,0.0,0.0,0.0,0.0,0.0,0.0,0.0,0.4311,0.4455,0.466,0.4709,0.4741,0.4758,0.4826,0.4608,0.4163,0.0,0.0,0.0,0.0,0.0,0.0,0.0,0.0,0.0,0.0,0.0,0.0,0.0,0.0,0.0,0.0,0.0,0.0,0.0,0.0,0.0,0.0,0.0,0.0,0.0,0.0,0.0,0.0,0.0,0.0,0.0,0.0,0.0,0.0,0.0,0.0,0.0,0.0,0.0,0.0,0.2259,0.2274,0.2289,0.0,0.0,0.0,0.0,0.0,0.0,0.2337,0.2331,0.0,0.0,0.0,0.0,0.0,0.0,0.0,0.0,0.0,0.0,0.0,0.0,0.0,0.0,0.0,0.0,0.0,0.0,0.0,0.0,0.0,0.0,0.0,0.0,0.0,0.0,0.0,0.0,0.0,0.0,0.0,0.0,0.0,0.0,0.0,0.0,0.0,0.0,0.0,0.0,0.0,0.0,0.0,0.0,0.0,0.0,0.0,0.0,0.0,0.0,0.0,0.0,0.0,0.0,0.0,0.4395,0.4526,0.4651,0.4768,0.482,0.4823,0.4771,0.4571,0.412,0.0,0.0,0.0,0.0,0.0,0.0,0.0,0.0,0.0,0.0,0.0,0.0,0.0,0.0,0.0,0.0,0.0,0.0,0.0,0.0,0.0,0.0,0.0,0.0,0.0,0.0,0.0,0.0,0.0,0.0,0.0,0.0,0.0,0.0,0.0,0.0,0.0,0.0,0.0,0.0,0.0,0.2316,0.2338,0.2348,0.0,0.0,0.0,0.0,0.2387,0.2387,0.0,0.0,0.0,0.0,0.0,0.0,0.0,0.0,0.0,0.0,0.0,0.0,0.0,0.0,0.0,0.0,0.0,0.0,0.0,0.0,0.0,0.0,0.0,0.0,0.0,0.0,0.0,0.0,0.0,0.0,0.0,0.0,0.0,0.0,0.0,0.0,0.0,0.0,0.0,0.0,0.0,0.0,0.0,0.0,0.0,0.0,0.0,0.0,0.0,0.0,0.0,0.0,0.0,0.0,0.0,0.0,0.4401,0.4567,0.4714,0.4828,0.4767,0.4767,0.4758,0.4304,0.3838,0.0,0.0,0.0,0.0,0.0,0.0,0.0,0.0,0.0,0.0,0.0,0.0,0.0,0.0,0.0,0.0,0.0,0.0,0.0,0.0,0.0,0.0,0.0,0.0,0.0,0.0,0.0,0.0,0.0,0.0,0.0,0.0,0.0,0.0,0.0,0.0,0.0,0.0,0.0,0.0,0.0,0.2369,0.2372,0.2395,0.2414,0.0,0.0,0.2418,0.2418,0.2418,0.0,0.0,0.0,0.0,0.0,0.0,0.0,0.0,0.0,0.0,0.0,0.0,0.0,0.0,0.0,0.0,0.0,0.0,0.0,0.0,0.0,0.0,0.0,0.0,0.0,0.0,0.0,0.0,0.0,0.0,0.0,0.0,0.0,0.0,0.0,0.0,0.0,0.0,0.0,0.0,0.0,0.0,0.0,0.0,0.0,0.0,0.0,0.0,0.0,0.0,0.0,0.0,0.0,0.0,0.0,0.4308,0.4496,0.4716,0.4758,0.4769,0.491,0.4897,0.4796,0.4349,0.3896,0.0,0.0,0.0,0.0,0.0,0.0,0.0,0.0,0.0,0.0,0.0,0.0,0.0,0.0,0.0,0.0,0.0,0.0,0.0,0.0,0.0,0.0,0.0,0.0,0.0,0.0,0.0,0.0,0.0,0.0,0.0,0.0,0.0,0.0,0.0,0.0,0.0,0.0,0.0,0.0,0.0,0.0,0.2378,0.2405,0.0,0.0,0.0,0.2448,0.245,0.0,0.0,0.0,0.0,0.0,0.0,0.0,0.0,0.0,0.0,0.0,0.0,0.0,0.0,0.0,0.0,0.0,0.0,0.0,0.0,0.0,0.0,0.0,0.0,0.0,0.0,0.0,0.0,0.0,0.0,0.0,0.0,0.0,0.0,0.0,0.0,0.0,0.0,0.0,0.0,0.0,0.0,0.0,0.0,0.0,0.0,0.0,0.0,0.0,0.0,0.0,0.0,0.0,0.0,0.0,0.0,0.0,0.457,0.4768,0.4785,0.4769,0.4932,0.4836,0.4633,0.4228,0.0,0.0,0.0,0.0,0.0,0.0,0.0,0.0,0.0,0.0,0.0,0.0,0.0,0.0,0.0,0.0,0.0,0.0,0.0,0.0,0.0,0.0,0.0,0.0,0.0,0.0,0.0,0.2132,0.0,0.0,0.0,0.0,0.0,0.0,0.0,0.0,0.0,0.0,0.0,0.0,0.0,0.0,0.2395,0.241,0.2438,0.2469,0.0,0.0,0.2502,0.2502,0.2496,0.2473,0.0,0.0,0.0,0.0,0.0,0.0,0.0,0.0,0.0,0.0,0.0,0.0,0.0,0.0,0.0,0.0,0.0,0.0,0.0,0.0,0.0,0.0,0.0,0.0,0.0,0.0,0.0,0.0,0.0,0.0,0.0,0.0,0.0,0.0,0.0,0.0,0.0,0.0,0.0,0.0,0.0,0.0,0.0,0.0,0.0,0.0,0.0,0.0,0.0,0.0,0.0,0.0,0.0,0.0,0.0,0.4572,0.4765,0.4785,0.4769,0.4777,0.4623,0.4233,0.3771,0.3356,0.0,0.0,0.0,0.0,0.0,0.0,0.0,0.0,0.0,0.0,0.0,0.0,0.0,0.0,0.0,0.0,0.0,0.0,0.0,0.0,0.0,0.0,0.0,0.0,0.0,0.0,0.0,0.0,0.0,0.0,0.0,0.0,0.0,0.0,0.0,0.0,0.0,0.0,0.0,0.0,0.0,0.244,0.2497,0.2532,0.256,0.0,0.0,0.2593,0.2592,0.257,0.2542,0.251,0.0,0.0,0.0,0.0,0.0,0.0,0.0,0.0,0.0,0.0,0.0,0.0,0.0,0.0,0.0,0.0,0.0,0.0,0.0,0.0,0.0,0.0,0.0,0.0,0.0,0.0,0.0,0.0,0.0,0.0,0.0,0.0,0.0,0.0,0.0,0.0,0.0,0.0,0.0,0.0,0.0,0.0,0.0,0.0,0.0,0.0,0.0,0.0,0.0,0.0,0.0,0.0,0.0,0.4493,0.4684,0.4768,0.4858,0.4871,0.4645,0.4475,0.4288,0.3643,0.3138,0.0,0.0,0.0,0.0,0.0,0.0,0.0,0.0,0.0,0.0,0.0,0.0,0.0,0.0,0.0,0.0,0.0,0.0,0.0,0.0,0.0,0.0,0.0,0.0,0.0,0.0,0.0,0.0,0.2255,0.2273,0.2274,0.0,0.0,0.0,0.0,0.0,0.0,0.0,0.0,0.0,0.0,0.2488,0.2511,0.2555,0.0,0.0,0.2601,0.2601,0.2601,0.2593,0.2575,0.2547,0.2533,0.0,0.0,0.0,0.0,0.0,0.0,0.0,0.0,0.0,0.0,0.0,0.0,0.0,0.0,0.0,0.0,0.0,0.0,0.0,0.0,0.0,0.0,0.0,0.0,0.0,0.0,0.0,0.0,0.0,0.0,0.0,0.0,0.0,0.0,0.0,0.0,0.0,0.0,0.0,0.0,0.0,0.0,0.0,0.0,0.0,0.0,0.0,0.0,0.0,0.0,0.0,0.0,0.4551,0.4752,0.4831,0.4844,0.4863,0.4554,0.4231,0.3899,0.3407,0.2977,0.0,0.0,0.0,0.0,0.0,0.0,0.0,0.0,0.0,0.0,0.0,0.0,0.0,0.0,0.0,0.0,0.0,0.0,0.0,0.0,0.0,0.0,0.0,0.0,0.0,0.0,0.0,0.0,0.2285,0.2304,0.2303,0.0,0.0,0.0,0.0,0.0,0.0,0.0,0.0,0.0,0.0,0.2534,0.2551,0.2597,0.2631,0.2641,0.265,0.2656,0.2656,0.2649,0.2632,0.2604,0.0,0.0,0.0,0.0,0.0,0.0,0.0,0.0,0.0,0.0,0.0,0.0,0.0,0.0,0.0,0.0,0.0,0.0,0.0,0.0,0.0,0.0,0.0,0.0,0.0,0.0,0.0,0.0,0.0,0.0,0.3011,0.0,0.0,0.0,0.0,0.0,0.0,0.0,0.0,0.0,0.0,0.0,0.0,0.0,0.0,0.0,0.0,0.0,0.0,0.0,0.0,0.0,0.0,0.4632,0.4758,0.4877,0.4732,0.44,0.44,0.4029,0.3191,0.3127,0.2948,0.2507,0.0,0.0,0.0,0.0,0.0,0.0,0.0,0.0,0.0,0.0,0.0,0.0,0.0,0.0,0.0,0.0,0.0,0.0,0.0,0.0,0.0,0.0,0.0,0.0,0.0,0.0,0.229,0.2315,0.2331,0.0,0.0,0.0,0.0,0.0,0.0,0.0,0.0,0.0,0.0,0.254,0.2581,0.2635,0.2671,0.2701,0.2729,0.2758,0.2778,0.2776,0.2752,0.2725,0.0,0.0,0.0,0.0,0.0,0.0,0.0,0.0,0.0,0.0,0.0,0.0,0.0,0.0,0.0,0.0,0.0,0.0,0.0,0.0,0.0,0.0,0.0,0.0,0.0,0.0,0.0,0.3055,0.3183,0.0,0.0,0.0,0.0,0.0,0.0,0.0,0.0,0.0,0.0,0.0,0.4455,0.4515,0.0,0.0,0.0,0.0,0.0,0.0,0.0,0.0,0.0,0.0,0.0,0.0,0.4733,0.4924,0.4663,0.451,0.4548,0.3955,0.3476,0.327,0.2982,0.2703,0.2515,0.0,0.0,0.0,0.0,0.0,0.0,0.0,0.0,0.0,0.0,0.0,0.0,0.0,0.0,0.0,0.0,0.0,0.0,0.0,0.0,0.0,0.0,0.0,0.0,0.0,0.2349,0.0,0.0,0.0,0.0,0.0,0.0,0.0,0.0,0.0,0.0,0.0,0.2499,0.2538,0.2604,0.2654,0.2675,0.2721,0.2757,0.0,0.0,0.0,0.0,0.0,0.0,0.0,0.0,0.0,0.0,0.0,0.0,0.0,0.0,0.2574,0.2485,0.2469,0.2388,0.1995,0.0,0.0,0.0,0.0,0.0,0.0,0.0,0.0,0.0,0.0,0.0,0.0,0.0,0.0,0.3503,0.0,0.362,0.0,0.0,0.0,0.0,0.0,0.0,0.0,0.0,0.4591,0.4649,0.467,0.473,0.4768,0.0,0.4788,0.4679,0.0,0.0,0.0,0.0,0.0,0.0,0.0,0.0,0.4845,0.4936,0.4688,0.4448,0.4377,0.3628,0.3221,0.3078,0.2798,0.259,0.2532,0.2481,0.2427,0.0,0.0,0.0,0.0,0.0,0.0,0.0,0.0,0.0,0.0,0.0,0.0,0.0,0.0,0.0,0.0,0.0,0.0,0.0,0.0,0.0,0.0,0.0,0.2394,0.0,0.0,0.0,0.0,0.0,0.0,0.0,0.0,0.0,0.2484,0.2529,0.2571,0.2602,0.2675,0.2724,0.2724,0.0,0.0,0.0,0.0,0.0,0.0,0.0,0.2811,0.28,0.2799,0.2789,0.2759,0.2746,0.274,0.274,0.0,0.0,0.2598,0.2416,0.2255,0.1932,0.1625,0.1314,0.1075,0.0839,0.0764,0.0,0.0,0.0,0.0,0.0,0.0,0.0,0.0,0.3932,0.4143,0.0,0.4433,0.0,0.0,0.0,0.0,0.0,0.4548,0.0,0.0,0.4815,0.4798,0.478,0.4839,0.4973,0.5025,0.5022,0.4992,0.4927,0.4763,0.0,0.0,0.0,0.0,0.0,0.0,0.4893,0.4957,0.4712,0.4383,0.3896,0.3519,0.3116,0.2779,0.2667,0.2623,0.2567,0.2536,0.2489,0.2429,0.2371,0.0,0.0,0.0,0.0,0.0,0.0,0.0,0.0,0.0,0.0,0.0,0.0,0.0,0.0,0.0,0.0,0.0,0.0,0.0,0.0,0.2428,0.0,0.0,0.0,0.0,0.0,0.0,0.0,0.0,0.0,0.0,0.2526,0.2596,0.266,0.2691,0.0,0.0,0.0,0.0,0.2831,0.2833,0.2859,0.2876,0.2876,0.2876,0.2867,0.2838,0.0,0.0,0.2795,0.2812,0.2833,0.2744,0.2765,0.284,0.2639,0.2279,0.2024,0.1939,0.1191,0.06,0.0515,0.0349,0.0,0.2467,0.0,0.0,0.0,0.0,0.3754,0.4075,0.4472,0.4514,0.4606,0.4673,0.4613,0.0,0.0,0.0,0.0,0.0,0.0,0.476,0.4864,0.4962,0.5019,0.5038,0.5098,0.5136,0.515,0.515,0.512,0.506,0.5008,0.494,0.4861,0.0,0.0,0.0,0.0,0.491,0.472,0.4281,0.392,0.3558,0.317,0.293,0.2757,0.2728,0.2694,0.2656,0.2626,0.2572,0.2492,0.2472,0.0,0.0,0.0,0.0,0.0,0.0,0.0,0.0,0.0,0.0,0.0,0.0,0.0,0.0,0.0,0.0,0.0,0.0,0.0,0.2517,0.2538,0.2542,0.0,0.0,0.0,0.0,0.0,0.0,0.0,0.0,0.0,0.2671,0.2676,0.2699,0.0,0.0,0.2823,0.2845,0.2872,0.2898,0.292,0.2931,0.0,0.2936,0.2936,0.2934,0.2924,0.2923,0.292,0.2912,0.2917,0.2832,0.2466,0.238,0.2284,0.19,0.1959,0.1853,0.1235,0.0889,0.0537,0.0269,0.0091,0.0,0.2678,0.3108,0.3108,0.3471,0.4054,0.4231,0.4483,0.4739,0.4774,0.479,0.4788,0.4752,0.4717,0.4679,0.4643,0.0,0.0,0.0,0.4877,0.4973,0.5044,0.5087,0.5115,0.5175,0.5215,0.524,0.5264,0.527,0.5256,0.5092,0.4905,0.4857,0.0,0.0,0.4823,0.4813,0.4717,0.4352,0.396,0.3654,0.3445,0.3034,0.2784,0.2782,0.2765,0.2747,0.2729,0.2688,0.2641,0.2587,0.2551,0.2493,0.0,0.0,0.0,0.0,0.0,0.0,0.0,0.0,0.0,0.0,0.0,0.2348,0.0,0.0,0.0,0.0,0.2504,0.2536,0.2572,0.2592,0.0,0.0,0.0,0.0,0.0,0.0,0.0,0.265,0.2698,0.2744,0.2785,0.2785,0.2791,0.2816,0.2845,0.2874,0.2905,0.0,0.2941,0.2958,0.2962,0.2962,0.2962,0.2962,0.2965,0.2698,0.27,0.2611,0.2434,0.2349,0.2261,0.1979,0.189,0.18,0.1232,0.1408,0.1388,0.0821,0.0548,0.0275,0.0,0.0,0.0,0.2886,0.3567,0.3641,0.3866,0.4391,0.4699,0.4853,0.4777,0.4783,0.4785,0.4858,0.4856,0.4775,0.4769,0.4772,0.0,0.4937,0.4946,0.4903,0.5036,0.5044,0.5079,0.5136,0.5196,0.5254,0.5311,0.5368,0.5341,0.5386,0.4959,0.4724,0.4759,0.489,0.4793,0.4497,0.4539,0.4356,0.3936,0.3633,0.3483,0.3401,0.3052,0.2791,0.2791,0.2788,0.2787,0.2785,0.2731,0.2698,0.269,0.2615,0.2555,0.2519,0.0,0.0,0.0,0.0,0.0,0.0,0.0,0.0,0.0,0.0,0.0,0.0,0.0,0.0,0.0,0.2594,0.0,0.2616,0.2616,0.0,0.0,0.0,0.2627,0.2654,0.266,0.2684,0.2656,0.0,0.0,0.2874,0.2904,0.2912,0.289,0.2906,0.2931,0.2961,0.3059,0.2969,0.2977,0.2976,0.2977,0.2895,0.2799,0.2621,0.2264,0.2169,0.1988,0.1623,0.1539,0.1549,0.1451,0.1464,0.1275,0.0785,0.0783,0.068,0.0656,0.0279,0.0,0.0,0.0,0.0,0.2959,0.3735,0.3735,0.4081,0.4699,0.482,0.4916,0.4918,0.4882,0.4978,0.4976,0.4935,0.4888,0.4772,0.4772,0.4804,0.494,0.503,0.5101,0.5164,0.5256,0.5305,0.5322,0.5382,0.5417,0.5433,0.5065,0.4989,0.4962,0.4447,0.4178,0.4153,0.4174,0.4187,0.4188,0.417,0.393,0.3639,0.3474,0.3333,0.3029,0.2941,0.2852,0.2852,0.283,0.2818,0.2818,0.2781,0.274,0.2695,0.2673,0.2627,0.2553,0.2519,0.0,0.0,0.0,0.0,0.0,0.0,0.0,0.0,0.0,0.2481,0.2502,0.0,0.2611,0.0,0.2675,0.2716,0.2737,0.274,0.0,0.0,0.274,0.2743,0.2751,0.2772,0.28,0.2837,0.2867,0.2898,0.2936,0.2946,0.2965,0.3003,0.2976,0.2962,0.2991,0.3017,0.3039,0.3061,0.3081,0.2905,0.2515,0.2131,0.184,0.1651,0.1651,0.1654,0.1462,0.1465,0.137,0.1076,0.098,0.0785,0.0295,0.0196,0.0,0.0194,0.0097,0.0,0.0,0.0,0.0,0.2906,0.3532,0.3689,0.4128,0.4622,0.4807,0.4973,0.4976,0.5008,0.5022,0.5019,0.4986,0.497,0.4965,0.4965,0.4997,0.5057,0.5123,0.5185,0.5245,0.5313,0.5357,0.5387,0.5277,0.5218,0.5135,0.4671,0.4518,0.4513,0.3991,0.3729,0.3812,0.3554,0.3488,0.3524,0.3648,0.3561,0.3264,0.3176,0.3106,0.2872,0.2874,0.2874,0.2874,0.2857,0.2849,0.2848,0.2819,0.2788,0.2755,0.274,0.2698,0.2623,0.2602,0.2568,0.0,0.0,0.0,0.0,0.0,0.0,0.0,0.0,0.0,0.0,0.0,0.2615,0.2725,0.277,0.2806,0.2822,0.2823,0.2823,0.2823,0.2823,0.2829,0.2841,0.2857,0.2879,0.2909,0.2938,0.2968,0.2998,0.3014,0.3039,0.3086,0.3063,0.3048,0.3065,0.3082,0.3002,0.2823,0.274,0.2553,0.2062,0.1669,0.1475,0.1283,0.1186,0.1088,0.0894,0.0796,0.0696,0.0497,0.0497,0.0398,0.0,0.0,0.0,0.0,0.0,0.0,0.0,0.0,0.0,0.2749,0.3139,0.3532,0.3925,0.4319,0.4709,0.4865,0.5022,0.5022,0.5025,0.5033,0.5033,0.5066,0.5123,0.5123,0.5155,0.5213,0.5221,0.5259,0.5316,0.5241,0.5273,0.5324,0.4869,0.4724,0.4724,0.4255,0.4034,0.4071,0.3633,0.3475,0.3505,0.3153,0.2885,0.2973,0.3187,0.3182,0.2874,0.2874,0.2874,0.2874,0.2874,0.2874,0.2874,0.2874,0.2874,0.2874,0.2849,0.2833,0.2827,0.2803,0.2763,0.2707,0.2701,0.2664,0.0,0.2579,0.0,0.0,0.0,0.0,0.0,0.0,0.0,0.0,0.2739,0.2784,0.2841,0.287,0.2885,0.2885,0.2885,0.2885,0.2885,0.2885,0.2896,0.2919,0.2926,0.2939,0.2969,0.3001,0.3031,0.3059,0.3088,0.3114,0.3141,0.3045,0.2947,0.2955,0.2952,0.2753,0.2263,0.2166,0.1877,0.1481,0.1381,0.1088,0.0797,0.0699,0.05,0.0101,0.0,0.0,0.0,0.0,0.0,0.0,0.0,0.0,0.0,0.0,0.0,0.0,0.0,0.0,0.2749,0.3139,0.3219,0.3532,0.3925,0.4003,0.4395,0.5022,0.5022,0.5049,0.5093,0.5095,0.5128,0.5185,0.5185,0.5218,0.5278,0.5327,0.5384,0.5444,0.5062,0.4915,0.4927,0.4542,0.4301,0.4305,0.3906,0.3661,0.3669,0.3248,0.2993,0.2999,0.3024,0.2945,0.2945,0.0,0.0,0.0,0.2874,0.2874,0.2874,0.2874,0.2874,0.2874,0.2874,0.0,0.2874,0.2868,0.2855,0.283,0.2823,0.0,0.0,0.0,0.0,0.0,0.0,0.0,0.0,0.0,0.0,0.0,0.2815,0.283,0.2774,0.2837,0.2897,0.2932,0.2942,0.2945,0.3037,0.2945,0.2945,0.2945,0.2945,0.2947,0.2953,0.2975,0.3002,0.3032,0.3062,0.3092,0.3119,0.3131,0.3145,0.3075,0.2782,0.2591,0.2509,0.2495,0.2285,0.1789,0.1398,0.1105,0.0904,0.0602,0.0,0.0201,0.0201,0.0,0.0,0.0,0.0,0.0,0.0,0.0,0.0,0.0,0.0,0.0,0.0,0.0,0.0,0.0,0.0,0.2592,0.0,0.2982,0.3308,0.0,0.3721,0.4053,0.4471,0.4683,0.4862,0.5155,0.5155,0.5207,0.5292,0.5292,0.5341,0.5425,0.5202,0.5161,0.513,0.4721,0.4481,0.4593,0.4085,0.3928,0.3857,0.3427,0.3263,0.328,0.3023,0.2938,0.2938,0.2954,0.2962,0.2962,0.2962,0.2947,0.2917,0.2917,0.2917,0.2917,0.2917,0.2917,0.2917,0.2917,0.0,0.0,0.0,0.0,0.0,0.0,0.0,0.0,0.0,0.0,0.2804,0.2791,0.2782,0.2784,0.2823,0.2849,0.2851,0.2919,0.2935,0.2875,0.2927,0.2966,0.2983,0.2996,0.3006,0.3006,0.31,0.3013,0.3026,0.3028,0.3035,0.305,0.3065,0.308,0.3093,0.3111,0.3131,0.3161,0.2869,0.2781,0.2805,0.2307,0.1909,0.1715,0.1811,0.1806,0.1304,0.0705,0.0404,0.0404,0.0,0.0,0.0,0.0,0.0,0.0,0.0,0.0,0.0,0.0,0.0,0.0,0.0,0.0,0.0,0.0,0.0,0.0,0.0,0.0,0.2514,0.2514,0.2834,0.3009,0.3117,0.3445,0.3713,0.3831,0.0,0.0,0.0,0.4984,0.5047,0.5145,0.5156,0.5218,0.5312,0.4881,0.4735,0.4786,0.4341,0.4097,0.4138,0.3688,0.3529,0.3472,0.3107,0.2936,0.2961,0.2966,0.2969,0.2971,0.2975,0.2977,0.2977,0.2977,0.2977,0.2977,0.3059,0.2962,0.2962,0.2962,0.2962,0.2962,0.2962,0.2949,0.2926,0.2924,0.2913,0.2891,0.2889,0.298,0.3071,0.3071,0.3071,0.3071,0.3071,0.2979,0.289,0.2921,0.2945,0.2954,0.3002,0.3013,0.2973,0.3002,0.3022,0.3022,0.305,0.3069,0.3069,0.3067,0.3078,0.3103,0.3106,0.3115,0.3138,0.3142,0.3141,0.3149,0.3052,0.2965,0.2992,0.2597,0.2303,0.2218,0.1817,0.1313,0.0808,0.1009,0.111,0.0707,0.0,0.0,0.0,0.0,0.0,0.0,0.0,0.0,0.0,0.0,0.0,0.0,0.0,0.0,0.0,0.0,0.0,0.0,0.0,0.0,0.0,0.0,0.0,0.2514,0.2517,0.2622,0.2716,0.2722,0.2746,0.3021,0.3379,0.3831,0.4003,0.4129,0.4172,0.4218,0.4267,0.4308,0.4355,0.4406,0.4318,0.4343,0.4387,0.3939,0.3692,0.3636,0.3183,0.3017,0.3045,0.3048,0.2957,0.2964,0.2988,0.3001,0.3003,0.3026,0.3134,0.3134,0.3039,0.3039,0.3039,0.2988,0.2962,0.2962,0.2962,0.2962,0.2962,0.2962,0.296,0.2956,0.2956,0.2953,0.295,0.2949,0.3133,0.3595,0.3593,0.3595,0.3595,0.3595,0.3411,0.3042,0.3096,0.3055,0.3106,0.3119,0.3089,0.301,0.3052,0.3085,0.3085,0.311,0.313,0.313,0.3127,0.3129,0.3135,0.3135,0.3138,0.3145,0.3048,0.3057,0.308,0.2784,0.2495,0.2514,0.2015,0.1713,0.1616,0.1212,0.0707,0.0303,0.0202,0.0202,0.0101,0.0101,0.0,0.0,0.0,0.0,0.0,0.0,0.0,0.0,0.0,0.0,0.0,0.0,0.0,0.0,0.0,0.0,0.0,0.0,0.0,0.0,0.0,0.0,0.2525,0.254,0.2633,0.2578,0.2609,0.2639,0.2741,0.3004,0.3155,0.349,0.3924,0.4029,0.4062,0.4107,0.415,0.4197,0.424,0.3998,0.3854,0.389,0.3438,0.3276,0.3215,0.3032,0.2957,0.2984,0.2986,0.2995,0.301,0.3025,0.3031,0.3033,0.3046,0.3148,0.3148,0.3148,0.3148,0.3146,0.3025,0.301,0.301,0.301,0.301,0.301,0.301,0.3002,0.2986,0.2986,0.3165,0.3332,0.3332,0.3618,0.4104,0.4125,0.4242,0.4267,0.4002,0.3728,0.3537,0.3278,0.3114,0.3141,0.3142,0.3126,0.3084,0.3106,0.3122,0.3122,0.3135,0.3142,0.3142,0.3142,0.3149,0.3165,0.3168,0.3174,0.3088,0.2892,0.2697,0.2708,0.2309,0.2011,0.1919,0.1515,0.1212,0.1111,0.0707,0.0,0.0,0.0,0.0,0.0,0.0,0.0,0.0,0.0,0.0,0.0,0.0,0.0,0.0,0.0,0.0,0.0,0.0,0.0,0.0,0.0,0.0,0.0,0.0,0.0,0.0,0.0,0.0,0.2538,0.256,0.2574,0.2609,0.2658,0.2683,0.2697,0.2702,0.2703,0.3129,0.3643,0.3728,0.3746,0.378,0.3916,0.3964,0.3915,0.3588,0.3441,0.3474,0.3108,0.2942,0.2969,0.2972,0.2987,0.3014,0.3017,0.3029,0.305,0.3148,0.3148,0.3148,0.3148,0.3148,0.3148,0.3148,0.3148,0.3148,0.3148,0.3148,0.3148,0.3148,0.3148,0.3148,0.3148,0.3041,0.3018,0.3017,0.3288,0.3637,0.3728,0.4026,0.4631,0.4761,0.4804,0.4849,0.4495,0.4125,0.3938,0.3447,0.3156,0.3163,0.3163,0.3064,0.3163,0.3163,0.316,0.3155,0.316,0.3164,0.3165,0.3164,0.3172,0.3195,0.3198,0.3105,0.3025,0.2626,0.2323,0.2222,0.1717,0.1414,0.1313,0.0909,0.0606,0.0606,0.0202,0.0,0.0,0.0,0.0,0.0,0.0,0.0,0.0,0.0,0.0,0.0,0.0,0.0,0.0,0.0,0.0,0.0,0.0,0.0,0.0,0.0,0.0,0.0,0.0,0.0,0.0,0.0,0.0,0.2557,0.2568,0.2616,0.2657,0.2687,0.2692,0.2709,0.2732,0.2648,0.275,0.2943,0.2948,0.2949,0.2961,0.3016,0.3058,0.3085,0.3001,0.302,0.3046,0.3049,0.2973,0.3002,0.3002,0.3018,0.3044,0.3047,0.3142,0.3148,0.3148,0.3148,0.3148,0.3148,0.3148,0.3148,0.3148,0.3148,0.3148,0.3148,0.3148,0.3148,0.3148,0.3148,0.3148,0.3148,0.3146,0.3046,0.3048,0.3332,0.3711,0.3805,0.4299,0.5204,0.5312,0.5338,0.548,0.5394,0.4923,0.4071,0.3481,0.3194,0.3219,0.3219,0.3219,0.3219,0.322,0.321,0.3193,0.3206,0.3217,0.3223,0.3219,0.3217,0.3221,0.3123,0.3027,0.2625,0.2424,0.2222,0.1717,0.1212,0.0909,0.0808,0.0404,0.0,0.0,0.0,0.0,0.0,0.0,0.0,0.0,0.0,0.0,0.0,0.0,0.0,0.0,0.0,0.0,0.0,0.0,0.0,0.0,0.0,0.0,0.0,0.0,0.0,0.0,0.0,0.0,0.0,0.0,0.0,0.2594,0.2613,0.2554,0.2675,0.2717,0.272,0.2736,0.2763,0.2765,0.2772,0.2788,0.2821,0.2818,0.2788,0.2846,0.2881,0.2894,0.2927,0.296,0.2987,0.2988,0.3005,0.3031,0.3033,0.3041,0.3051,0.3148,0.3148,0.3148,0.3148,0.3148,0.3148,0.3148,0.3148,0.3148,0.3148,0.3148,0.3148,0.3148,0.3148,0.3148,0.3148,0.3148,0.3148,0.3148,0.3148,0.3148,0.3338,0.373,0.4326,0.4618,0.5216,0.6337,0.6177,0.6111,0.6429,0.5571,0.4798,0.4014,0.3514,0.3217,0.323,0.323,0.323,0.323,0.323,0.3224,0.3217,0.3224,0.323,0.323,0.323,0.323,0.313,0.2928,0.2626,0.2424,0.1818,0.1313,0.1111,0.0606,0.0,0.0303,0.0101,0.0,0.0,0.0,0.0,0.0,0.0,0.0,0.0,0.0,0.0,0.0,0.0,0.0,0.0,0.0,0.0,0.0,0.0,0.0,0.0,0.0,0.0,0.0,0.0,0.0,0.0,0.0,0.0,0.0,0.0,0.0,0.2627,0.2565,0.2664,0.2702,0.275,0.275,0.2767,0.2793,0.2796,0.2804,0.2823,0.2867,0.2867,0.2841,0.2879,0.2902,0.2916,0.2954,0.299,0.3017,0.302,0.3031,0.3146,0.3148,0.3148,0.3148,0.3148,0.3148,0.3148,0.3148,0.3148,0.3148,0.3148,0.3148,0.3148,0.3148,0.3148,0.3148,0.3148,0.3148,0.3148,0.3148,0.3148,0.3148,0.3148,0.3148,0.3148,0.3538,0.413,0.4641,0.5139,0.5853,0.6791,0.6544,0.6575,0.6794,0.563,0.4645,0.4242,0.3635,0.323,0.323,0.323,0.323,0.323,0.323,0.323,0.323,0.323,0.323,0.323,0.323,0.3129,0.3029,0.2626,0.2323,0.1919,0.1212,0.0808,0.0606,0.0303,0.0,0.0,0.0,0.0,0.0,0.0,0.0,0.0,0.0,0.0,0.0,0.0,0.0,0.0,0.0,0.0,0.0,0.0,0.0,0.0,0.0,0.0,0.0,0.0,0.0,0.0,0.0,0.0,0.0,0.0,0.0,0.0,0.0,0.0,0.2563,0.2657,0.271,0.2751,0.2781,0.2781,0.2799,0.2827,0.2827,0.2857,0.29,0.2913,0.2928,0.2949,0.2954,0.2973,0.2995,0.3002,0.302,0.3046,0.3143,0.3145,0.3148,0.3148,0.3148,0.3148,0.3148,0.3148,0.3148,0.3148,0.3148,0.3148,0.3148,0.3148,0.3148,0.3148,0.3148,0.3148,0.3148,0.3148,0.3148,0.3148,0.3148,0.3149,0.3148,0.3148,0.3152,0.3655,0.4158,0.4645,0.5271,0.5808,0.636,0.647,0.6498,0.6447,0.545,0.4746,0.4645,0.3735,0.323,0.323,0.323,0.323,0.323,0.323,0.323,0.323,0.323,0.323,0.323,0.313,0.2928,0.2525,0.2424,0.1919,0.101,0.0909,0.0606,0.0,0.0,0.0,0.0,0.0,0.0,0.0,0.0,0.0,0.0,0.0,0.0,0.0,0.0,0.0,0.0,0.0,0.0,0.0,0.0,0.0,0.0,0.0,0.0,0.0,0.0,0.0,0.0,0.0,0.0,0.0,0.0,0.0,0.0,0.0,0.0,0.2717,0.2736,0.2758,0.2785,0.2811,0.2812,0.283,0.2859,0.2878,0.2896,0.292,0.2957,0.298,0.2991,0.3011,0.3014,0.3009,0.3026,0.3041,0.3148,0.3148,0.3148,0.3148,0.3148,0.3148,0.3148,0.3148,0.3148,0.3148,0.3148,0.3148,0.3148,0.3148,0.3148,0.3148,0.3148,0.3148,0.3148,0.3148,0.3148,0.3149,0.3148,0.3156,0.3078,0.3158,0.3158,0.3081,0.3959,0.4572,0.4727,0.5636,0.6363,0.6917,0.7026,0.6637,0.6052,0.5251,0.4645,0.4242,0.3635,0.323,0.323,0.323,0.323,0.323,0.323,0.323,0.3231,0.3231,0.323,0.3129,0.2928,0.2626,0.2323,0.1818,0.1314,0.0808,0.0505,0.0202,0.0,0.0,0.0,0.0,0.0,0.0,0.0,0.0,0.0,0.0,0.0,0.0,0.0,0.0,0.0,0.0,0.0,0.0,0.0,0.0,0.0,0.0,0.0,0.0,0.0,0.0,0.0,0.0,0.0,0.0,0.0,0.0,0.0,0.0,0.0,0.0,0.277,0.2795,0.2797,0.2815,0.2842,0.2842,0.286,0.2889,0.2908,0.2927,0.2949,0.298,0.3002,0.302,0.3033,0.3033,0.3024,0.3043,0.3148,0.3148,0.3148,0.3148,0.3148,0.3148,0.3148,0.315,0.3159,0.3066,0.3069,0.3077,0.3081,0.3082,0.3081,0.3081,0.3081,0.3081,0.3082,0.3082,0.3082,0.3082,0.3082,0.3081,0.3091,0.3106,0.3092,0.3091,0.3111,0.3998,0.4614,0.4871,0.5689,0.6417,0.6959,0.6861,0.6458,0.5753,0.4948,0.4444,0.4038,0.3534,0.323,0.323,0.323,0.323,0.323,0.323,0.323,0.3231,0.3242,0.3143,0.2842,0.2442,0.2135,0.2026,0.1317,0.071,0.0507,0.0204,0.0,0.0,0.0,0.0,0.0,0.0,0.0,0.0,0.0,0.0,0.0,0.0,0.0,0.0,0.0,0.0,0.0,0.0,0.0,0.0,0.0,0.0,0.0,0.0,0.0,0.0,0.0,0.0,0.0,0.0,0.0,0.0,0.0,0.0,0.0,0.0,0.0,0.28,0.2827,0.2829,0.2845,0.2868,0.287,0.2889,0.2908,0.2915,0.2943,0.2979,0.2975,0.2998,0.3033,0.3025,0.3025,0.3046,0.3051,0.3148,0.3148,0.3148,0.3148,0.3148,0.3148,0.315,0.3155,0.3085,0.3097,0.3099,0.3122,0.3134,0.3138,0.3134,0.3131,0.314,0.3134,0.3137,0.3135,0.3134,0.3137,0.3142,0.3135,0.3137,0.3142,0.314,0.3141,0.3145,0.3663,0.4275,0.4786,0.5322,0.5954,0.6259,0.6055,0.5652,0.545,0.4643,0.4038,0.3937,0.3433,0.323,0.3231,0.3231,0.3235,0.3236,0.3238,0.324,0.3245,0.3261,0.3071,0.2562,0.206,0.1749,0.1523,0.102,0.0512,0.0205,0.0,0.0,0.0,0.0,0.0,0.0,0.0,0.0,0.0,0.0,0.0,0.0,0.0,0.0,0.0,0.0,0.0,0.0,0.0,0.0,0.0,0.0,0.0,0.0,0.0,0.0,0.0,0.0,0.0,0.0,0.0,0.0,0.0,0.0,0.0,0.0,0.0,0.0,0.2831,0.2859,0.2859,0.2864,0.2874,0.2874,0.2879,0.289,0.2906,0.2927,0.2947,0.2979,0.3003,0.3021,0.3032,0.3043,0.3148,0.3148,0.3148,0.3149,0.3148,0.3148,0.3149,0.3149,0.3159,0.3085,0.3115,0.3129,0.3131,0.314,0.3142,0.3142,0.3144,0.3142,0.3145,0.3142,0.3142,0.3142,0.3142,0.3142,0.3142,0.3144,0.3153,0.3172,0.3174,0.3182,0.3201,0.3691,0.4095,0.422,0.4738,0.515,0.5251,0.515,0.4948,0.4543,0.424,0.3836,0.3433,0.3332,0.3232,0.3235,0.325,0.3261,0.3265,0.328,0.329,0.3291,0.3302,0.3099,0.2481,0.1967,0.1553,0.1133,0.0619,0.0,0.0,0.0,0.0,0.0,0.0,0.0,0.0,0.0,0.0,0.0,0.0,0.0,0.0,0.0,0.0,0.0,0.0,0.0,0.0,0.0,0.0,0.0,0.0,0.0,0.0,0.0,0.0,0.0,0.0,0.0,0.0,0.0,0.0,0.0,0.0,0.0,0.0,0.0,0.0,0.2856,0.2874,0.2874,0.2874,0.2874,0.2874,0.2881,0.2891,0.2908,0.2928,0.2954,0.2976,0.3003,0.3021,0.3033,0.3041,0.3146,0.3148,0.3153,0.3065,0.315,0.3153,0.3069,0.3082,0.3095,0.3116,0.3145,0.316,0.316,0.3171,0.3175,0.3175,0.3175,0.3176,0.3175,0.3175,0.3175,0.3175,0.3176,0.3175,0.3175,0.3175,0.3185,0.3202,0.3215,0.323,0.3245,0.3541,0.384,0.404,0.4544,0.4746,0.4748,0.4659,0.4365,0.4062,0.387,0.3571,0.3264,0.3268,0.3264,0.3268,0.3281,0.3292,0.3295,0.3313,0.332,0.3321,0.3124,0.2816,0.219,0.1674,0.1153,0.0524,0.0209,0.0,0.0,0.0,0.0,0.0,0.0,0.0,0.0,0.0,0.0,0.0,0.0,0.0,0.0,0.0,0.0,0.0,0.0,0.0,0.0,0.0,0.0,0.0,0.0,0.0,0.0,0.0,0.0,0.0,0.0,0.0,0.0,0.0,0.0,0.0,0.0,0.0,0.0,0.0,0.0,0.2874,0.2874,0.2874,0.2874,0.2874,0.2874,0.2886,0.2908,0.2915,0.2943,0.298,0.2977,0.2998,0.3033,0.3025,0.3032,0.305,0.3155,0.3071,0.3084,0.3077,0.3078,0.31,0.3127,0.3141,0.3149,0.3176,0.319,0.3191,0.321,0.323,0.3223,0.3221,0.3228,0.3221,0.3228,0.3223,0.3221,0.3224,0.3224,0.3228,0.323,0.3234,0.3239,0.3262,0.3276,0.328,0.3295,0.3492,0.3956,0.4359,0.4566,0.4562,0.4285,0.3995,0.3997,0.3512,0.3416,0.3318,0.331,0.3311,0.3311,0.3318,0.3324,0.3325,0.3332,0.3339,0.3233,0.2831,0.2316,0.1792,0.127,0.0744,0.0,0.0,0.0,0.0,0.0,0.0,0.0,0.0,0.0,0.0,0.0,0.0,0.0,0.0,0.0,0.0,0.0,0.0,0.0,0.0,0.0,0.0,0.0,0.0,0.0,0.0,0.0,0.0,0.0,0.0,0.0,0.0,0.0,0.0,0.0,0.0,0.0,0.0,0.0,0.0,0.0,0.0,0.2874,0.2874,0.2874,0.2874,0.2874,0.2874,0.2878,0.2887,0.2908,0.2927,0.2946,0.298,0.3003,0.302,0.3036,0.3046,0.3056,0.3076,0.3088,0.3099,0.3115,0.312,0.3135,0.3161,0.3176,0.318,0.3202,0.3219,0.322,0.3225,0.323,0.323,0.3232,0.3231,0.323,0.3232,0.323,0.323,0.3231,0.3243,0.3261,0.3264,0.3276,0.3298,0.3305,0.3309,0.331,0.3317,0.3317,0.3507,0.3607,0.371,0.3707,0.3613,0.3515,0.3518,0.342,0.3322,0.3324,0.3324,0.3322,0.3324,0.3344,0.3355,0.3356,0.3375,0.3385,0.3283,0.2867,0.2336,0.17,0.1171,0.0641,0.0,0.0,0.0,0.0,0.0,0.0,0.0,0.0,0.0,0.0,0.0,0.0,0.0,0.0,0.0,0.0,0.0,0.0,0.0,0.0,0.0,0.0,0.0,0.0,0.0,0.0,0.0,0.0,0.0,0.0,0.0,0.0,0.0,0.0,0.0,0.0,0.0,0.0,0.0,0.0,0.0,0.0,0.2874,0.2874,0.2874,0.2874,0.2874,0.2874,0.2881,0.2893,0.2908,0.2932,0.2957,0.299,0.3014,0.3029,0.3058,0.3071,0.3076,0.3103,0.3123,0.3141,0.3165,0.3172,0.3172,0.3191,0.3206,0.3208,0.3223,0.3228,0.323,0.323,0.323,0.3234,0.3243,0.325,0.3253,0.3264,0.3268,0.3269,0.3269,0.3279,0.3294,0.3294,0.3302,0.3322,0.3332,0.3344,0.3356,0.3359,0.335,0.3328,0.3321,0.3321,0.3322,0.3335,0.334,0.334,0.3351,0.336,0.3359,0.3359,0.3359,0.3362,0.3378,0.3384,0.3388,0.3403,0.3411,0.3303,0.2665,0.2131,0.1706,0.0962,0.043,0.0,0.0,0.0,0.0,0.0,0.0,0.0,0.0,0.0,0.0,0.0,0.0,0.0,0.0,0.0,0.0,0.0,0.0,0.0,0.0,0.0,0.0,0.0,0.0,0.0,0.0,0.0,0.0,0.0,0.0,0.0,0.0,0.0,0.0,0.0,0.0,0.0,0.0,0.0,0.0,0.0,0.0,0.2874,0.2874,0.2874,0.2874,0.2875,0.2878,0.2893,0.2913,0.2927,0.2957,0.2998,0.3011,0.3037,0.3155,0.3088,0.3101,0.3104,0.3134,0.3164,0.3187,0.3209,0.3213,0.3205,0.3216,0.3225,0.3228,0.3231,0.3238,0.3242,0.3242,0.3243,0.3253,0.3272,0.3279,0.3284,0.3305,0.3318,0.3314,0.331,0.3315,0.3324,0.3326,0.3332,0.3344,0.336,0.3381,0.3397,0.3404,0.3385,0.3333,0.333,0.3336,0.3337,0.336,0.337,0.3374,0.339,0.3404,0.3408,0.3403,0.3407,0.3405,0.3405,0.3411,0.341,0.3415,0.3315,0.3208,0.235,0.1714,0.1287,0.0539,0.0,0.0,0.0,0.0,0.0,0.0,0.0,0.0,0.0,0.0,0.0,0.0,0.0,0.0,0.0,0.0,0.0,0.0,0.0,0.0,0.0,0.0,0.0,0.0,0.0,0.0,0.0,0.0,0.0,0.0,0.0,0.0,0.0,0.0,0.0,0.0,0.0,0.0,0.0,0.0,0.0,0.0,0.0,0.2874,0.2874,0.2874,0.2874,0.2878,0.2897,0.2911,0.292,0.2968,0.2995,0.3017,0.3056,0.308,0.3089,0.3118,0.3133,0.3137,0.3164,0.3194,0.322,0.3225,0.3243,0.3246,0.3245,0.3232,0.3239,0.3257,0.3265,0.3269,0.3285,0.33,0.33,0.3303,0.3311,0.3314,0.3322,0.3321,0.3321,0.3322,0.3337,0.3355,0.3358,0.3367,0.3385,0.3396,0.3403,0.3408,0.3411,0.3405,0.3396,0.3389,0.3385,0.3386,0.3395,0.3399,0.34,0.3405,0.3411,0.3412,0.3412,0.3412,0.3415,0.3418,0.3411,0.3414,0.3437,0.323,0.2804,0.2167,0.1411,0.0,0.0,0.0,0.0,0.0,0.0,0.0,0.0,0.0,0.0,0.0,0.0,0.0,0.0,0.0,0.0,0.0,0.0,0.0,0.0,0.0,0.0,0.0,0.0,0.0,0.0,0.0,0.0,0.0,0.0,0.0,0.0,0.0,0.0,0.0,0.0,0.0,0.0,0.0,0.0,0.0,0.0,0.0,0.0,0.0,0.2874,0.2874,0.2874,0.2874,0.2879,0.2904,0.2924,0.2947,0.3002,0.3036,0.3056,0.31,0.3118,0.3122,0.3149,0.3164,0.3171,0.3194,0.3224,0.3246,0.3253,0.3269,0.329,0.3283,0.3273,0.3276,0.3288,0.3296,0.3302,0.3313,0.3318,0.3324,0.3335,0.3341,0.3347,0.3355,0.3365,0.3366,0.3363,0.3373,0.3385,0.3388,0.3392,0.3408,0.3411,0.3411,0.3411,0.3411,0.3411,0.3411,0.3411,0.3411,0.3411,0.3411,0.3411,0.3411,0.3411,0.3411,0.3412,0.3425,0.3434,0.3433,0.3445,0.3453,0.3348,0.3254,0.2933,0.2502,0.1855,0.0,0.0,0.0,0.0,0.0,0.0,0.0,0.0,0.0,0.0,0.0,0.0,0.0,0.0,0.0,0.0,0.0,0.0,0.0,0.0,0.0,0.0,0.0,0.0,0.0,0.0,0.0,0.0,0.0,0.0,0.0,0.0,0.0,0.0,0.0,0.0,0.0,0.0,0.0,0.0,0.0,0.0,0.0,0.0,0.0,0.0,0.2874,0.2874,0.2874,0.2876,0.2886,0.2917,0.295,0.3076,0.304,0.3081,0.3106,0.3137,0.3149,0.3157,0.318,0.3195,0.3209,0.3224,0.3254,0.328,0.3283,0.33,0.3321,0.3325,0.3329,0.3333,0.333,0.3328,0.3329,0.3333,0.3347,0.3343,0.336,0.3373,0.338,0.3396,0.3404,0.3401,0.3401,0.3403,0.3411,0.3414,0.3422,0.3433,0.3434,0.3429,0.3426,0.3422,0.3418,0.3412,0.3411,0.3411,0.3411,0.3411,0.3411,0.3412,0.3418,0.3423,0.343,0.3446,0.3464,0.3465,0.3484,0.3389,0.3281,0.2956,0.2521,0.1976,0.132,0.0,0.0,0.0,0.0,0.0,0.0,0.0,0.0,0.0,0.0,0.0,0.0,0.0,0.0,0.0,0.0,0.0,0.0,0.0,0.0,0.0,0.0,0.0,0.0,0.0,0.0,0.0,0.0,0.0,0.0,0.0,0.0,0.0,0.0,0.0,0.0,0.0,0.0,0.0,0.0,0.0,0.0,0.0,0.0,0.0,0.0,0.2874,0.2874,0.2874,0.2887,0.2916,0.2968,0.3006,0.3044,0.3099,0.3129,0.3138,0.3167,0.318,0.3187,0.321,0.3235,0.325,0.3265,0.3284,0.331,0.3314,0.333,0.3354,0.3359,0.3371,0.3384,0.3375,0.3363,0.3366,0.3382,0.3385,0.3395,0.3401,0.3404,0.3405,0.3411,0.342,0.3423,0.3422,0.3422,0.3426,0.344,0.3459,0.3475,0.3476,0.3468,0.3453,0.3449,0.3438,0.3415,0.3412,0.3414,0.3418,0.3418,0.3418,0.342,0.3438,0.345,0.3454,0.3478,0.3493,0.3497,0.3505,0.3178,0.2853,0.2534,0.2101,0.1329,0.0,0.0,0.0,0.0,0.0,0.0,0.0,0.0,0.0,0.0,0.0,0.0,0.0,0.0,0.0,0.0,0.0,0.0,0.0,0.0,0.0,0.0,0.0,0.0,0.0,0.0,0.0,0.0,0.0,0.0,0.0,0.0,0.0,0.0,0.0,0.0,0.0,0.0,0.0,0.0,0.0,0.0,0.0,0.0,0.0,0.0,0.0,0.2874,0.2874,0.2874,0.29,0.2943,0.2987,0.3033,0.3081,0.3138,0.3167,0.3175,0.3195,0.321,0.3213,0.3223,0.3247,0.3273,0.3294,0.3315,0.3339,0.3347,0.336,0.3386,0.339,0.3397,0.341,0.341,0.3403,0.3393,0.3403,0.3415,0.3415,0.3426,0.3435,0.344,0.3453,0.3456,0.3457,0.3457,0.3457,0.3457,0.3475,0.349,0.3498,0.3505,0.3494,0.3486,0.348,0.3475,0.3463,0.3459,0.3459,0.3459,0.3456,0.345,0.3445,0.3464,0.348,0.3486,0.3508,0.3524,0.3527,0.3536,0.3215,0.2774,0.2337,0.1673,0.0,0.0,0.0,0.0,0.0,0.0,0.0,0.0,0.0,0.0,0.0,0.0,0.0,0.0,0.0,0.0,0.0,0.0,0.0,0.0,0.0,0.0,0.0,0.0,0.0,0.0,0.0,0.0,0.0,0.0,0.0,0.0,0.0,0.0,0.0,0.0,0.0,0.0,0.0,0.0,0.0,0.0,0.0,0.0,0.0,0.0,0.0,0.0,0.2878,0.2883,0.2882,0.2916,0.2971,0.3003,0.3051,0.311,0.3164,0.3191,0.32,0.3219,0.3232,0.324,0.325,0.3268,0.3295,0.3322,0.3347,0.337,0.3377,0.3392,0.3414,0.3422,0.3427,0.3442,0.3452,0.345,0.3427,0.3433,0.3433,0.3442,0.3459,0.3467,0.3471,0.3483,0.3501,0.3504,0.3504,0.3504,0.3509,0.351,0.3514,0.352,0.352,0.352,0.3512,0.351,0.3505,0.3499,0.3498,0.3499,0.3504,0.3508,0.3499,0.3483,0.3498,0.3508,0.3519,0.3538,0.3554,0.3554,0.3464,0.3025,0.2466,0.1792,0.0,0.0,0.0,0.0,0.0,0.0,0.0,0.0,0.0,0.0,0.0,0.0,0.0,0.0,0.0,0.0,0.0,0.0,0.0,0.0,0.0,0.0,0.0,0.0,0.0,0.0,0.0,0.0,0.0,0.0,0.0,0.0,0.0,0.0,0.0,0.0,0.0,0.0,0.0,0.0,0.0,0.0,0.0,0.0,0.0,0.0,0.0,0.0,0.0,0.2889,0.2911,0.2911,0.2946,0.3002,0.3035,0.3081,0.3138,0.3175,0.3202,0.3221,0.3231,0.3247,0.327,0.3299,0.3326,0.3347,0.3363,0.3381,0.3404,0.3411,0.3426,0.3448,0.3452,0.3464,0.3478,0.3491,0.3479,0.3465,0.3478,0.3487,0.3487,0.3489,0.3497,0.3498,0.351,0.3502,0.3505,0.3506,0.3517,0.3535,0.354,0.3554,0.3568,0.3572,0.3562,0.3543,0.3539,0.3532,0.3512,0.3506,0.3505,0.3506,0.3527,0.3536,0.3535,0.3538,0.3539,0.3544,0.3564,0.3579,0.3465,0.3139,0.258,0.1908,0.0,0.0,0.0,0.0,0.0,0.0,0.0,0.0,0.0,0.0,0.0,0.0,0.0,0.0,0.0,0.0,0.0,0.0,0.0,0.0,0.0,0.0,0.0,0.0,0.0,0.0,0.0,0.0,0.0,0.0,0.0,0.0,0.0,0.0,0.0,0.0,0.0,0.0,0.0,0.0,0.0,0.0,0.0,0.0,0.0,0.0,0.0,0.0,0.0,0.0,0.2931,0.2941,0.2941,0.2976,0.3033,0.3065,0.3112,0.3167,0.32,0.3219,0.3232,0.3249,0.3273,0.3303,0.3333,0.3352,0.3371,0.3401,0.3423,0.344,0.3453,0.3468,0.3479,0.3483,0.3494,0.3505,0.3517,0.3523,0.351,0.3502,0.3504,0.3508,0.3519,0.3527,0.3528,0.3543,0.3551,0.3554,0.3554,0.3558,0.3568,0.357,0.3576,0.3589,0.3589,0.3581,0.3573,0.357,0.3565,0.3553,0.3553,0.3553,0.3554,0.3564,0.3569,0.357,0.357,0.357,0.3572,0.3584,0.3588,0.3477,0.3029,0.2356,0.1347,0.0,0.0,0.0,0.0,0.0,0.0,0.0,0.0,0.0,0.0,0.0,0.0,0.0,0.0,0.0,0.0,0.0,0.0,0.0,0.0,0.0,0.0,0.0,0.0,0.0,0.0,0.0,0.0,0.0,0.0,0.0,0.0,0.0,0.0,0.0,0.0,0.0,0.0,0.0,0.0,0.0,0.0,0.0,0.0,0.0,0.0,0.0,0.0,0.0,0.0,0.2976,0.2983,0.2976,0.3007,0.316,0.3088,0.3131,0.3187,0.3208,0.3227,0.325,0.328,0.3313,0.3337,0.337,0.3395,0.3396,0.3445,0.3464,0.3478,0.349,0.3504,0.351,0.3513,0.3519,0.3523,0.3547,0.3554,0.3549,0.3539,0.3531,0.3525,0.3547,0.3555,0.3562,0.3572,0.3581,0.3581,0.3583,0.3584,0.3587,0.3588,0.3588,0.3589,0.3589,0.3589,0.3589,0.3588,0.3588,0.3585,0.3584,0.3581,0.3583,0.3583,0.3585,0.3585,0.3584,0.3585,0.3585,0.3588,0.3589,0.3365,0.2804,0.1907,0.0898,0.0,0.0,0.0,0.0,0.0,0.0,0.0,0.0,0.0,0.0,0.0,0.0,0.0,0.0,0.0,0.0,0.0,0.0,0.0,0.0,0.0,0.0,0.0,0.0,0.0,0.0,0.0,0.0,0.0,0.0,0.0,0.0,0.0,0.0,0.0,0.0,0.0,0.0,0.0,0.0,0.0,0.0,0.0,0.0,0.0,0.0,0.0,0.0,0.0,0.0,0.302,0.3044,0.3016,0.3039,0.3093,0.3096,0.3133,0.3189,0.3193,0.323,0.3281,0.3328,0.3355,0.3377,0.3415,0.3442,0.3452,0.3484,0.3497,0.3499,0.3505,0.3524,0.3535,0.3546,0.3554,0.3572,0.3579,0.358,0.3584,0.3574,0.3576,0.3585,0.3576,0.3583,0.3584,0.3585,0.3589,0.3589,0.3589,0.3589,0.3589,0.3589,0.3589,0.3589,0.3589,0.3589,0.3589,0.3589,0.3589,0.3589,0.3589,0.3589,0.3589,0.3589,0.3589,0.3589,0.3589,0.3589,0.3589,0.3589,0.3591,0.3254,0.2581,0.1459,0.0337,0.0,0.0,0.0,0.0,0.0,0.0,0.0,0.0,0.0,0.0,0.0,0.0,0.0,0.0,0.0,0.0,0.0,0.0,0.0,0.0,0.0,0.0,0.0,0.0,0.0,0.0,0.0,0.0,0.0,0.0,0.0,0.0,0.0,0.0,0.0,0.0,0.0,0.0,0.0,0.0,0.0,0.0,0.0,0.0,0.0,0.0,0.0,0.0,0.0,0.0,0.3041,0.3148,0.3059,0.3076,0.3099,0.3118,0.3149,0.3191,0.3227,0.3276,0.3332,0.3358,0.3388,0.342,0.3441,0.3468,0.3487,0.3514,0.3525,0.3536,0.3547,0.3561,0.3572,0.3572,0.358,0.3588,0.3589,0.3589,0.3588,0.3589,0.3589,0.3589,0.3589,0.3589,0.3589,0.3589,0.3589,0.3589,0.3589,0.3589,0.3589,0.3589,0.3589,0.3589,0.3589,0.3589,0.3589,0.3589,0.3589,0.3589,0.3589,0.3589,0.3589,0.3589,0.3589,0.3589,0.3589,0.3589,0.3589,0.3589,0.3254,0.2469,0.202,0.1347,0.0,0.0,0.0,0.0,0.0,0.0,0.0,0.0,0.0,0.0,0.0,0.0,0.0,0.0,0.0,0.0,0.0,0.0,0.0,0.0,0.0,0.0,0.0,0.0,0.0,0.0,0.0,0.0,0.0,0.0,0.0,0.0,0.0,0.0,0.0,0.0,0.0,0.0,0.0,0.0,0.0,0.0,0.0,0.0,0.0,0.0,0.0,0.0,0.0,0.0,0.0,0.3153,0.3067,0.3089,0.3103,0.3115,0.3152,0.3186,0.322,0.3266,0.3317,0.3367,0.3384,0.3415,0.3452,0.348,0.3494,0.352,0.3543,0.3554,0.3565,0.3576,0.3588,0.3589,0.3588,0.3587,0.3589,0.3589,0.3589,0.3589,0.3589,0.3589,0.3589,0.3589,0.3589,0.3589,0.3589,0.3589,0.3589,0.3589,0.3589,0.3589,0.3589,0.3589,0.3589,0.3589,0.3589,0.3589,0.3589,0.3589,0.3589,0.3589,0.3589,0.3589,0.3589,0.3589,0.3589,0.3589,0.3589,0.3589,0.3477,0.3029,0.2132,0.1909,0.1123,0.0,0.0,0.0,0.0,0.0,0.0,0.0,0.0,0.0,0.0,0.0,0.0,0.0,0.0,0.0,0.0,0.0,0.0,0.0,0.0,0.0,0.0,0.0,0.0,0.0,0.0,0.0,0.0,0.0,0.0,0.0,0.0,0.0,0.0,0.0,0.0,0.0,0.0,0.0,0.0,0.0,0.0,0.0,0.0,0.0,0.0,0.0,0.0,0.0,0.0,0.0,0.307,0.3096,0.31,0.3119,0.3152,0.3204,0.3242,0.3272,0.3305,0.3341,0.3381,0.3425,0.3453,0.3474,0.3512,0.3534,0.3547,0.3572,0.3583,0.3584,0.3585,0.3589,0.3589,0.3589,0.3589,0.3589,0.3589,0.3589,0.3589,0.3589,0.3589,0.3589,0.3589,0.3589,0.3589,0.3589,0.3589,0.3589,0.3589,0.3589,0.3589,0.3589,0.3589,0.3589,0.3589,0.3589,0.3589,0.3589,0.3589,0.3589,0.3589,0.3589,0.3589,0.3589,0.3589,0.3589,0.3589,0.3589,0.3589,0.3589,0.2918,0.202,0.1796,0.1235,0.0,0.0,0.0,0.0,0.0,0.0,0.0,0.0,0.0,0.0,0.0,0.0,0.0,0.0,0.0,0.0,0.0,0.0,0.0,0.0,0.0,0.0,0.0,0.0,0.0,0.0,0.0,0.0,0.0,0.0,0.0,0.0,0.0,0.0,0.0,0.0,0.0,0.0,0.0,0.0,0.0,0.0,0.0,0.0,0.0,0.0,0.0,0.0,0.0,0.0,0.0,0.31,0.3131,0.317,0.3202,0.3228,0.323,0.3258,0.3306,0.334,0.338,0.3422,0.3452,0.3483,0.3512,0.3532,0.3444,0.3574,0.3579,0.3589,0.3589,0.3589,0.3589,0.3589,0.3589,0.3589,0.3589,0.3589,0.3589,0.3589,0.3589,0.3589,0.3589,0.3589,0.3589,0.3589,0.3589,0.3589,0.3589,0.3589,0.3589,0.3589,0.3589,0.3589,0.3589,0.3589,0.3589,0.3589,0.3589,0.3589,0.3589,0.3589,0.3589,0.3589,0.3589,0.3589,0.3589,0.3589,0.3589,0.3589,0.3477,0.303,0.2245,0.1684,0.1235,0.0,0.0,0.0,0.0,0.0,0.0,0.0,0.0,0.0,0.0,0.0,0.0,0.0,0.0,0.0,0.0,0.0,0.0,0.0,0.0,0.0,0.0,0.0,0.0,0.0,0.0,0.0,0.0,0.0,0.0,0.0,0.0,0.0,0.0,0.0,0.0,0.0,0.0,0.0,0.0,0.0,0.0,0.0,0.0,0.0,0.0,0.0,0.0,0.0,0.0,0.0,0.3153,0.3193,0.323,0.3264,0.3287,0.3281,0.3204,0.3143,0.3068,0.2993,0.2915,0.2825,0.2959,0.3097,0.3223,0.3456,0.3589,0.3589,0.3589,0.3589,0.3589,0.3589,0.3589,0.3589,0.3589,0.3589,0.3589,0.3589,0.3589,0.3589,0.3589,0.3589,0.3589,0.3589,0.3589,0.3589,0.3589,0.3589,0.3589,0.3589,0.3589,0.3589,0.3589,0.3589,0.3589,0.3589,0.3589,0.3589,0.3589,0.3589,0.3589,0.3589,0.3589,0.3589,0.3589,0.3589,0.3589,0.3589,0.3589,0.3589,0.303,0.1909,0.1796,0.1235,0.0,0.0,0.0,0.0,0.0,0.0,0.0,0.0,0.0,0.0,0.0,0.0,0.0,0.0,0.0,0.0,0.0,0.0,0.0,0.0,0.0,0.0,0.0,0.0,0.0,0.0,0.0,0.0,0.0,0.0,0.0,0.0,0.0,0.0,0.0,0.0,0.0,0.0,0.0,0.0,0.0,0.0,0.0,0.0,0.0,0.0,0.0,0.0,0.0,0.0,0.0,0.3223,0.3272,0.3276,0.3292,0.3217,0.3242,0.2957,0.2558,0.2581,0.2268,0.1732,0.1981,0.2216,0.2554,0.2682,0.3026,0.3477,0.3589,0.3589,0.3589,0.3589,0.3589,0.3589,0.3589,0.3589,0.3589,0.3589,0.3589,0.3589,0.3589,0.3589,0.3589,0.3589,0.3589,0.3589,0.3589,0.3589,0.3589,0.3589,0.3589,0.3589,0.3589,0.3589,0.3589,0.3589,0.3589,0.3589,0.3589,0.3589,0.3589,0.3589,0.3589,0.3589,0.3589,0.3589,0.3589,0.3589,0.3589,0.3589,0.3589,0.2918,0.202,0.1796,0.1123,0.0,0.0,0.0,0.0,0.0,0.0,0.0,0.0,0.0,0.0,0.0,0.0,0.0,0.0,0.0,0.0,0.0,0.0,0.0,0.0,0.0,0.0,0.0,0.0,0.0,0.0,0.0,0.0,0.0,0.0,0.0,0.0,0.0,0.0,0.0,0.0,0.0,0.0,0.0,0.0,0.0,0.0,0.0,0.0,0.0,0.0,0.0,0.0,0.0,0.0,0.0,0.324,0.3275,0.3276,0.3088,0.2703,0.2321,0.2127,0.1921,0.1937,0.1847,0.1761,0.1769,0.1779,0.2013,0.2465,0.2803,0.3029,0.3365,0.3589,0.3589,0.3589,0.3589,0.3589,0.3589,0.3589,0.3589,0.3589,0.3589,0.3589,0.3589,0.3589,0.3589,0.3589,0.3589,0.3589,0.3589,0.3589,0.3589,0.3589,0.3589,0.3589,0.3589,0.3589,0.3589,0.3589,0.3589,0.3589,0.3587,0.3587,0.3588,0.3588,0.3589,0.3589,0.3589,0.3589,0.3589,0.3589,0.3589,0.3589,0.3589,0.3029,0.2132,0.1796,0.1123,0.0,0.0,0.0,0.0,0.0,0.0,0.0,0.0,0.0,0.0,0.0,0.0,0.0,0.0,0.0,0.0,0.0,0.0,0.0,0.0,0.0,0.0,0.0,0.0,0.0,0.0,0.0,0.0,0.0,0.0,0.0,0.0,0.0,0.0,0.0,0.0,0.0,0.0,0.0,0.0,0.0,0.0,0.0,0.0,0.0,0.0,0.0,0.0,0.0,0.0,0.0,0.2654,0.2674,0.2675,0.2379,0.1881,0.1483,0.1283,0.1078,0.1304,0.1318,0.1108,0.1001,0.1229,0.157,0.2019,0.2468,0.2803,0.3365,0.3589,0.3589,0.3589,0.3589,0.3589,0.3589,0.3589,0.3589,0.3589,0.3589,0.3589,0.3589,0.3589,0.3589,0.3589,0.3589,0.3589,0.3589,0.3589,0.3589,0.3589,0.3589,0.3589,0.3589,0.3589,0.3589,0.3589,0.3589,0.3585,0.3583,0.3573,0.3569,0.3566,0.3555,0.3558,0.3562,0.357,0.3572,0.3584,0.3587,0.3589,0.3589,0.2918,0.2133,0.1796,0.1123,0.0,0.0,0.0,0.0,0.0,0.0,0.0,0.0,0.0,0.0,0.0,0.0,0.0,0.0,0.0,0.0,0.0,0.0,0.0,0.0,0.0,0.0,0.0,0.0,0.0,0.0,0.0,0.0,0.0,0.0,0.0,0.0,0.0,0.0,0.0,0.0,0.0,0.0,0.0,0.0,0.0,0.0,0.0,0.0,0.0,0.0,0.0,0.0,0.0,0.0,0.0,0.175,0.1763,0.1661,0.1461,0.0948,0.0852,0.0432,0.011,0.0663,0.0555,0.0,0.0,0.0449,0.0898,0.1459,0.2019,0.2468,0.3141,0.3477,0.3589,0.3589,0.3589,0.3589,0.3589,0.3589,0.3589,0.3589,0.3589,0.3589,0.3589,0.3589,0.3589,0.3589,0.3589,0.3589,0.3589,0.3589,0.3589,0.3589,0.3589,0.3589,0.3589,0.3589,0.3589,0.3589,0.3588,0.3579,0.3564,0.3543,0.3534,0.3524,0.351,0.3524,0.3536,0.3544,0.3559,0.358,0.3585,0.3589,0.3589,0.2918,0.2245,0.1796,0.1123,0.0,0.0,0.0,0.0,0.0,0.0,0.0,0.0,0.0,0.0,0.0,0.0,0.0,0.0,0.0,0.0,0.0,0.0,0.0,0.0,0.0,0.0,0.0,0.0,0.0,0.0,0.0,0.0,0.0,0.0,0.0,0.0,0.0,0.0,0.0,0.0,0.0,0.0,0.0,0.0,0.0,0.0,0.0,0.0,0.0,0.0,0.0,0.0,0.0,0.0,0.0,0.175,0.1661,0.115,0.0948,0.0745,0.0324,0.0,0.0,0.0111,0.0,0.0,0.0,0.0,0.0,0.0,0.1571,0.2132,0.2804,0.3141,0.3477,0.3589,0.3589,0.3589,0.3589,0.3589,0.3589,0.3589,0.3589,0.3589,0.3589,0.3589,0.3589,0.3589,0.3589,0.3589,0.3589,0.3589,0.3589,0.3589,0.3589,0.3589,0.3589,0.3589,0.3589,0.3588,0.3574,0.3564,0.3549,0.3529,0.3516,0.3509,0.3514,0.3534,0.354,0.3557,0.3576,0.3583,0.3588,0.3589,0.3477,0.2917,0.2245,0.1684,0.101,0.0,0.0,0.0,0.0,0.0,0.0,0.0,0.0,0.0,0.0,0.0,0.0,0.0,0.0,0.0,0.0,0.0,0.0,0.0,0.0,0.0,0.0,0.0,0.0,0.0,0.0,0.0,0.0,0.0,0.0,0.0,0.0,0.0,0.0,0.0,0.0,0.0,0.0,0.0,0.0,0.0,0.0,0.0,0.0,0.0,0.0,0.0,0.0,0.0,0.0,0.0,0.0927,0.0936,0.0634,0.0428,0.0432,0.0109,0.0,0.0,0.0,0.0,0.0,0.0,0.0,0.0,0.0,0.1235,0.1796,0.2468,0.3029,0.3477,0.3589,0.3589,0.3589,0.3589,0.3589,0.3589,0.3589,0.3589,0.3589,0.3589,0.3589,0.3589,0.3589,0.3589,0.3589,0.3589,0.3589,0.3589,0.3589,0.3589,0.3589,0.3589,0.3589,0.3589,0.3576,0.3562,0.3542,0.3525,0.3498,0.3487,0.3482,0.3497,0.3517,0.3536,0.355,0.3566,0.3579,0.3589,0.3589,0.3253,0.2804,0.2132,0.146,0.0786,0.0,0.0,0.0,0.0,0.0,0.0,0.0,0.0,0.0,0.0,0.0,0.0,0.0,0.0,0.0,0.0,0.0,0.0,0.0,0.0,0.0,0.0,0.0,0.0,0.0,0.0,0.0,0.0,0.0,0.0,0.0,0.0,0.0,0.0,0.0,0.0,0.0,0.0,0.0,0.0,0.0,0.0,0.0,0.0,0.0,0.0,0.0,0.0,0.0,0.0,0.0,0.0,0.0,0.0,0.0,0.0,0.0,0.0,0.0,0.0,0.0,0.0,0.0,0.0,0.0,0.0561,0.1123,0.1683,0.2245,0.2804,0.3477,0.3589,0.3589,0.3589,0.3589,0.3589,0.3589,0.3589,0.3589,0.3589,0.3589,0.3589,0.3589,0.3589,0.3589,0.3589,0.3589,0.3589,0.3589,0.3589,0.3589,0.3589,0.3589,0.3589,0.358,0.3566,0.355,0.3529,0.3506,0.3474,0.3467,0.3475,0.3493,0.3512,0.3536,0.3549,0.3564,0.358,0.3588,0.3477,0.3141,0.2468,0.1908,0.1235,0.0,0.0,0.0,0.0,0.0,0.0,0.0,0.0,0.0,0.0,0.0,0.0,0.0,0.0,0.0,0.0,0.0,0.0,0.0,0.0,0.0,0.0,0.0,0.0,0.0,0.0,0.0,0.0,0.0,0.0,0.0,0.0,0.0,0.0,0.0,0.0,0.0,0.0,0.0,0.0,0.0,0.0,0.0,0.0,0.0,0.0,0.0,0.0,0.0,0.0,0.0,0.0,0.0,0.0,0.0,0.0,0.0,0.0,0.0,0.0,0.0,0.0,0.0,0.0,0.0,0.0,0.0112,0.0674,0.1796,0.202,0.2692,0.3477,0.3589,0.3589,0.3589,0.3589,0.3589,0.3589,0.3589,0.3589,0.3589,0.3589,0.3589,0.3589,0.3589,0.3589,0.3589,0.3589,0.3589,0.3589,0.3589,0.3589,0.3589,0.3589,0.3589,0.3585,0.3584,0.3565,0.3547,0.3535,0.3516,0.3501,0.3495,0.351,0.3528,0.3546,0.3558,0.357,0.3587,0.3588,0.3365,0.2917,0.2357,0.1796,0.1235,0.0,0.0,0.0,0.0,0.0,0.0,0.0,0.0,0.0,0.0,0.0,0.0,0.0,0.0,0.0,0.0,0.0,0.0,0.0,0.0,0.0,0.0,0.0,0.0,0.0,0.0,0.0,0.0,0.0,0.0,0.0,0.0,0.0,0.0,0.0,0.0,0.0,0.0,0.0,0.0,0.0,0.0,0.0,0.0,0.0,0.0,0.0,0.0,0.0,0.0,0.0,0.0]}]]